[[{"header":{"parameterUnit":"m.s-1","parameterCategory":1,"la1":31.0,"la2":29.5877,"lo1":-88.7671,"lo2":-86.6584,"dy":0.0162,"dx":0.0185,"nx":115,"ny":88,"refTime":"2024-09-04T12:00:00:Z","depth":0,"parameterNumber":2,"parameterNumberName":"U-component_of_WINDS"},"data":[0.0,0.0,0.0,0.0,0.0,0.0,0.0,0.0,0.0,0.0,0.0,0.0,0.0,0.0,0.0,0.0,0.0,0.0,0.0,0.0,0.0,0.0,0.0,0.0,0.0,0.0,0.0,0.0,0.0,0.0,0.0,0.0,0.0,0.0,0.0,0.0,0.0,0.0,0.0,0.0,0.0,0.0,0.0,0.0,0.0,0.0,0.0,0.0,0.0,0.0,0.0,0.0,0.0,0.0,0.0,0.0,0.0,0.0,0.0,0.0,0.0,0.0,0.0,0.0,0.0,0.0,0.0,0.0,0.0,0.0,0.0,0.0,0.0,0.0,0.0,0.0,0.0,0.0,0.0,0.0,0.0,0.0,0.0,0.0,0.0,0.0,0.0,0.0,0.0,0.0,0.0,0.0,0.0,0.0,0.0,0.0,0.0,0.0,0.0,0.0,0.0,0.0,0.0,0.0,0.0,0.0,0.0,0.0,0.0,0.0,0.0,0.0,0.0,0.0,0.0,0.0,0.0,0.0,0.0,0.0,0.0,0.0,0.0,0.0,0.0,0.0,0.0,0.0,0.0,0.0,0.0,0.0,0.0,0.0,0.0,0.0,0.0,0.0,0.0,0.0,0.0,0.0,0.0,0.0,0.0,0.0,0.0,0.0,0.0,0.0,0.0,0.0,0.0,0.0,0.0,0.0,0.0,0.0,0.0,0.0,0.0,0.0,0.0,0.0,0.0,0.0,0.0,0.0,0.0,0.0,0.0,0.0,0.0,0.0,0.0,0.0,0.0,0.0,0.0,0.0,0.0,0.0,0.0,0.0,0.0,0.0,0.0,0.0,0.0,0.0,0.0,0.0,0.0,0.0,0.0,0.0,0.0,0.0,0.0,0.0,0.0,0.0,0.0,0.0,0.0,0.0,0.0,0.0,0.0,0.0,0.0,0.0,0.0,0.0,0.0,0.0,0.0,0.0,0.0,0.0,0.0,0.0,0.0,0.0,0.0,0.0,0.0,0.0,0.0,0.0,0.0,0.0,0.0,0.0,0.0,0.0,0.0,0.0,0.0,0.0,0.0,0.0,0.0,0.0,0.0,0.0,0.0,0.0,0.0,0.0,0.0,0.0,0.0,0.0,0.0,0.0,0.0,0.0,0.0,0.0,0.0,0.0,0.0,0.0,0.0,0.0,0.0,0.0,0.0,0.0,0.0,0.0,0.0,0.0,0.0,0.0,0.0,0.0,0.0,0.0,0.0,0.0,0.0,0.0,0.0,0.0,0.0,0.0,0.0,0.0,0.0,0.0,0.0,0.0,0.0,0.0,0.0,0.0,0.0,0.0,0.0,0.0,0.0,0.0,0.0,0.0,0.0,0.0,0.0,0.0,0.0,0.0,0.0,0.0,0.0,0.0,0.0,0.0,0.0,0.0,0.0,0.0,0.0,0.0,0.0,0.0,0.0,0.0,0.0,0.0,0.0,0.0,0.0,0.0,0.0,0.0,0.0,0.0,0.0,0.0,0.0,0.0,0.0,0.0,0.0,0.0,0.0,0.0,0.0,0.0,0.0,0.0,0.0,0.0,0.0,0.0,0.0,0.0,0.0,0.0,0.0,0.0,0.0,0.0,0.0,0.0,0.0,0.0,0.0,0.0,0.0,0.0,0.0,0.0,0.0,0.0,0.0,0.0,0.0,0.0,0.0,0.0,0.0,0.0,0.0,0.0,0.0,0.0,0.0,0.0,0.0,0.0,0.0,0.0,0.0,0.0,0.0,0.0,0.0,0.0,0.0,0.0,0.0,0.0,0.0,0.0,0.0,0.0,0.0,0.0,0.0,0.0,0.0,0.0,0.0,0.0,0.0,0.0,0.0,0.0,0.0,0.0,0.0,0.0,0.0,0.0,0.0,0.0,0.0,0.0,0.0,0.0,0.0,0.0,0.0,0.0,0.0,0.0,0.0,0.0,0.0,0.0,0.0,0.0,0.0,0.0,0.0,0.0,0.0,0.0,0.0,0.0,0.0,0.0,0.0,0.0,0.0,0.0,0.0,0.0,0.0,0.0,0.0,0.0,0.0,0.0,0.0,0.0,0.0,0.0,0.0,0.0,0.0,0.0,0.0,0.0,0.0,0.0,0.0,0.0,0.0,0.0,0.0,0.0,0.0,0.0,0.0,0.0,0.0,0.0,0.0,0.0,0.0,0.0,0.0,0.0,0.0,0.0,0.0,0.0,0.0,0.0,0.0,0.0,0.0,0.0,0.0,0.0,0.0,0.0,0.0,0.0,0.0,0.0,0.0,0.0,0.0,0.0,0.0,0.0,0.0,0.0,0.0,0.0,0.0,0.0,0.0,0.0,0.0,0.0,0.0,0.0,0.0,0.0,0.0,0.0,0.0,0.0,0.0,0.0,0.0,0.0,0.0,0.0,0.0,0.0,0.0,0.0,0.0,0.0,0.0,0.0,0.0,0.0,0.0,0.0,0.0,0.0,0.0,0.0,0.0,0.0,0.0,0.0,0.0,0.0,0.0,0.0,0.0,0.0,0.0,0.0,0.0,0.0,0.0,0.0,0.0,0.0,0.0,0.0,0.0,0.0,0.0,0.0,0.0,0.0,0.0,0.0,0.0,0.0,0.0,0.0,0.0,0.0,0.0,0.0,0.0,0.0,0.0,0.0,0.0,0.0,0.0,0.0,0.0,0.0,0.0,0.0,0.0,0.0,0.0,0.0,0.0,0.0,0.0,0.0,0.0,0.0,0.0,0.0,0.0,0.0,0.0,0.0,0.0,0.0,0.0,0.0,0.0,0.0,0.0,0.0,0.0,0.0,0.0,0.0,0.0,0.0,0.0,0.0,0.0,0.0,0.0,0.0,0.0,0.0,0.0,0.0,0.0,0.0,0.0,0.0,0.0,0.0,0.0,0.0,0.0,0.0,0.0,0.0,0.0,0.0,0.0,0.0,0.0,0.0,0.0,0.0,0.0,0.0,0.0,0.0,0.0,0.0,0.0,0.0,0.0,0.0,0.0,0.0,0.0,0.0,0.0,0.0,0.0,0.0,0.0,0.0,0.0,0.0,0.0,0.0,0.0,0.0,0.0,0.0,0.0,0.0,0.0,0.0,0.0,0.0,0.0,0.0,0.0,0.0,0.0,0.0,0.0,0.0,0.0,0.0,0.0,0.0,0.0,0.0,0.0,0.0,0.0,0.0,0.0,0.0,0.0,0.0,0.0,0.0,0.0,0.0,0.0,0.0,0.0,0.0,0.0,0.0,0.0,0.0,0.0,0.0,0.0,0.0,0.0,0.0,0.0,0.0,0.0,0.0,0.0,0.0,0.0,0.0,0.0,0.0,0.0,0.0,0.0,0.0,0.0,0.0,0.0,0.0,0.0,0.0,0.0,0.0,0.0,0.0,0.0,0.0,0.0,0.0,0.0,0.0,0.0,0.0,0.0,0.0,0.0,0.0,0.0,0.0,0.0,0.0,0.0,0.0,0.0,0.0,0.0,0.0,0.0,0.0,0.0,0.0,0.0,0.0,0.0,0.0,0.0,0.0,0.0,0.0,0.0,0.0,0.0,0.0,0.0,0.0,0.0,0.0,0.0,0.0,0.0,0.0,0.0,0.0,0.0,0.0,0.0,0.0,0.0,0.0,0.0,0.0,0.0,0.0,0.0,0.0,0.0,0.0,0.0,0.0,0.0,0.0,0.0,0.0,0.0,0.0,0.0,0.0,0.0,0.0,0.0,0.0,0.0,0.0,0.0,0.0,0.0,0.0,0.0,0.0,0.0,0.0,0.0,0.0,0.0,0.0,0.0,0.0,0.0,0.0,0.0,0.0,0.0,0.0,0.0,0.0,0.0,0.0,0.0,0.0,0.0,0.0,0.0,0.0,0.0,0.0,0.0,0.0,0.0,0.0,0.0,0.0,0.0,0.0,0.0,0.0,0.0,0.0,0.0,0.0,0.0,0.0,0.0,0.0,0.0,0.0,0.0,0.0,0.0,0.0,0.0,0.0,0.0,0.0,0.0,0.0,0.0,0.0,0.0,0.0,0.0,0.0,0.0,0.0,0.0,0.0,0.0,0.0,0.0,0.0,0.0,0.0,0.0,0.0,0.0,0.0,0.0,0.0,0.0,0.0,0.0,0.0,0.0,0.0,0.0,0.0,0.0,0.0,0.0,0.0,0.0,0.0,0.0,0.0,0.0,0.0,0.0,0.0,0.0,0.0,0.0,0.0,0.0,0.0,0.0,0.0,0.0,0.0,0.0,0.0,0.0,0.0,0.0,0.0,0.0,0.0,4.4432,0.0,0.0,0.0,0.0,0.0,0.0,0.0,0.0,0.0,0.0,0.0,0.0,0.0,0.0,0.0,0.0,0.0,0.0,0.0,0.0,0.0,0.0,0.0,0.0,0.0,0.0,0.0,0.0,0.0,0.0,0.0,0.0,0.0,0.0,0.0,0.0,0.0,0.0,0.0,0.0,0.0,0.0,0.0,0.0,0.0,0.0,0.0,0.0,0.0,0.0,0.0,0.0,0.0,0.0,0.0,0.0,0.0,0.0,0.0,0.0,0.0,0.0,0.0,0.0,0.0,0.0,0.0,0.0,0.0,0.0,0.0,0.0,0.0,0.0,0.0,0.0,0.0,0.0,0.0,0.0,0.0,0.0,0.0,0.0,0.0,0.0,0.0,0.0,0.0,0.0,0.0,0.0,0.0,0.0,0.0,0.0,0.0,0.0,0.0,0.0,0.0,0.0,0.0,0.0,0.0,0.0,0.0,0.0,0.0,0.0,4.7233,4.6827,4.6838,4.6372,4.5196,0.0,0.0,0.0,0.0,0.0,0.0,0.0,0.0,0.0,0.0,0.0,0.0,0.0,0.0,0.0,0.0,0.0,0.0,0.0,0.0,0.0,0.0,0.0,0.0,0.0,0.0,0.0,0.0,0.0,0.0,0.0,0.0,0.0,0.0,0.0,0.0,0.0,0.0,0.0,0.0,0.0,0.0,0.0,0.0,0.0,0.0,0.0,0.0,0.0,0.0,0.0,0.0,0.0,0.0,0.0,0.0,0.0,0.0,0.0,0.0,0.0,0.0,0.0,0.0,0.0,0.0,0.0,0.0,0.0,0.0,0.0,0.0,0.0,0.0,0.0,0.0,0.0,0.0,0.0,0.0,0.0,0.0,0.0,0.0,0.0,0.0,0.0,0.0,0.0,0.0,0.0,0.0,0.0,0.0,0.0,0.0,0.0,0.0,0.0,0.0,0.0,0.0,0.0,0.0,0.0,0.0,0.0,0.0,0.0,0.0,0.0,0.0,4.7684,4.7143,4.55,0.0,0.0,0.0,0.0,0.0,0.0,0.0,0.0,0.0,0.0,0.0,0.0,0.0,0.0,0.0,0.0,0.0,0.0,0.0,0.0,0.0,0.0,0.0,0.0,0.0,0.0,0.0,0.0,0.0,0.0,0.0,0.0,0.0,0.0,0.0,0.0,0.0,0.0,0.0,0.0,0.0,0.0,0.0,0.0,0.0,0.0,0.0,0.0,0.0,0.0,0.0,0.0,0.0,0.0,0.0,0.0,0.0,0.0,0.0,0.0,0.0,0.0,0.0,0.0,0.0,0.0,0.0,0.0,0.0,0.0,0.0,0.0,0.0,0.0,0.0,0.0,0.0,0.0,0.0,0.0,0.0,0.0,0.0,0.0,0.0,0.0,0.0,0.0,0.0,0.0,0.0,0.0,0.0,0.0,0.0,0.0,0.0,0.0,0.0,0.0,0.0,0.0,0.0,0.0,0.0,0.0,0.0,0.0,0.0,0.0,4.8875,4.8781,4.8225,0.0,4.4811,0.0,0.0,0.0,0.0,0.0,0.0,0.0,0.0,0.0,0.0,0.0,0.0,0.0,0.0,0.0,0.0,0.0,0.0,0.0,0.0,0.0,0.0,0.0,0.0,0.0,0.0,0.0,0.0,0.0,0.0,0.0,0.0,0.0,0.0,0.0,0.0,0.0,0.0,0.0,0.0,0.0,0.0,0.0,0.0,0.0,0.0,0.0,0.0,0.0,0.0,0.0,0.0,0.0,0.0,0.0,0.0,0.0,0.0,0.0,0.0,0.0,0.0,0.0,0.0,0.0,0.0,0.0,0.0,0.0,0.0,0.0,0.0,0.0,0.0,0.0,0.0,0.0,0.0,0.0,0.0,0.0,0.0,0.0,0.0,0.0,0.0,0.0,0.0,0.0,0.0,0.0,0.0,0.0,0.0,0.0,0.0,0.0,0.0,0.0,0.0,0.0,0.0,0.0,0.0,0.0,0.0,0.0,0.0,0.0,0.0,0.0,4.9018,4.7861,4.6616,0.0,0.0,0.0,0.0,0.0,0.0,0.0,0.0,0.0,0.0,0.0,0.0,0.0,0.0,0.0,0.0,0.0,0.0,0.0,0.0,0.0,0.0,0.0,0.0,0.0,0.0,0.0,0.0,0.0,0.0,0.0,0.0,0.0,0.0,0.0,0.0,0.0,0.0,0.0,0.0,0.0,0.0,0.0,0.0,0.0,0.0,0.0,0.0,0.0,0.0,0.0,0.0,0.0,0.0,0.0,0.0,0.0,0.0,0.0,0.0,0.0,0.0,0.0,0.0,0.0,0.0,0.0,0.0,0.0,0.0,0.0,0.0,0.0,0.0,0.0,0.0,0.0,0.0,0.0,0.0,0.0,0.0,0.0,0.0,0.0,0.0,0.0,0.0,0.0,0.0,0.0,0.0,0.0,0.0,0.0,0.0,0.0,0.0,0.0,0.0,0.0,0.0,0.0,0.0,0.0,0.0,0.0,0.0,0.0,0.0,4.824,0.0,4.8951,4.7571,4.6455,4.573,0.0,0.0,0.0,0.0,0.0,0.0,0.0,0.0,0.0,0.0,0.0,0.0,0.0,0.0,0.0,0.0,0.0,0.0,0.0,0.0,0.0,0.0,0.0,0.0,0.0,0.0,0.0,0.0,0.0,0.0,0.0,0.0,0.0,0.0,0.0,0.0,0.0,0.0,0.0,0.0,0.0,0.0,0.0,0.0,0.0,0.0,0.0,0.0,0.0,0.0,0.0,0.0,0.0,0.0,0.0,0.0,0.0,0.0,0.0,0.0,0.0,0.0,0.0,0.0,0.0,0.0,0.0,0.0,0.0,0.0,0.0,0.0,0.0,0.0,0.0,0.0,0.0,0.0,0.0,0.0,0.0,0.0,0.0,0.0,0.0,0.0,0.0,0.0,0.0,0.0,0.0,0.0,0.0,0.0,0.0,0.0,0.0,0.0,0.0,0.0,0.0,0.0,0.0,0.0,0.0,0.0,0.0,0.0,0.0,4.824,4.9018,4.8977,4.7571,4.6447,0.0,0.0,0.0,0.0,0.0,0.0,0.0,0.0,0.0,0.0,0.0,0.0,0.0,0.0,0.0,0.0,0.0,0.0,0.0,0.0,0.0,0.0,0.0,0.0,0.0,0.0,0.0,0.0,0.0,0.0,0.0,0.0,0.0,0.0,0.0,0.0,0.0,0.0,0.0,0.0,0.0,0.0,0.0,0.0,0.0,0.0,0.0,0.0,0.0,0.0,0.0,0.0,0.0,0.0,0.0,0.0,0.0,0.0,0.0,0.0,0.0,0.0,0.0,0.0,0.0,0.0,0.0,0.0,0.0,0.0,0.0,0.0,0.0,0.0,0.0,0.0,0.0,0.0,0.0,0.0,0.0,0.0,0.0,0.0,0.0,0.0,0.0,0.0,0.0,0.0,0.0,0.0,0.0,0.0,0.0,0.0,0.0,0.0,0.0,0.0,0.0,0.0,0.0,0.0,0.0,0.0,0.0,0.0,0.0,4.6853,4.8248,4.9018,0.0,4.7564,4.6447,0.0,0.0,0.0,0.0,0.0,0.0,0.0,0.0,0.0,0.0,0.0,0.0,0.0,0.0,0.0,0.0,0.0,0.0,0.0,0.0,0.0,0.0,0.0,0.0,0.0,0.0,0.0,0.0,0.0,0.0,0.0,0.0,0.0,0.0,0.0,0.0,0.0,0.0,0.0,0.0,0.0,0.0,0.0,0.0,0.0,0.0,0.0,0.0,0.0,0.0,0.0,0.0,0.0,0.0,0.0,0.0,0.0,0.0,0.0,0.0,0.0,0.0,0.0,0.0,0.0,0.0,0.0,0.0,0.0,0.0,0.0,0.0,0.0,0.0,0.0,0.0,0.0,0.0,0.0,0.0,0.0,0.0,0.0,0.0,0.0,0.0,0.0,0.0,0.0,0.0,0.0,0.0,0.0,0.0,0.0,0.0,0.0,0.0,0.0,0.0,0.0,0.0,0.0,0.0,0.0,0.0,0.0,0.0,0.0,4.7503,0.0,4.9018,0.0,4.7564,4.6447,0.0,0.0,0.0,0.0,0.0,0.0,0.0,0.0,0.0,0.0,0.0,0.0,0.0,0.0,0.0,0.0,0.0,0.0,0.0,0.0,0.0,0.0,0.0,0.0,0.0,0.0,0.0,0.0,0.0,0.0,0.0,0.0,0.0,0.0,0.0,0.0,0.0,0.0,0.0,0.0,0.0,0.0,0.0,0.0,0.0,0.0,0.0,0.0,0.0,0.0,0.0,0.0,0.0,0.0,0.0,0.0,0.0,0.0,0.0,0.0,0.0,0.0,0.0,0.0,0.0,0.0,0.0,0.0,0.0,0.0,0.0,0.0,0.0,0.0,0.0,0.0,0.0,0.0,0.0,0.0,0.0,0.0,0.0,0.0,0.0,0.0,0.0,0.0,0.0,0.0,0.0,0.0,0.0,0.0,0.0,0.0,0.0,0.0,0.0,0.0,0.0,0.0,0.0,0.0,0.0,0.0,0.0,0.0,4.7496,4.8909,4.9018,4.9052,4.8984,4.7597,4.6481,0.0,0.0,0.0,0.0,0.0,0.0,0.0,0.0,0.0,0.0,0.0,0.0,0.0,0.0,0.0,0.0,0.0,0.0,0.0,0.0,0.0,0.0,0.0,0.0,0.0,0.0,0.0,0.0,0.0,0.0,0.0,0.0,0.0,0.0,0.0,0.0,0.0,0.0,0.0,0.0,0.0,0.0,0.0,0.0,0.0,0.0,0.0,0.0,0.0,0.0,0.0,0.0,0.0,0.0,0.0,0.0,0.0,0.0,0.0,0.0,0.0,0.0,0.0,0.0,0.0,0.0,0.0,0.0,0.0,0.0,0.0,0.0,0.0,0.0,0.0,0.0,0.0,0.0,0.0,0.0,0.0,0.0,0.0,0.0,0.0,0.0,0.0,0.0,0.0,0.0,0.0,0.0,0.0,0.0,0.0,0.0,0.0,0.0,0.0,0.0,0.0,0.0,0.0,0.0,0.0,0.0,0.0,0.0,0.0,4.9703,4.9763,4.9778,4.9703,4.8334,4.6981,0.0,0.0,0.0,0.0,0.0,0.0,0.0,0.0,0.0,0.0,0.0,0.0,0.0,0.0,0.0,0.0,0.0,0.0,0.0,0.0,0.0,0.0,0.0,0.0,0.0,0.0,0.0,0.0,0.0,0.0,0.0,0.0,0.0,0.0,0.0,0.0,0.0,0.0,0.0,0.0,0.0,0.0,0.0,0.0,0.0,0.0,0.0,0.0,0.0,0.0,0.0,0.0,0.0,0.0,0.0,0.0,0.0,0.0,0.0,0.0,0.0,0.0,0.0,0.0,0.0,0.0,0.0,0.0,0.0,0.0,0.0,0.0,0.0,0.0,0.0,0.0,0.0,0.0,0.0,0.0,0.0,0.0,0.0,0.0,0.0,0.0,0.0,0.0,0.0,0.0,0.0,0.0,0.0,0.0,0.0,0.0,0.0,0.0,0.0,0.0,0.0,0.0,0.0,0.0,0.0,0.0,0.0,0.0,0.0,5.0292,5.0141,4.9974,4.9918,4.8749,4.7435,4.5934,0.0,0.0,0.0,0.0,0.0,0.0,0.0,0.0,0.0,0.0,0.0,0.0,0.0,0.0,0.0,0.0,0.0,0.0,0.0,0.0,0.0,0.0,0.0,0.0,0.0,0.0,0.0,0.0,0.0,0.0,0.0,0.0,0.0,0.0,0.0,0.0,0.0,0.0,0.0,0.0,0.0,0.0,0.0,0.0,0.0,0.0,0.0,0.0,0.0,0.0,0.0,0.0,0.0,0.0,0.0,0.0,0.0,0.0,0.0,0.0,0.0,0.0,0.0,0.0,0.0,0.0,0.0,0.0,0.0,0.0,0.0,0.0,0.0,0.0,0.0,0.0,0.0,0.0,0.0,0.0,0.0,0.0,0.0,0.0,0.0,0.0,0.0,0.0,0.0,0.0,0.0,0.0,0.0,0.0,0.0,0.0,0.0,0.0,0.0,0.0,0.0,0.0,0.0,0.0,0.0,0.0,0.0,0.0,5.0949,5.0244,4.9793,4.9672,4.8944,4.7832,0.0,0.0,0.0,0.0,0.0,0.0,0.0,0.0,0.0,0.0,0.0,0.0,0.0,0.0,0.0,0.0,0.0,0.0,0.0,0.0,0.0,0.0,0.0,0.0,0.0,0.0,0.0,0.0,0.0,0.0,0.0,0.0,0.0,0.0,0.0,0.0,0.0,0.0,0.0,0.0,0.0,0.0,0.0,0.0,0.0,0.0,0.0,0.0,0.0,0.0,0.0,0.0,0.0,0.0,0.0,0.0,0.0,0.0,0.0,0.0,0.0,0.0,0.0,0.0,0.0,0.0,0.0,0.0,0.0,0.0,0.0,0.0,0.0,0.0,0.0,0.0,0.0,0.0,0.0,0.0,0.0,0.0,0.0,0.0,0.0,0.0,0.0,0.0,0.0,0.0,0.0,0.0,0.0,0.0,0.0,0.0,0.0,0.0,0.0,0.0,0.0,0.0,0.0,0.0,0.0,0.0,0.0,0.0,0.0,5.0435,5.036,5.0293,5.0375,4.9706,4.8349,0.0,0.0,0.0,0.0,0.0,0.0,0.0,0.0,0.0,0.0,0.0,0.0,0.0,0.0,0.0,0.0,0.0,0.0,0.0,0.0,0.0,0.0,0.0,0.0,0.0,0.0,0.0,0.0,0.0,0.0,0.0,0.0,0.0,0.0,0.0,0.0,0.0,0.0,0.0,0.0,0.0,0.0,0.0,0.0,0.0,0.0,0.0,0.0,0.0,0.0,0.0,0.0,0.0,0.0,0.0,0.0,0.0,0.0,0.0,0.0,0.0,0.0,0.0,0.0,0.0,0.0,0.0,0.0,0.0,0.0,0.0,0.0,0.0,0.0,0.0,0.0,0.0,0.0,0.0,0.0,0.0,0.0,0.0,0.0,0.0,0.0,0.0,0.0,0.0,0.0,0.0,0.0,0.0,0.0,0.0,0.0,0.0,0.0,0.0,0.0,0.0,0.0,0.0,0.0,0.0,0.0,0.0,0.0,4.8234,5.0224,5.0222,5.0205,5.0231,4.9984,4.8793,0.0,0.0,0.0,0.0,0.0,0.0,0.0,0.0,0.0,0.0,0.0,0.0,0.0,0.0,0.0,0.0,0.0,0.0,0.0,0.0,0.0,0.0,0.0,0.0,0.0,0.0,0.0,0.0,0.0,0.0,0.0,0.0,0.0,0.0,0.0,0.0,0.0,0.0,0.0,0.0,0.0,0.0,0.0,0.0,0.0,0.0,0.0,0.0,0.0,0.0,0.0,0.0,0.0,0.0,0.0,0.0,0.0,0.0,0.0,0.0,0.0,0.0,0.0,0.0,0.0,0.0,0.0,0.0,0.0,0.0,0.0,0.0,0.0,0.0,0.0,0.0,0.0,0.0,0.0,0.0,0.0,0.0,0.0,0.0,0.0,0.0,0.0,0.0,0.0,0.0,0.0,0.0,0.0,0.0,0.0,0.0,0.0,0.0,0.0,0.0,0.0,0.0,0.0,0.0,0.0,0.0,0.0,0.0,4.8074,4.9894,4.9806,4.9682,4.9591,4.9946,4.906,0.0,0.0,0.0,0.0,0.0,0.0,0.0,0.0,0.0,0.0,0.0,0.0,0.0,0.0,0.0,0.0,0.0,0.0,0.0,0.0,0.0,0.0,0.0,0.0,0.0,0.0,0.0,0.0,0.0,0.0,0.0,0.0,0.0,0.0,0.0,0.0,0.0,0.0,0.0,0.0,0.0,0.0,0.0,0.0,0.0,0.0,0.0,0.0,0.0,0.0,0.0,0.0,0.0,0.0,0.0,0.0,0.0,0.0,0.0,0.0,0.0,0.0,0.0,0.0,0.0,0.0,0.0,0.0,0.0,0.0,0.0,0.0,0.0,0.0,0.0,0.0,0.0,0.0,0.0,0.0,0.0,0.0,0.0,0.0,0.0,0.0,0.0,0.0,0.0,0.0,0.0,0.0,0.0,0.0,0.0,0.0,0.0,0.0,0.0,0.0,0.0,0.0,0.0,0.0,0.0,0.0,0.0,0.0,4.7984,4.8827,4.8696,4.8894,4.9447,4.9641,4.8441,0.0,0.0,0.0,0.0,0.0,0.0,0.0,0.0,0.0,0.0,0.0,0.0,0.0,0.0,0.0,0.0,0.0,0.0,0.0,0.0,0.0,0.0,0.0,0.0,0.0,0.0,0.0,0.0,0.0,0.0,0.0,0.0,0.0,0.0,0.0,0.0,0.0,0.0,0.0,0.0,0.0,0.0,0.0,0.0,0.0,0.0,0.0,0.0,4.1494,0.0,0.0,0.0,0.0,0.0,0.0,0.0,0.0,0.0,0.0,0.0,0.0,0.0,0.0,0.0,0.0,0.0,0.0,0.0,0.0,0.0,0.0,0.0,0.0,0.0,0.0,0.0,0.0,0.0,0.0,0.0,0.0,0.0,0.0,0.0,0.0,0.0,0.0,0.0,0.0,0.0,0.0,0.0,0.0,0.0,0.0,0.0,0.0,0.0,0.0,0.0,0.0,0.0,0.0,0.0,0.0,0.0,0.0,0.0,4.773,4.8218,4.7996,4.8013,4.8329,4.8368,4.7569,0.0,0.0,0.0,0.0,0.0,0.0,0.0,0.0,0.0,0.0,0.0,0.0,0.0,0.0,0.0,0.0,0.0,0.0,0.0,0.0,0.0,0.0,0.0,0.0,0.0,0.0,0.0,0.0,0.0,0.0,0.0,0.0,0.0,0.0,0.0,0.0,0.0,0.0,0.0,0.0,0.0,0.0,0.0,0.0,0.0,0.0,0.0,0.0,0.0,0.0,0.0,0.0,0.0,0.0,0.0,0.0,0.0,0.0,0.0,0.0,0.0,0.0,0.0,0.0,0.0,0.0,0.0,0.0,0.0,0.0,0.0,0.0,0.0,0.0,0.0,0.0,0.0,0.0,0.0,0.0,0.0,0.0,0.0,0.0,0.0,0.0,0.0,0.0,0.0,0.0,0.0,0.0,0.0,0.0,0.0,0.0,0.0,0.0,0.0,0.0,0.0,0.0,0.0,0.0,0.0,0.0,0.0,4.6492,4.7314,4.7667,4.7351,4.7048,4.6856,4.6752,4.6399,4.5736,0.0,0.0,0.0,0.0,0.0,0.0,0.0,0.0,0.0,0.0,0.0,0.0,0.0,0.0,0.0,0.0,0.0,0.0,0.0,0.0,0.0,0.0,0.0,0.0,0.0,0.0,0.0,0.0,0.0,0.0,0.0,0.0,0.0,0.0,0.0,0.0,0.0,0.0,4.0468,4.1744,0.0,0.0,0.0,0.0,0.0,0.0,0.0,0.0,4.3583,0.0,0.0,0.0,0.0,0.0,0.0,0.0,0.0,0.0,0.0,0.0,0.0,0.0,0.0,0.0,0.0,0.0,0.0,0.0,0.0,0.0,0.0,0.0,0.0,0.0,0.0,0.0,0.0,0.0,0.0,0.0,0.0,0.0,0.0,0.0,0.0,0.0,0.0,0.0,0.0,0.0,0.0,0.0,0.0,0.0,0.0,0.0,0.0,0.0,0.0,0.0,0.0,0.0,0.0,0.0,0.0,4.4788,4.6207,4.6784,4.6427,4.6199,4.5959,4.5754,4.5241,4.4664,4.4095,0.0,0.0,0.0,0.0,0.0,0.0,0.0,0.0,0.0,0.0,0.0,0.0,0.0,0.0,0.0,0.0,0.0,0.0,0.0,0.0,0.0,0.0,0.0,0.0,0.0,0.0,0.0,0.0,0.0,0.0,0.0,0.0,0.0,0.0,0.0,0.0,0.0,0.0,0.0,4.2404,4.3495,0.0,0.0,0.0,0.0,0.0,0.0,0.0,0.0,4.3539,0.0,0.0,0.0,0.0,0.0,0.0,0.0,0.0,0.0,0.0,0.0,0.0,0.0,0.0,0.0,0.0,0.0,0.0,0.0,0.0,0.0,0.0,0.0,0.0,0.0,0.0,0.0,0.0,0.0,0.0,0.0,0.0,0.0,0.0,0.0,0.0,0.0,0.0,0.0,0.0,0.0,0.0,0.0,0.0,0.0,0.0,0.0,0.0,0.0,0.0,0.0,0.0,0.0,0.0,0.0,4.4505,4.5314,4.572,4.5642,4.5312,4.5092,4.4852,4.4316,4.3723,0.0,0.0,0.0,0.0,0.0,0.0,0.0,0.0,0.0,0.0,0.0,0.0,0.0,0.0,0.0,0.0,0.0,0.0,0.0,0.0,0.0,0.0,0.0,0.0,0.0,0.0,0.0,0.0,0.0,0.0,0.0,0.0,0.0,0.0,0.0,0.0,0.0,0.0,0.0,0.0,4.3252,4.4066,4.4764,0.0,0.0,0.0,0.0,0.0,0.0,4.3558,4.3371,0.0,0.0,0.0,0.0,0.0,0.0,0.0,0.0,0.0,0.0,0.0,0.0,0.0,0.0,0.0,0.0,0.0,0.0,0.0,0.0,0.0,0.0,0.0,0.0,0.0,0.0,0.0,0.0,0.0,0.0,0.0,0.0,0.0,0.0,0.0,0.0,0.0,0.0,0.0,0.0,0.0,0.0,0.0,0.0,0.0,0.0,0.0,0.0,0.0,0.0,0.0,0.0,0.0,0.0,0.0,4.4094,4.4593,4.493,4.5058,4.4723,4.4429,4.4237,4.3662,4.3057,0.0,0.0,0.0,0.0,0.0,0.0,0.0,0.0,0.0,0.0,0.0,0.0,0.0,0.0,0.0,0.0,0.0,0.0,0.0,0.0,0.0,0.0,0.0,0.0,0.0,0.0,0.0,0.0,0.0,0.0,0.0,0.0,0.0,0.0,0.0,0.0,0.0,0.0,0.0,0.0,0.0,4.4574,4.5293,4.5334,0.0,0.0,0.0,0.0,4.4172,4.364,0.0,0.0,0.0,0.0,0.0,0.0,0.0,0.0,0.0,0.0,0.0,0.0,0.0,0.0,0.0,0.0,0.0,0.0,0.0,0.0,0.0,0.0,0.0,0.0,0.0,0.0,0.0,0.0,0.0,0.0,0.0,0.0,0.0,0.0,0.0,0.0,0.0,0.0,0.0,0.0,0.0,0.0,0.0,0.0,0.0,0.0,0.0,0.0,0.0,0.0,0.0,0.0,0.0,0.0,0.0,0.0,4.383,4.4858,4.5162,4.4695,4.4448,4.4218,4.4025,4.2978,4.2459,0.0,0.0,0.0,0.0,0.0,0.0,0.0,0.0,0.0,0.0,0.0,0.0,0.0,0.0,0.0,0.0,0.0,0.0,0.0,0.0,0.0,0.0,0.0,0.0,0.0,0.0,0.0,0.0,0.0,0.0,0.0,0.0,0.0,0.0,0.0,0.0,0.0,0.0,0.0,0.0,0.0,4.4918,4.5646,4.549,4.5379,0.0,0.0,4.4366,4.4097,4.39,0.0,0.0,0.0,0.0,0.0,0.0,0.0,0.0,0.0,0.0,0.0,0.0,0.0,0.0,0.0,0.0,0.0,0.0,0.0,0.0,0.0,0.0,0.0,0.0,0.0,0.0,0.0,0.0,0.0,0.0,0.0,0.0,0.0,0.0,0.0,0.0,0.0,0.0,0.0,0.0,0.0,0.0,0.0,0.0,0.0,0.0,0.0,0.0,0.0,0.0,0.0,0.0,0.0,0.0,0.0,4.3415,4.3379,4.403,4.4296,4.4102,4.4007,4.3689,4.3133,4.2359,4.1802,0.0,0.0,0.0,0.0,0.0,0.0,0.0,0.0,0.0,0.0,0.0,0.0,0.0,0.0,0.0,0.0,0.0,0.0,0.0,0.0,0.0,0.0,0.0,0.0,0.0,0.0,0.0,0.0,0.0,0.0,0.0,0.0,0.0,0.0,0.0,0.0,0.0,0.0,0.0,0.0,0.0,0.0,4.5934,4.5955,0.0,0.0,0.0,4.4783,4.4209,0.0,0.0,0.0,0.0,0.0,0.0,0.0,0.0,0.0,0.0,0.0,0.0,0.0,0.0,0.0,0.0,0.0,0.0,0.0,0.0,0.0,0.0,0.0,0.0,0.0,0.0,0.0,0.0,0.0,0.0,0.0,0.0,0.0,0.0,0.0,0.0,0.0,0.0,0.0,0.0,0.0,0.0,0.0,0.0,0.0,0.0,0.0,0.0,0.0,0.0,0.0,0.0,0.0,0.0,0.0,0.0,0.0,4.2949,4.3457,4.371,4.3704,4.3626,4.3207,4.241,4.1943,0.0,0.0,0.0,0.0,0.0,0.0,0.0,0.0,0.0,0.0,0.0,0.0,0.0,0.0,0.0,0.0,0.0,0.0,0.0,0.0,0.0,0.0,0.0,0.0,0.0,0.0,0.0,3.6525,0.0,0.0,0.0,0.0,0.0,0.0,0.0,0.0,0.0,0.0,0.0,0.0,0.0,0.0,4.4957,4.6014,4.6084,4.6048,0.0,0.0,4.508,4.4307,4.3857,4.3427,0.0,0.0,0.0,0.0,0.0,0.0,0.0,0.0,0.0,0.0,0.0,0.0,0.0,0.0,0.0,0.0,0.0,0.0,0.0,0.0,0.0,0.0,0.0,0.0,0.0,0.0,0.0,0.0,0.0,0.0,0.0,0.0,0.0,0.0,0.0,0.0,0.0,0.0,0.0,0.0,0.0,0.0,0.0,0.0,0.0,0.0,0.0,0.0,0.0,0.0,0.0,0.0,0.0,0.0,0.0,4.2611,4.3655,4.4062,4.3735,4.3468,4.304,4.241,4.1943,4.1375,0.0,0.0,0.0,0.0,0.0,0.0,0.0,0.0,0.0,0.0,0.0,0.0,0.0,0.0,0.0,0.0,0.0,0.0,0.0,0.0,0.0,0.0,0.0,0.0,0.0,0.0,0.0,0.0,0.0,0.0,0.0,0.0,0.0,0.0,0.0,0.0,0.0,0.0,0.0,0.0,0.0,4.4974,4.5724,4.5499,4.5398,0.0,0.0,4.5191,4.4343,4.4172,4.3992,4.3508,0.0,0.0,0.0,0.0,0.0,0.0,0.0,0.0,0.0,0.0,0.0,0.0,0.0,0.0,0.0,0.0,0.0,0.0,0.0,0.0,0.0,0.0,0.0,0.0,0.0,0.0,0.0,0.0,0.0,0.0,0.0,0.0,0.0,0.0,0.0,0.0,0.0,0.0,0.0,0.0,0.0,0.0,0.0,0.0,0.0,0.0,0.0,0.0,0.0,0.0,0.0,0.0,0.0,4.2837,4.2757,4.3531,4.3783,4.3448,4.3349,4.2811,4.1802,4.1589,4.0997,0.0,0.0,0.0,0.0,0.0,0.0,0.0,0.0,0.0,0.0,0.0,0.0,0.0,0.0,0.0,0.0,0.0,0.0,0.0,0.0,0.0,0.0,0.0,0.0,0.0,0.0,0.0,0.0,4.0529,4.1252,4.2405,0.0,0.0,0.0,0.0,0.0,0.0,0.0,0.0,0.0,0.0,4.4728,4.5341,4.5306,0.0,0.0,4.5769,4.5601,4.4805,4.4784,4.4654,4.4017,4.4145,0.0,0.0,0.0,0.0,0.0,0.0,0.0,0.0,0.0,0.0,0.0,0.0,0.0,0.0,0.0,0.0,0.0,0.0,0.0,0.0,0.0,0.0,0.0,0.0,0.0,0.0,0.0,0.0,0.0,0.0,0.0,0.0,0.0,0.0,0.0,0.0,0.0,0.0,0.0,0.0,0.0,0.0,0.0,0.0,0.0,0.0,0.0,0.0,0.0,0.0,0.0,0.0,4.2502,4.2802,4.3381,4.3567,4.33,4.329,4.2711,4.1463,4.1413,4.0756,0.0,0.0,0.0,0.0,0.0,0.0,0.0,0.0,0.0,0.0,0.0,0.0,0.0,0.0,0.0,0.0,0.0,0.0,0.0,0.0,0.0,0.0,0.0,0.0,0.0,0.0,0.0,0.0,4.1806,4.2523,4.2965,0.0,0.0,0.0,0.0,0.0,0.0,0.0,0.0,0.0,0.0,4.4606,4.4974,4.4989,4.5033,4.5352,4.5628,4.5633,4.4989,4.5078,4.5031,4.4503,0.0,0.0,0.0,0.0,0.0,0.0,0.0,0.0,0.0,0.0,0.0,0.0,0.0,0.0,0.0,0.0,0.0,0.0,0.0,0.0,0.0,0.0,0.0,0.0,0.0,0.0,0.0,3.9622,0.0,0.0,3.9223,0.0,0.0,0.0,0.0,0.0,0.0,0.0,0.0,0.0,0.0,0.0,0.0,0.0,0.0,0.0,0.0,0.0,0.0,0.0,0.0,0.0,0.0,4.2215,4.2631,4.3324,4.3567,4.3309,4.329,4.2721,4.1493,4.1413,4.0765,3.9451,0.0,0.0,0.0,0.0,0.0,0.0,0.0,0.0,0.0,0.0,0.0,0.0,0.0,0.0,0.0,0.0,0.0,0.0,0.0,0.0,0.0,0.0,0.0,0.0,0.0,0.0,4.1077,4.2342,4.3165,0.0,0.0,0.0,0.0,0.0,0.0,0.0,0.0,0.0,0.0,4.4533,4.4579,4.461,4.4469,4.4595,4.5142,4.5244,4.5124,4.4822,4.4939,4.5008,0.0,0.0,0.0,0.0,0.0,0.0,0.0,0.0,0.0,0.0,0.0,0.0,0.0,0.0,0.0,0.0,0.0,0.0,0.0,0.0,0.0,0.0,0.0,0.0,0.0,0.0,0.0,4.1441,4.1447,0.0,0.0,0.0,0.0,0.0,0.0,0.0,0.0,0.0,0.0,0.0,4.5088,4.5182,0.0,0.0,0.0,0.0,0.0,0.0,0.0,0.0,0.0,0.0,0.0,0.0,4.2621,4.3049,4.3319,4.3409,4.33,4.329,4.2891,4.2101,4.1622,4.0765,3.946,0.0,0.0,0.0,0.0,0.0,0.0,0.0,0.0,0.0,0.0,0.0,0.0,0.0,0.0,0.0,0.0,0.0,0.0,0.0,0.0,0.0,0.0,0.0,0.0,0.0,4.1413,0.0,0.0,0.0,0.0,0.0,0.0,0.0,0.0,0.0,0.0,0.0,4.5662,4.5231,4.498,4.4697,4.4464,4.4731,4.5172,0.0,0.0,0.0,0.0,0.0,0.0,0.0,0.0,0.0,0.0,0.0,0.0,0.0,0.0,4.6275,4.6836,4.6637,4.6359,4.6294,0.0,0.0,0.0,0.0,0.0,0.0,0.0,0.0,0.0,0.0,0.0,0.0,0.0,0.0,4.3349,0.0,4.2837,0.0,0.0,0.0,0.0,0.0,0.0,0.0,0.0,4.5504,4.6006,4.5934,4.6018,4.5894,0.0,4.5413,4.4534,0.0,0.0,0.0,0.0,0.0,0.0,0.0,0.0,4.2671,4.317,4.313,4.309,4.309,4.309,4.2832,4.2275,4.1475,4.0556,3.943,3.899,3.876,0.0,0.0,0.0,0.0,0.0,0.0,0.0,0.0,0.0,0.0,0.0,0.0,0.0,0.0,0.0,0.0,0.0,0.0,0.0,0.0,0.0,0.0,0.0,4.1958,0.0,0.0,0.0,0.0,0.0,0.0,0.0,0.0,0.0,4.616,4.6322,4.6286,4.5779,4.518,4.4708,4.443,0.0,0.0,0.0,0.0,0.0,0.0,0.0,4.7288,4.7162,4.7145,4.7205,4.7351,4.7241,4.7089,4.7038,0.0,0.0,4.7304,4.723,4.7113,4.7055,4.6323,4.5542,4.4974,4.4235,4.3549,0.0,0.0,0.0,0.0,0.0,0.0,0.0,0.0,4.5021,4.5107,0.0,4.4586,0.0,0.0,0.0,0.0,0.0,4.4278,0.0,0.0,4.5991,4.6203,4.6059,4.6572,4.6441,4.5633,4.5622,4.5269,4.4604,4.3774,0.0,0.0,0.0,0.0,0.0,0.0,4.2337,4.2971,4.279,4.2698,4.2698,4.2698,4.2474,4.1991,4.1002,4.0148,3.9481,3.9382,3.9391,3.9382,3.8781,0.0,0.0,0.0,0.0,0.0,0.0,0.0,0.0,0.0,0.0,0.0,0.0,0.0,0.0,0.0,0.0,0.0,0.0,0.0,0.0,4.159,0.0,0.0,0.0,0.0,0.0,0.0,0.0,0.0,0.0,0.0,4.6884,4.6744,4.6434,4.5991,0.0,0.0,0.0,0.0,4.5168,4.5591,4.6203,4.6765,4.6945,4.6765,4.6585,4.6575,0.0,0.0,4.8149,4.825,4.8125,4.8017,4.7914,4.7655,4.6721,4.6637,4.6577,4.6376,4.5846,4.5288,4.5028,4.4422,4.3917,4.5475,0.0,0.0,0.0,0.0,4.5395,4.5779,4.6337,4.5881,4.58,4.5971,4.5304,0.0,0.0,0.0,0.0,0.0,0.0,4.5801,4.5839,4.6442,4.6631,4.6432,4.6403,4.6252,4.6039,4.5883,4.5718,4.5496,4.4958,4.4169,4.3221,0.0,0.0,0.0,0.0,4.2612,4.276,4.2729,4.2688,4.2688,4.2688,4.2464,4.2001,4.1429,4.0816,4.0127,3.966,3.9412,3.9391,3.9221,0.0,0.0,0.0,0.0,0.0,0.0,0.0,0.0,0.0,0.0,0.0,0.0,0.0,0.0,0.0,0.0,0.0,0.0,0.0,4.1556,4.1942,4.2339,0.0,0.0,0.0,0.0,0.0,0.0,0.0,0.0,0.0,4.7348,4.7045,4.6721,0.0,0.0,4.4969,4.463,4.5112,4.5637,4.6018,4.7089,0.0,4.7886,4.7834,4.7741,4.7596,4.7581,4.7604,4.7583,4.757,4.7549,4.7525,4.7514,4.7407,4.7171,4.7346,4.7503,4.7431,4.6467,4.5597,4.5465,4.4479,4.3497,4.6835,4.5664,4.5357,4.543,4.5716,4.5793,4.6149,4.6605,4.6222,4.6204,4.6402,4.5985,4.5711,4.5568,4.5382,0.0,0.0,0.0,4.6194,4.6245,4.6611,4.6668,4.6447,4.6291,4.6169,4.6079,4.5945,4.5917,4.5888,4.532,4.4792,4.4182,0.0,0.0,4.3111,4.2754,4.2596,4.2586,4.2504,4.2474,4.2463,4.2637,4.2464,4.2011,4.1608,4.1094,4.0427,3.975,3.9412,3.9412,3.9412,3.9412,0.0,0.0,0.0,0.0,0.0,0.0,0.0,0.0,0.0,0.0,0.0,3.9469,4.0157,0.0,0.0,0.0,4.1491,4.2149,4.2189,4.2843,0.0,0.0,0.0,0.0,0.0,0.0,0.0,4.717,4.7187,4.7202,4.7465,4.7249,4.701,4.6904,4.6186,4.5495,4.4969,0.0,4.5697,4.5677,4.6569,4.736,4.7582,4.757,4.7555,4.77,4.7611,4.746,4.7342,4.7298,4.7298,4.7298,4.7298,4.7298,4.7298,4.7527,4.7619,4.7336,4.6367,4.5501,4.5221,4.4148,4.329,4.8391,4.78,4.6773,4.6185,4.5987,4.6102,4.6191,4.6213,4.6213,4.6358,4.6609,4.662,4.6405,4.6019,4.5596,0.0,4.6027,4.6048,4.6234,4.6546,4.6546,4.6425,4.6191,4.6191,4.6079,4.5917,4.5917,4.5917,4.5877,4.5308,4.4977,4.4959,4.4193,4.3775,4.3677,4.2943,4.2518,4.243,4.2253,4.2171,4.2133,4.2514,4.2494,4.21,4.1707,4.1164,4.0477,3.9879,3.9502,3.9421,3.9451,3.9451,3.9412,0.0,0.0,0.0,0.0,0.0,0.0,0.0,0.0,0.0,0.0,0.0,0.0,0.0,0.0,0.0,4.2236,0.0,4.2803,4.4075,0.0,0.0,0.0,4.6192,4.689,4.6793,4.6897,4.751,0.0,0.0,4.7298,4.7298,4.7298,4.7298,4.6719,4.6072,4.5484,4.558,4.5514,4.5031,4.5423,4.6056,4.6719,4.6641,4.6753,4.7233,4.7298,4.7309,4.7298,4.7298,4.7298,4.7298,4.7298,4.7298,4.7298,4.7331,4.71,4.6471,4.5793,4.5115,4.4506,4.3788,4.329,4.8629,4.8449,4.7707,4.7114,4.6551,4.6155,4.6057,4.6213,4.6213,4.6358,4.662,4.662,4.6554,4.6461,4.6338,4.6338,4.6461,4.6461,4.6399,4.6314,4.6302,4.618,4.5996,4.5985,4.5933,4.5917,4.5917,4.5917,4.5877,4.5732,4.5645,4.5627,4.4971,4.4374,4.3947,4.3708,4.3367,4.2883,4.282,4.264,4.2349,4.2576,4.2711,4.2743,4.2374,4.1832,4.1184,4.0995,4.0427,3.9481,3.9888,3.9939,3.9412,3.9879,0.0,0.0,0.0,0.0,0.0,0.0,0.0,0.0,0.0,4.1214,4.1394,0.0,4.2671,0.0,4.3219,4.4098,4.4627,4.4968,0.0,0.0,4.5799,4.6269,4.6449,4.6856,4.7194,4.7344,4.7342,4.7298,4.7298,4.7298,4.7298,4.7279,4.673,4.6251,4.6091,4.6103,4.6096,4.5976,4.6406,4.6965,4.7055,4.7102,4.71,4.7268,4.7298,4.7298,4.7298,4.7298,4.7298,4.7298,4.7298,4.7298,4.7298,4.7298,4.7059,4.642,4.5773,4.5095,4.4456,4.3788,4.329,4.9146,4.9088,4.8478,4.7973,4.7613,4.701,4.6643,4.6483,4.6483,4.6387,4.6269,4.641,4.6425,4.6425,4.6535,4.6524,4.6425,4.6425,4.6291,4.6068,4.6068,4.599,4.5917,4.5917,4.5917,4.5917,4.5917,4.5917,4.5917,4.5917,4.5917,4.5888,4.5529,4.518,4.4843,4.4309,4.3681,4.3003,4.2741,4.2557,4.2535,4.2638,4.284,4.3101,4.2662,4.2221,4.1871,4.1553,4.1055,4.0367,4.0636,4.0675,4.0307,4.0645,4.0846,0.0,0.0,0.0,0.0,0.0,0.0,0.0,0.0,0.0,0.0,0.0,4.4047,4.3708,4.4606,4.5354,4.5723,4.5917,4.6024,4.6013,4.636,4.6558,4.6558,4.6994,4.7298,4.7298,4.7298,4.7298,4.7298,4.7298,4.7298,4.7298,4.6999,4.6629,4.636,4.629,4.6211,4.5922,4.6161,4.652,4.6779,4.7119,4.7298,4.7298,4.7298,4.7298,4.7298,4.7298,4.7298,4.7298,4.7298,4.7298,4.7298,4.7298,4.7089,4.642,4.5762,4.5084,4.4416,4.3798,4.329,4.9722,4.9635,4.9076,4.8832,4.8786,4.8258,4.7608,4.6917,4.6917,4.658,4.6034,4.6108,4.6169,4.6191,4.6391,4.638,4.6169,4.6169,4.6057,4.5917,4.5917,4.5917,4.5917,4.5917,4.5917,4.5917,4.5917,4.5917,4.5917,4.5917,4.5917,4.5917,4.5917,4.5917,4.5859,4.4803,4.3903,4.3253,4.2644,4.2542,4.2924,4.2964,4.3097,4.3399,4.292,4.256,4.241,4.1922,4.1543,4.1424,4.1543,4.1613,4.1532,4.1703,4.1753,0.0,4.1852,0.0,0.0,0.0,0.0,0.0,0.0,0.0,0.0,4.5025,4.5454,4.5544,4.604,4.6367,4.6367,4.668,4.6866,4.6876,4.6866,4.6876,4.6876,4.7092,4.7233,4.7225,4.7266,4.7266,4.7298,4.7298,4.7298,4.7298,4.7279,4.7059,4.658,4.648,4.6281,4.5633,4.5574,4.6072,4.6491,4.6969,4.7298,4.7298,4.7298,4.7298,4.7298,4.7298,4.7298,4.7298,4.7298,4.7298,4.7298,4.7298,4.713,4.658,4.5862,4.5095,4.4426,4.3758,4.3329,4.9722,4.9693,4.9565,4.9519,4.9507,4.9403,4.8677,4.7619,4.7619,4.723,4.6609,4.6143,4.5974,4.5945,4.6019,4.599,4.5945,4.5974,4.594,4.5917,4.5917,4.5917,4.5917,4.5917,4.5917,4.5917,4.5917,4.5917,4.5917,4.5917,4.5917,4.5917,4.5917,4.5917,4.5877,0.0,0.0,0.0,4.3932,4.3855,4.4219,4.424,4.4183,4.4107,4.4007,0.0,4.247,4.2771,4.2452,4.1523,4.2392,0.0,0.0,0.0,0.0,0.0,0.0,0.0,0.0,0.0,0.0,0.0,4.5563,4.5553,4.5185,4.5723,4.633,4.685,4.6827,4.6797,4.6797,4.6719,4.6675,4.6646,4.6646,4.6635,4.6657,4.6719,4.6778,4.6964,4.6986,4.7051,4.7236,4.7298,4.7298,4.7298,4.7298,4.7249,4.713,4.7059,4.7059,4.695,4.683,4.692,4.7089,4.7219,4.7298,4.7298,4.7298,4.7298,4.7298,4.7298,4.7298,4.7298,4.7298,4.7298,4.7298,4.7298,4.7238,4.7119,4.6142,4.5095,4.4426,4.3778,4.329,5.0187,0.0,4.9838,4.9722,0.0,4.9722,4.9345,4.8694,4.8391,4.7898,4.7288,4.6969,4.6835,4.6806,4.6505,4.6359,4.633,4.604,4.5917,4.5917,4.5917,4.5917,4.5917,4.5917,4.5917,4.5917,4.5917,4.5917,4.5917,4.5917,4.5917,4.5917,4.5917,4.5917,4.5917,4.5917,4.5558,4.489,4.4407,4.4294,4.4583,4.471,4.4801,4.4795,4.4796,0.0,0.0,0.0,0.0,0.0,0.0,0.0,0.0,0.0,0.0,4.4785,4.5114,4.5464,4.5773,4.5773,4.5922,4.6292,4.6802,4.6881,4.6322,4.6473,4.6726,4.7065,4.6887,4.6745,4.6734,4.6535,4.6391,4.6403,4.6403,4.6391,4.6414,4.6513,4.6653,4.6734,4.6844,4.6964,4.7084,4.7233,4.7298,4.7298,4.7298,4.7298,4.7298,4.7298,4.7298,4.7298,4.7298,4.7309,4.7298,4.7298,4.7298,4.7298,4.7298,4.7298,4.7298,4.7298,4.7298,4.7298,4.7298,4.7298,4.7298,4.7298,4.7298,4.7209,4.6491,4.5743,4.5294,4.4267,4.33,5.0842,5.0784,5.0158,4.9867,4.9867,4.9751,4.9722,4.9664,0.0,0.0,0.0,4.7852,4.7794,4.7764,4.7219,4.6975,4.6946,4.6487,4.6226,4.6226,4.6226,4.6167,4.6069,4.604,4.5993,4.5906,4.5917,4.5917,4.5917,4.5917,4.5917,4.5917,4.5917,4.5917,4.5917,4.5917,4.5616,4.5075,4.4756,4.4709,4.4937,4.5179,4.5342,4.5484,4.5484,4.5424,4.5315,4.5274,4.5274,4.5315,4.5434,4.5484,4.5484,4.5603,4.5674,4.5663,4.5674,4.5963,4.66,4.6617,4.6842,4.7477,4.7807,4.7815,4.7377,4.7231,4.7129,4.7022,4.6823,4.6661,4.6543,4.6291,4.6146,4.6169,4.6158,4.6146,4.6169,4.6325,4.6487,4.6524,4.6657,4.6833,4.6909,4.7084,4.7266,4.7298,4.7298,4.7298,4.7298,4.7298,4.7298,4.7298,4.7298,4.7298,4.7298,4.7298,4.7298,4.7298,4.7298,4.7298,4.7298,4.7298,4.7298,4.7298,4.7298,4.7298,4.7298,4.7298,4.7298,4.7298,4.676,4.629,4.614,4.4884,4.3728,5.1485,5.1427,5.0813,5.0564,5.0535,4.9954,4.9722,4.9664,4.8989,4.867,4.8554,4.8026,4.7794,4.7794,4.7706,4.7677,4.7648,4.7573,4.7544,4.7544,4.7544,4.723,4.6685,4.6685,4.6406,4.5935,4.5917,4.5917,4.5917,4.5917,4.5917,4.5906,4.5917,4.5917,4.5917,4.5917,4.5848,4.5761,4.5707,4.5883,4.6303,4.6358,4.6299,4.616,4.6161,4.5892,4.5334,4.5315,4.5274,4.5304,4.5832,4.6151,4.6181,4.67,4.704,4.701,4.701,4.7309,4.7967,4.781,4.7867,4.8274,4.8365,4.8158,4.7579,4.797,4.8047,4.7494,4.7232,4.6873,4.6335,4.6097,4.5992,4.5962,4.5962,4.5962,4.5945,4.6007,4.6108,4.6236,4.628,4.6462,4.6811,4.6931,4.7051,4.7244,4.7287,4.7298,4.7298,4.7298,4.7298,4.7298,4.7298,4.7298,4.7298,4.7298,4.7298,4.7298,4.7298,4.7298,4.7298,4.7298,4.7298,4.7298,4.7298,4.7298,4.7298,4.7298,4.7298,4.7279,4.6779,4.638,4.635,4.5583,4.4815,5.2149,5.2062,5.1439,5.1191,5.1149,5.0494,5.0,4.9693,4.9361,4.9245,4.9204,4.8955,4.8822,4.8793,4.8449,4.8263,4.8263,4.7939,4.7794,4.7794,4.7794,4.7648,4.7375,4.7346,4.7172,4.6934,4.6934,4.6922,4.6922,4.6922,4.6748,4.6377,4.608,4.5917,4.5917,4.5917,4.5917,4.5917,4.6001,4.6169,4.638,4.6646,4.6717,4.6615,4.6774,4.67,4.6411,4.6381,4.6381,4.6381,4.667,4.6839,4.685,4.7108,4.7459,4.7788,4.7697,4.7918,4.8574,4.8378,4.8247,4.83,4.8617,4.8647,4.8202,4.8213,4.8159,4.7843,4.7636,4.7392,4.7083,4.6649,4.6366,4.6377,4.6109,4.5917,4.5917,4.5917,4.5951,4.6023,4.6146,4.6302,4.6502,4.6756,4.6942,4.7073,4.7171,4.7298,4.7298,4.7298,4.7298,4.7298,4.7298,4.7298,4.7298,4.7298,4.7298,4.7298,4.7298,4.7298,4.7298,4.7298,4.7298,4.7298,4.7298,4.7298,4.7298,4.7298,4.7298,4.7268,4.7089,4.685,4.6749,4.6311,4.5533,5.2801,5.2772,5.2107,5.1746,5.1559,5.1104,5.0535,4.9954,4.9925,4.9838,4.9722,4.9722,4.9722,4.9664,4.9146,4.8931,4.8844,4.8432,4.8241,4.8229,4.8241,4.8142,4.8014,4.7985,4.7939,4.7794,4.7794,4.7794,4.7794,4.7794,4.7532,4.7015,4.6563,4.6342,4.6353,4.6313,4.6313,4.6324,4.6483,4.642,4.6225,4.658,4.6767,4.6855,4.7073,4.7222,4.7222,4.7277,4.7298,4.7298,4.7459,4.7486,4.7442,4.7581,4.7857,4.828,4.8142,4.8292,4.8857,4.8891,4.874,4.8495,4.8938,4.9135,4.8938,4.8645,4.8372,4.8232,4.8103,4.7939,4.7747,4.7346,4.7004,4.6975,4.6609,4.6411,4.6342,4.6342,4.6243,4.6179,4.6256,4.631,4.6287,4.6524,4.6778,4.692,4.7127,4.7298,4.7298,4.7298,4.7298,4.7298,4.7298,4.7298,4.7298,4.7298,4.7298,4.7298,4.7298,4.7298,4.7298,4.7298,4.7298,4.7298,4.7298,4.7298,4.7298,4.7298,4.7298,4.7298,4.7238,4.7268,4.7209,4.6689,4.5942,5.3429,5.3313,5.2759,5.2149,5.1646,5.1543,5.1178,5.0651,5.0593,5.0245,4.9809,4.9722,4.9722,4.9693,4.9606,4.9565,4.9565,4.9548,4.949,4.949,4.9519,4.9216,4.8658,4.8641,4.8321,4.7892,4.7863,4.791,4.791,4.7863,4.7764,4.7718,4.766,4.7573,4.759,4.7602,4.7602,4.7619,4.7643,4.7177,4.6261,4.6229,4.638,4.6613,4.6833,4.6912,4.6983,4.716,4.7298,4.7369,4.7897,4.8078,4.7919,4.8409,4.8664,4.8529,4.8471,4.8621,4.9075,4.9625,4.9792,4.9592,4.9567,4.9601,4.9565,4.9572,4.9269,4.8822,4.8624,4.842,4.7881,4.7747,4.7706,4.7706,4.7561,4.7631,4.7532,4.7631,4.7387,4.6772,4.676,4.6625,4.6391,4.6397,4.651,4.6955,4.7125,4.7277,4.7298,4.7298,4.7298,4.7298,4.7298,4.7298,4.7298,4.7298,4.7298,4.7298,4.7298,4.7298,4.7298,4.7298,4.7298,4.7298,4.7298,4.7298,4.7298,4.7298,4.7298,4.7298,4.7298,4.7298,4.7238,4.682,4.6102,5.4097,5.4052,5.3413,5.2788,5.2236,5.2178,5.1817,5.1265,5.1249,5.1062,5.0859,5.083,5.0407,4.9722,4.9722,4.9722,4.9722,4.9722,4.9722,4.9722,4.9722,4.9548,4.9332,4.9291,4.9158,4.8926,4.8909,4.8909,4.888,4.8508,4.8321,4.8292,4.8009,4.7794,4.7794,4.7794,4.7794,4.7794,4.7794,4.7579,4.7188,4.6906,4.6679,4.6428,4.6602,4.6919,4.7222,4.7381,4.7614,4.7981,4.8278,4.8363,4.8249,4.8515,4.8794,4.9056,4.9328,4.942,4.9472,4.9723,4.9803,4.9722,4.9722,4.9722,4.9722,4.9722,4.9577,4.9361,4.9291,4.9187,4.8897,4.8566,4.8321,4.8263,4.8014,4.7794,4.7794,4.7794,4.7648,4.7433,4.7393,4.7352,4.7148,4.6941,4.7019,4.7303,4.7316,4.7195,4.7266,4.7298,4.7298,4.7298,4.7298,4.7298,4.7298,4.7298,4.7298,4.7298,4.7298,4.7298,4.7298,4.7298,4.7298,4.7298,4.7298,4.7298,4.7298,4.7298,4.7298,4.7298,4.7298,4.7298,4.7298,4.7089,4.676,5.4764,5.4648,5.4039,5.3413,5.2846,5.2859,5.2468,5.192,5.1875,5.1788,5.1617,5.1617,5.112,5.0291,5.0042,4.9867,4.9722,4.9722,4.9722,4.9722,4.9722,4.9722,4.9722,4.9722,4.9722,4.9722,4.9693,4.9693,4.9664,4.9233,4.896,4.8914,4.8548,4.8316,4.834,4.8328,4.8316,4.8316,4.8316,4.8241,4.8049,4.7771,4.7309,4.6719,4.6875,4.7222,4.7623,4.7727,4.799,4.8473,4.8661,4.8744,4.8663,4.8851,4.9134,4.9504,4.9835,4.9917,4.9734,4.9722,4.9722,4.9722,4.9722,4.9722,4.9722,4.9722,4.9722,4.9693,4.9722,4.9693,4.9623,4.9262,4.8989,4.8931,4.8548,4.8316,4.8345,4.8328,4.8287,4.8084,4.8043,4.7979,4.78,4.7596,4.7579,4.7815,4.7692,4.738,4.7477,4.7524,4.7549,4.735,4.7298,4.7298,4.7298,4.7298,4.7298,4.7298,4.7298,4.7298,4.7298,4.7298,4.7298,4.7298,4.7298,4.7298,4.7298,4.7298,4.7298,4.7298,4.7298,4.7298,4.7298,4.7279,4.7279,5.5345,5.5258,5.4706,5.4068,5.3445,5.3458,5.3123,5.2539,5.2539,5.2236,5.1746,5.1675,5.1601,5.1456,5.0929,5.0332,4.9809,4.9809,4.9838,4.9809,4.9809,4.9751,4.9722,4.9722,4.9722,4.9809,4.9809,4.9751,4.9681,4.9664,4.9664,4.9635,4.9548,4.9577,4.9519,4.949,4.9606,4.949,4.949,4.9274,4.8757,4.8653,4.8328,4.7823,4.7893,4.798,4.8108,4.8317,4.8491,4.852,4.9092,4.9351,4.9145,4.9659,4.9868,4.972,4.973,4.9717,4.9705,4.9722,4.9722,4.9722,4.9722,4.9722,4.9722,4.9722,4.9722,4.9722,4.9722,4.9722,4.9722,4.9594,4.9577,4.9606,4.9606,4.9507,4.9548,4.9432,4.9274,4.8815,4.867,4.8508,4.7968,4.7963,4.805,4.8195,4.8465,4.8513,4.8056,4.8115,4.7964,4.7578,4.7369,4.7298,4.7298,4.7298,4.7298,4.7298,4.7298,4.7298,4.7298,4.7298,4.7298,4.7298,4.7298,4.7298,4.7298,4.7298,4.7298,4.7298,4.7298,4.7298,4.7298,4.7298,4.7298,5.578,5.5374,5.5171,5.4706,5.4155,5.4155,5.3778,5.3168,5.3194,5.3036,5.2849,5.2791,5.2601,5.2249,5.2017,5.1552,5.0946,5.0917,5.0917,5.0917,5.0917,5.0917,5.0904,5.0904,5.0697,5.039,5.0332,5.01,4.9722,4.9722,4.9722,4.9722,4.9722,4.9722,4.9722,4.9722,4.9722,4.9722,4.9722,4.9565,4.9361,4.9361,4.9216,4.8996,4.8283,4.8097,4.8469,4.8593,4.8827,4.9248,4.9493,4.9591,4.9536,4.971,4.982,4.9705,4.9722,4.9722,4.9722,4.9722,4.9722,4.9722,4.9722,4.9722,4.9722,4.9722,4.9722,4.9722,4.9722,4.9722,4.9722,4.9722,4.9722,4.9722,4.9722,4.9722,4.9722,4.9693,4.9577,4.9403,4.9332,4.9245,4.8979,4.8736,4.8569,4.8676,4.8559,4.8478,4.8575,4.8644,4.8507,4.8084,4.7938,4.7788,4.7298,4.7298,4.7298,4.7298,4.7298,4.7298,4.7298,4.7298,4.7298,4.7298,4.7298,4.7298,4.7298,4.7298,4.7298,4.7298,4.7298,4.7298,4.7298,4.7298,4.7298,5.6302,5.578,5.5736,5.5345,5.4793,5.4793,5.4416,5.3865,5.3807,5.372,5.3545,5.3487,5.3255,5.2933,5.2917,5.2659,5.2181,5.182,5.1588,5.1617,5.1617,5.1617,5.1617,5.1617,5.1398,5.1046,5.1017,5.0726,5.0378,5.032,5.0204,5.0042,5.0013,4.9909,4.9751,4.9722,4.9722,4.9722,4.9722,4.9693,4.9722,4.9722,4.9722,4.9577,4.8839,4.8566,4.9018,4.9018,4.9204,4.9635,4.9722,4.9722,4.9722,4.9722,4.9722,4.9722,4.9722,4.9722,4.9722,4.9722,4.9722,4.9722,4.9722,4.9722,4.9722,4.9722,4.9722,4.9722,4.9722,4.9722,4.9722,4.9722,4.9722,4.9722,4.9722,4.9722,4.9722,4.9722,4.9722,4.9693,4.9664,4.9693,4.9664,4.9303,4.9172,4.9299,4.8921,4.8905,4.8943,4.9127,4.9015,4.863,4.8592,4.8297,4.7908,4.7758,4.7519,4.7459,4.7298,4.7298,4.7298,4.7298,4.7298,4.7298,4.7298,4.7298,4.7298,4.7298,4.7298,4.7298,4.7298,4.7298,4.7298,4.7298,4.7298,5.6955,5.6419,5.639,5.6026,5.5461,5.5403,5.5055,5.4561,5.4503,5.4142,5.3691,5.3574,5.3545,5.3458,5.3413,5.3429,5.3139,5.2256,5.182,5.1791,5.1762,5.1775,5.1762,5.182,5.1733,5.1601,5.1572,5.1559,5.1456,5.1398,5.1166,5.0797,5.0697,5.0436,4.978,4.9884,4.9838,4.9867,4.9867,4.978,4.9722,4.9722,4.9722,4.9722,4.9606,4.9577,4.9693,4.9652,4.9635,4.9693,4.9722,4.9722,4.978,4.9867,4.9809,4.9867,4.9809,4.978,4.9809,4.9809,4.9809,4.9809,4.9751,4.9722,4.9722,4.9722,4.9722,4.9722,4.9722,4.9722,4.9722,4.9722,4.9722,4.9722,4.9722,4.9722,4.9722,4.9722,4.9722,4.9722,4.9722,4.9722,4.9722,4.9635,4.9601,4.9621,4.9725,4.9635,4.9345,4.9522,4.9524,4.9175,4.9062,4.8936,4.8592,4.8267,4.7908,4.7608,4.7399,4.7298,4.7298,4.7298,4.7298,4.7298,4.7298,4.7298,4.7298,4.7298,4.7298,4.7298,4.7298,4.7298,4.7298,4.7298,4.7298,5.7187,5.7042,5.7042,5.6665,5.6099,5.6113,5.5736,5.5142,5.5126,5.4764,5.4271,5.4184,5.3965,5.3574,5.3487,5.3516,5.3458,5.3052,5.2894,5.2878,5.2878,5.2878,5.2878,5.2878,5.2688,5.2265,5.1804,5.163,5.1646,5.1646,5.1485,5.134,5.1323,5.1207,5.0962,5.0991,5.1004,5.0975,5.0593,5.0402,5.0332,4.9925,4.9722,4.9722,4.9722,4.9884,5.0332,4.9954,4.9722,4.9751,4.9722,4.9896,5.032,5.0772,5.1004,5.1004,5.1004,5.0991,5.0946,5.061,5.039,5.0303,4.9983,4.9751,4.9722,4.9722,4.9722,4.9722,4.9722,4.9722,4.9722,4.9722,4.9722,4.9722,4.9722,4.9722,4.9722,4.9722,4.9722,4.9722,4.9722,4.9722,4.9722,4.9722,4.9722,4.9722,4.9778,4.9747,4.9811,4.9879,4.9976,4.9642,4.9674,4.9555,4.9179,4.8925,4.8716,4.8207,4.7818,4.7549,4.7489,4.7298,4.7298,4.7298,4.7298,4.7298,4.7298,4.7298,4.7298,4.7298,4.7298,4.7298,4.7298,4.7298,4.7298,5.7681,5.7652,5.7419,5.7086,5.6738,5.6738,5.6374,5.5823,5.578,5.5403,5.4938,5.4822,5.4619,5.4213,5.3981,5.3865,5.3836,5.3632,5.3487,5.3487,5.3487,5.3487,5.3487,5.3487,5.3326,5.2962,5.2501,5.2326,5.2297,5.2297,5.2181,5.202,5.1962,5.1817,5.1659,5.1617,5.1617,5.1543,5.1236,5.1046,5.0946,5.0639,5.0394,5.0423,5.0407,5.0598,5.0987,5.061,5.0407,5.0407,5.0407,5.0639,5.1046,5.1369,5.1617,5.1617,5.1588,5.1588,5.1559,5.1207,5.1046,5.0929,5.0448,5.01,5.0042,4.9909,4.9722,4.9722,4.9722,4.9722,4.9722,4.9722,4.9722,4.9722,4.9722,4.9722,4.9722,4.9722,4.9722,4.9722,4.9722,4.9722,4.9722,4.9722,4.9722,4.9722,4.9734,4.973,4.9929,5.0009,5.0004,5.0112,5.0211,5.0029,4.9717,4.9583,4.9535,4.8936,4.8327,4.8038,4.7859,4.7459,4.7298,4.7298,4.7298,4.7298,4.7298,4.7298,4.7298,4.7298,4.7298,4.7298,4.7298,4.7298,4.7298,5.8348,5.8218,5.7623,5.7318,5.7274,5.7245,5.6955,5.6506,5.6461,5.6084,5.5562,5.5461,5.5374,5.5229,5.4735,5.4519,5.4445,5.4039,5.3807,5.3778,5.3749,5.372,5.3545,5.3487,5.3458,5.34,5.3371,5.34,5.3284,5.3284,5.3197,5.2685,5.2614,5.2352,5.2007,5.1762,5.1849,5.1878,5.1746,5.1659,5.1659,5.1543,5.1514,5.1485,5.1443,5.1501,5.1643,5.1659,5.1659,5.1601,5.1514,5.1585,5.1672,5.1688,5.1849,5.1878,5.1733,5.182,5.1762,5.1759,5.1659,5.1601,5.1133,5.071,5.0564,5.0158,4.9838,4.9722,4.9722,4.9722,4.9722,4.9722,4.9722,4.9722,4.9722,4.9722,4.9722,4.9722,4.9722,4.9722,4.9722,4.9722,4.9722,4.9722,4.9722,4.9722,4.9722,4.9717,4.9754,4.9929,5.0159,5.0299,5.0407,5.0424,5.0135,5.0249,5.02,4.9912,4.9224,4.8745,4.8308,4.7859,4.7549,4.7519,4.7399,4.7369,4.7298,4.7298,4.7298,4.7298,4.7298,4.7298,4.7298,4.7298,4.7298,5.8755,5.829,5.8102,5.7768,5.7361,5.7303,5.7216,5.7071,5.7071,5.6694,5.6215,5.6128,5.5867,5.5403,5.5287,5.5184,5.5084,5.4938,5.488,5.4909,5.4909,5.43,5.3661,5.3487,5.3487,5.3487,5.3487,5.3487,5.3487,5.3487,5.34,5.3255,5.321,5.3168,5.3023,5.2936,5.2994,5.2936,5.2526,5.2323,5.2265,5.1862,5.1617,5.1617,5.1646,5.1875,5.2323,5.2762,5.2501,5.1704,5.212,5.2336,5.2394,5.2717,5.2878,5.2878,5.2936,5.2952,5.2878,5.2572,5.2365,5.2294,5.1742,5.1191,5.071,5.0535,5.0187,4.9867,4.9722,4.9722,4.9722,4.9722,4.9722,4.9722,4.9722,4.9722,4.9722,4.9722,4.9722,4.9722,4.9722,4.9722,4.9722,4.9722,4.9722,4.9722,4.9722,4.9722,4.9717,4.9742,4.9977,5.0171,5.034,5.0532,5.0668,5.0849,5.0865,5.0757,5.023,4.9583,4.9056,4.8468,4.8218,4.8068,4.7818,4.7728,4.7489,4.7328,4.7328,4.7399,4.7298,4.7298,4.7298,4.7298,4.7298,5.9451,5.9045,5.8523,5.8087,5.7681,5.7419,5.7303,5.7303,5.7303,5.7129,5.6839,5.6767,5.6578,5.6186,5.5939,5.5823,5.5794,5.5519,5.5374,5.5374,5.5345,5.4793,5.4068,5.3691,5.3487,5.3487,5.3516,5.3487,5.3487,5.3487,5.3487,5.3458,5.3487,5.3487,5.3429,5.3487,5.3487,5.3429,5.3123,5.2962,5.292,5.2617,5.2459,5.2414,5.2414,5.263,5.3007,5.3326,5.311,5.2617,5.2788,5.2962,5.302,5.3297,5.3487,5.3487,5.3487,5.3487,5.3471,5.3152,5.302,5.2875,5.2368,5.1929,5.1465,5.1087,5.0477,5.0216,4.9896,4.9722,4.9722,4.9722,4.9722,4.9722,4.9722,4.9722,4.9722,4.9722,4.9722,4.9722,4.9722,4.9722,4.9722,4.9722,4.9722,4.9722,4.9722,4.9722,4.9734,4.9705,4.9766,5.0026,5.0291,5.052,5.0739,5.0934,5.1074,5.1026,5.0888,5.029,4.9684,4.9067,4.8887,4.8637,4.8308,4.8038,4.7848,4.7668,4.7578,4.7549,4.7429,4.7298,4.7298,4.7298,4.7298,6.0264,6.009,5.8972,5.8406,5.8203,5.7681,5.7419,5.7303,5.7303,5.7303,5.7245,5.7303,5.7187,5.726,5.6665,5.6477,5.6461,5.6026,5.5794,5.5736,5.5649,5.5258,5.4822,5.4184,5.3952,5.3865,5.3691,5.3661,5.3661,5.3603,5.3487,5.3487,5.3487,5.3487,5.3487,5.3487,5.3487,5.3487,5.3429,5.3371,5.3371,5.3284,5.3255,5.3255,5.3255,5.3284,5.34,5.3487,5.3429,5.3458,5.3487,5.3442,5.3458,5.3487,5.3487,5.3487,5.3487,5.3487,5.3487,5.3458,5.3458,5.3326,5.2962,5.2643,5.2307,5.161,5.0971,5.0593,5.0129,4.9896,4.9722,4.9722,4.9722,4.9722,4.9722,4.9722,4.9722,4.9722,4.9722,4.9722,4.9722,4.9722,4.9722,4.9722,4.9722,4.9722,4.9722,4.9722,4.9722,4.9722,4.9766,4.9941,5.0231,5.0543,5.0763,5.0999,5.1105,5.1158,5.1158,5.0739,5.0152,4.9684,4.9486,4.9235,4.8906,4.8667,4.8457,4.8278,4.8098,4.7818,4.7698,4.7508,4.7328,4.7298,4.7298,6.07,6.0177,5.9887,5.9219,5.8377,5.8145,5.7797,5.7332,5.7332,5.7303,5.7303,5.7303,5.7303,5.7289,5.7129,5.71,5.7071,5.6868,5.6897,5.6839,5.6374,5.6157,5.5838,5.5287,5.4996,5.4836,5.4474,5.43,5.4184,5.3865,5.3516,5.3574,5.3691,5.3516,5.3574,5.3661,5.3516,5.3516,5.3545,5.3603,5.3632,5.3632,5.3632,5.3617,5.3617,5.3532,5.3516,5.3487,5.3487,5.3487,5.3545,5.3632,5.3516,5.3487,5.3487,5.3487,5.3487,5.3487,5.3487,5.3487,5.3487,5.3458,5.3355,5.3107,5.2626,5.2365,5.1652,5.1,5.0535,5.0274,4.9867,4.9722,4.9722,4.9722,4.9722,4.9722,4.9722,4.9722,4.9722,4.9722,4.9722,4.9722,4.9722,4.9722,4.9722,4.9722,4.9722,4.9722,4.9722,4.9722,4.9783,4.988,5.0231,5.0519,5.0674,5.0935,5.1147,5.1217,5.1217,5.1187,5.0601,5.0272,5.0092,4.9823,4.9505,4.9295,4.9146,4.9037,4.8876,4.8457,4.8057,4.7938,4.7788,4.7608,4.7429,6.099,6.0642,6.0322,5.9829,5.9161,5.8552,5.8087,5.7739,5.7419,5.7303,5.7303,5.7303,5.7303,5.7303,5.7303,5.7303,5.7303,5.7303,5.7303,5.7216,5.6926,5.6839,5.6767,5.6403,5.6055,5.549,5.5084,5.4938,5.4793,5.459,5.4445,5.4387,5.4371,5.4487,5.4387,5.4358,5.4445,5.4458,5.4387,5.4387,5.44,5.4387,5.44,5.44,5.44,5.4387,5.4429,5.4429,5.4416,5.4387,5.4358,5.4068,5.3603,5.3516,5.3516,5.3487,5.3487,5.3487,5.3487,5.3487,5.3487,5.3487,5.3487,5.3342,5.302,5.2801,5.2349,5.1726,5.1278,5.0871,5.0245,4.9809,4.9751,4.9722,4.9722,4.9722,4.9722,4.9722,4.9722,4.9722,4.9722,4.9722,4.9722,4.9722,4.9722,4.9722,4.9722,4.9722,4.9722,4.9722,4.9722,4.9868,5.0219,5.0501,5.0579,5.0828,5.1159,5.1217,5.1217,5.1217,5.0978,5.0787,5.0686,5.0428,5.0182,5.0021,4.9901,4.9793,4.9535,4.9067,4.8697,4.8517,4.8338,4.8188,4.7997,6.1193,6.1164,6.0584,6.0293,6.0047,5.9074,5.8493,5.8203,5.771,5.7448,5.7303,5.7303,5.7303,5.7303,5.7303,5.7303,5.7303,5.7303,5.7303,5.7274,5.7245,5.7216,5.7187,5.7042,5.6694,5.5736,5.562,5.5591,5.5548,5.5432,5.5142,5.5316,5.5345,5.5184,5.5287,5.5374,5.5229,5.5171,5.5171,5.52,5.5242,5.5229,5.5242,5.5229,5.52,5.52,5.52,5.5229,5.5316,5.5403,5.5403,5.4822,5.4126,5.3778,5.372,5.372,5.372,5.3661,5.3516,5.3487,5.3487,5.3487,5.3487,5.3487,5.3355,5.3078,5.2743,5.2352,5.1917,5.134,5.0871,5.0494,5.0145,5.0087,5.0029,4.9971,4.9971,4.9925,4.9896,4.9722,4.9722,4.9722,4.9722,4.9722,4.9722,4.9722,4.9722,4.9722,4.9722,4.9722,4.9722,4.9856,5.0195,5.0638,5.0793,5.0864,5.117,5.1217,5.1217,5.1217,5.1217,5.1086,5.0966,5.1056,5.0918,5.0697,5.0518,5.0428,5.0092,4.9625,4.9366,4.9194,4.8996,4.8787,4.8577,6.1193,6.1193,6.1077,6.0729,6.0206,5.9945,5.9248,5.8377,5.8174,5.7797,5.7332,5.7303,5.7303,5.7303,5.7303,5.7303,5.7303,5.7303,5.7303,5.7303,5.7303,5.7303,5.7303,5.7303,5.71,5.6926,5.652,5.6215,5.607,5.5736,5.5635,5.5461,5.5519,5.5519,5.5548,5.5403,5.5577,5.5635,5.5606,5.5606,5.5606,5.5577,5.5577,5.5577,5.5606,5.5577,5.5519,5.5432,5.5403,5.5403,5.5403,5.5316,5.5142,5.5097,5.4822,5.4445,5.4316,5.4155,5.372,5.3545,5.3516,5.3487,5.3487,5.3487,5.3458,5.3371,5.3078,5.2626,5.212,5.1572,5.1456,5.1207,5.1253,5.1224,5.1137,5.1137,5.105,5.0784,5.0361,5.0071,4.9896,4.9722,4.9722,4.9722,4.9722,4.9722,4.9722,4.9722,4.9722,4.9722,4.9722,4.9917,5.02,5.0638,5.1053,5.1088,5.1217,5.1217,5.1217,5.1217,5.1217,5.1217,5.1217,5.1217,5.1217,5.1038,5.0966,5.0907,5.0667,5.0212,5.0021,4.9901,4.9673,4.9415,4.8996,6.1193,6.1193,6.1193,6.1019,6.07,6.0322,5.9684,5.8842,5.8464,5.7928,5.7463,5.7303,5.7303,5.7303,5.7303,5.7303,5.7303,5.7303,5.7303,5.7303,5.7303,5.7303,5.7303,5.7303,5.7303,5.7216,5.697,5.6839,5.6854,5.6593,5.6332,5.639,5.639,5.6361,5.6361,5.6419,5.6361,5.6361,5.6332,5.6332,5.6374,5.6374,5.6374,5.6374,5.6345,5.6361,5.639,5.6403,5.639,5.639,5.6403,5.6403,5.6374,5.6244,5.5925,5.52,5.4967,5.4677,5.4155,5.401,5.3894,5.3545,5.3487,5.3487,5.3487,5.3458,5.3355,5.3007,5.2539,5.212,5.212,5.1862,5.1617,5.1617,5.1646,5.1646,5.1572,5.1352,5.1004,5.0581,5.0145,4.9913,4.9722,4.9722,4.9722,4.9722,4.9722,4.9722,4.9722,4.9722,4.9734,4.9953,5.0207,5.0638,5.1065,5.117,5.1217,5.1217,5.1217,5.1217,5.1217,5.1217,5.1217,5.1217,5.1217,5.1217,5.1187,5.1056,5.0907,5.0787,5.0667,5.0499,5.0331,5.0032,4.9613,6.1193,6.1193,6.1193,6.1193,6.1106,6.0642,6.0061,5.9422,5.8798,5.8145,5.7536,5.739,5.7303,5.7303,5.7303,5.7303,5.7303,5.7303,5.7303,5.7303,5.7303,5.7303,5.7303,5.7303,5.7303,5.7303,5.726,5.7303,5.7245,5.7144,5.7274,5.7158,5.7231,5.7289,5.7216,5.71,5.7303,5.7303,5.7303,5.7303,5.7303,5.7303,5.7303,5.7303,5.7303,5.7245,5.7144,5.7158,5.7158,5.7158,5.7216,5.7245,5.7303,5.7303,5.6839,5.5983,5.5693,5.5287,5.4822,5.4474,5.4213,5.3865,5.3603,5.3516,5.3487,5.3487,5.3458,5.34,5.3123,5.2788,5.273,5.2339,5.2123,5.2065,5.2082,5.2023,5.2065,5.1991,5.1846,5.1294,5.0569,5.0233,5.0187,5.0013,5.0071,4.9722,4.9722,4.9722,4.9722,4.9722,4.9783,5.0002,5.0291,5.0674,5.0994,5.1182,5.1217,5.1217,5.1217,5.1217,5.1217,5.1217,5.1217,5.1217,5.1217,5.1217,5.1217,5.1217,5.1098,5.1056,5.1158,5.1068,5.0769,5.0589,5.0249,6.1193,6.1193,6.1193,6.1193,6.1164,6.1077,6.0671,6.0032,5.9393,5.8813,5.8058,5.7565,5.7303,5.7303,5.7303,5.7303,5.7303,5.7303,5.7303,5.7303,5.7303,5.7303,5.7303,5.7303,5.7303,5.7303,5.7303,5.7303,5.7303,5.7303,5.7303,5.7303,5.7303,5.7303,5.7303,5.7303,5.7303,5.7303,5.7303,5.7303,5.7303,5.7303,5.7303,5.7303,5.7303,5.7303,5.7303,5.7303,5.7303,5.7303,5.7303,5.7303,5.7303,5.7303,5.726,5.6941,5.6578,5.5997,5.5374,5.4967,5.4561,5.4242,5.3865,5.3574,5.3487,5.3487,5.3487,5.3487,5.3384,5.3326,5.3297,5.3268,5.3226,5.3139,5.2994,5.3052,5.3081,5.2601,5.2484,5.2339,5.1701,5.1133,5.0855,5.0622,5.0419,5.0013,4.9722,4.9809,4.9838,4.9954,4.9946,5.0188,5.0315,5.0674,5.1006,5.1182,5.1217,5.1217,5.1217,5.1217,5.1217,5.1217,5.1217,5.1217,5.1217,5.1217,5.1217,5.1217,5.1217,5.1217,5.1217,5.1217,5.1187,5.0996,5.0775,6.1193,6.1193,6.1193,6.1193,6.1193,6.1193,6.0816,6.0177,5.9568,5.8929,5.8261,5.7594,5.7303,5.7303,5.7303,5.7303,5.7303,5.7303,5.7303,5.7303,5.7303,5.7303,5.7303,5.7303,5.7303,5.7303,5.7303,5.7303,5.7303,5.7303,5.7303,5.7303,5.7303,5.7303,5.7303,5.7303,5.7303,5.7303,5.7303,5.7303,5.7303,5.7303,5.7303,5.7303,5.7303,5.7303,5.7303,5.7303,5.7303,5.7303,5.7303,5.7303,5.7303,5.7303,5.7303,5.7274,5.7071,5.6636,5.6041,5.5693,5.5229,5.4619,5.4213,5.3952,5.3632,5.3487,5.3487,5.3487,5.3487,5.3487,5.3487,5.3487,5.3487,5.3487,5.3487,5.3487,5.3458,5.3355,5.3094,5.2978,5.2804,5.2194,5.1684,5.1423,5.1207,5.083,5.0656,5.0743,5.0668,5.0552,5.0486,5.0422,5.0513,5.068,5.097,5.1217,5.1217,5.1217,5.1217,5.1217,5.1217,5.1217,5.1217,5.1217,5.1217,5.1217,5.1217,5.1217,5.1217,5.1217,5.1217,5.1217,5.1217,5.1187,5.0877,6.1193,6.1193,6.1193,6.1193,6.1193,6.1193,6.0932,6.0409,5.98,5.9161,5.8464,5.7739,5.7303,5.7303,5.7303,5.7303,5.7303,5.7303,5.7303,5.7303,5.7303,5.7303,5.7303,5.7303,5.7303,5.7303,5.7303,5.7303,5.7303,5.7303,5.7303,5.7303,5.7303,5.7303,5.7303,5.7303,5.7303,5.7303,5.7303,5.7303,5.7303,5.7303,5.7303,5.7303,5.7303,5.7303,5.7303,5.7303,5.7303,5.7303,5.7303,5.7303,5.7303,5.7303,5.7303,5.7303,5.7216,5.7071,5.6651,5.6302,5.5867,5.5258,5.4517,5.4155,5.3603,5.3487,5.3487,5.3487,5.3487,5.3487,5.3487,5.3487,5.3487,5.3487,5.3487,5.3487,5.3487,5.3413,5.3355,5.3268,5.3168,5.3139,5.2646,5.2326,5.2007,5.1688,5.1588,5.1646,5.1439,5.1162,5.1036,5.0905,5.089,5.0928,5.1035,5.1217,5.1217,5.1217,5.1217,5.1217,5.1217,5.1217,5.1217,5.1217,5.1217,5.1217,5.1217,5.1217,5.1217,5.1217,5.1217,5.1217,5.1217,5.1217,5.1128,6.1193,6.1193,6.1193,6.1193,6.1193,6.1193,6.1164,6.099,6.038,5.9713,5.89,5.7928,5.7303,5.7303,5.7303,5.7303,5.7303,5.7303,5.7303,5.7303,5.7303,5.7303,5.7303,5.7303,5.7303,5.7303,5.7303,5.7303,5.7303,5.7303,5.7303,5.7303,5.7303,5.7303,5.7303,5.7303,5.7303,5.7303,5.7303,5.7303,5.7303,5.7303,5.7303,5.7303,5.7303,5.7303,5.7303,5.7303,5.7303,5.7303,5.7303,5.7303,5.7303,5.7303,5.7303,5.7303,5.7303,5.7216,5.7071,5.6738,5.6419,5.5954,5.5229,5.4271,5.3778,5.3545,5.3487,5.3487,5.3487,5.3487,5.3487,5.3487,5.3487,5.3487,5.3487,5.3487,5.3487,5.3487,5.3458,5.3487,5.3429,5.3342,5.3342,5.2936,5.2646,5.2297,5.2152,5.2181,5.1917,5.169,5.1545,5.1449,5.1361,5.1308,5.1208,5.1236,5.1217,5.1217,5.1217,5.1217,5.1217,5.1217,5.1217,5.1217,5.1217,5.1217,5.1217,5.1217,5.1217,5.1217,5.1217,5.1217,5.1217,5.1217,5.1217,6.1193,6.1193,6.1193,6.1193,6.1193,6.1193,6.1193,6.1077,6.0467,5.9597,5.8668,5.7739,5.7303,5.7303,5.7303,5.7303,5.7303,5.7303,5.7303,5.7303,5.7303,5.7303,5.7303,5.7303,5.7303,5.7303,5.7303,5.7303,5.7303,5.7303,5.7303,5.7303,5.7303,5.7303,5.7303,5.7303,5.7303,5.7303,5.7303,5.7303,5.7303,5.7303,5.7303,5.7303,5.7303,5.7303,5.7303,5.7303,5.7303,5.7303,5.7303,5.7303,5.7303,5.7303,5.7303,5.7303,5.7303,5.7303,5.7303,5.7028,5.6796,5.6186,5.5287,5.4387,5.4068,5.3778,5.3545,5.3487,5.3487,5.3487,5.3487,5.3487,5.3487,5.3487,5.3487,5.3487,5.3487,5.3487,5.3487,5.3487,5.3487,5.3458,5.3458,5.3429,5.3168,5.2907,5.2791,5.2646,5.2423,5.2277,5.2193,5.1998,5.1864,5.1753,5.1673,5.1475,5.1247,5.1217,5.1217,5.1217,5.1217,5.1217,5.1217,5.1217,5.1217,5.1217,5.1217,5.1217,5.1217,5.1217,5.1217,5.1217,5.1217,5.1217,5.1217,6.1193,6.1193,6.1193,6.1193,6.1193,6.1193,6.1193,6.1106,6.0729,5.9771,5.8552,5.7739,5.7303,5.7303,5.7303,5.7303,5.7303,5.7303,5.7303,5.7303,5.7303,5.7303,5.7303,5.7303,5.7303,5.7303,5.7303,5.7303,5.7303,5.7303,5.7303,5.7303,5.7303,5.7303,5.7303,5.7303,5.7303,5.7303,5.7303,5.7303,5.7303,5.7303,5.7303,5.7303,5.7303,5.7303,5.7303,5.7303,5.7303,5.7303,5.7303,5.7303,5.7303,5.7303,5.7303,5.7303,5.7303,5.7303,5.7303,5.7274,5.7013,5.6361,5.578,5.5026,5.4474,5.4068,5.3865,5.3487,5.3487,5.3487,5.3487,5.3487,5.3487,5.3487,5.3487,5.3487,5.3487,5.3487,5.3487,5.3487,5.3487,5.3487,5.3487,5.3487,5.34,5.3226,5.3168,5.3065,5.3004,5.294,5.2988,5.2725,5.2413,5.2267,5.2127,5.1642,5.1217,5.1217,5.1217,5.1217,5.1217,5.1217,5.1217,5.1217,5.1217,5.1217,5.1217,5.1217,5.1217,5.1217,5.1217,5.1217,5.1217,5.1217,5.1217,6.1178,6.1193,6.1178,6.1163,6.1133,6.1178,6.1193,6.1164,6.1048,6.0308,5.9074,5.7928,5.7361,5.7332,5.7303,5.7303,5.7303,5.7303,5.7303,5.7303,5.7303,5.7303,5.7303,5.7303,5.7303,5.7303,5.7303,5.7303,5.7303,5.7303,5.7303,5.7303,5.7303,5.7303,5.7303,5.7303,5.7303,5.7303,5.7303,5.7303,5.7303,5.7303,5.7303,5.7303,5.7303,5.7303,5.7303,5.7303,5.7303,5.7303,5.7303,5.7303,5.7303,5.7303,5.7303,5.7303,5.7303,5.7303,5.7303,5.7303,5.7013,5.6607,5.6128,5.5664,5.4822,5.4416,5.4097,5.3603,5.3487,5.3487,5.3487,5.3487,5.3487,5.3487,5.3487,5.3487,5.3487,5.3487,5.3487,5.3487,5.3487,5.3487,5.3487,5.3487,5.3487,5.3458,5.3487,5.3456,5.3434,5.3552,5.3585,5.3423,5.3048,5.2667,5.239,5.1654,5.1247,5.1217,5.1217,5.1217,5.1217,5.1217,5.1217,5.1217,5.1217,5.1217,5.1217,5.1217,5.1217,5.1217,5.1217,5.1217,5.1217,5.1217,5.1217,6.0877,6.0862,6.0621,6.0545,6.0605,6.1013,6.1193,6.1106,6.07,6.0061,5.9248,5.8319,5.7681,5.7448,5.7303,5.7303,5.7303,5.7303,5.7303,5.7303,5.7303,5.7303,5.7303,5.7303,5.7303,5.7303,5.7303,5.7303,5.7303,5.7303,5.7303,5.7303,5.7303,5.7303,5.7303,5.7303,5.7303,5.7303,5.7303,5.7303,5.7303,5.7303,5.7303,5.7303,5.7303,5.7303,5.7303,5.7303,5.7303,5.7303,5.7303,5.7303,5.7303,5.7303,5.7303,5.7303,5.7303,5.7303,5.7303,5.7303,5.7245,5.6926,5.6549,5.6012,5.5229,5.4706,5.4184,5.3704,5.3516,5.3487,5.3487,5.3487,5.3487,5.3487,5.3487,5.3487,5.3487,5.3487,5.3487,5.3487,5.3487,5.3487,5.3487,5.3487,5.3487,5.3527,5.3527,5.3658,5.3678,5.3964,5.4114,5.401,5.3714,5.3219,5.2671,5.1816,5.1307,5.1217,5.1217,5.1217,5.1217,5.1217,5.1217,5.1217,5.1217,5.1217,5.1217,5.1217,5.1217,5.1217,5.1217,5.1217,5.1217,5.1217,5.1217,6.0529,6.0499,6.0316,6.0224,6.0285,6.0666,6.0877,6.0717,6.0154,5.9519,5.8898,5.835,5.7742,5.7307,5.7261,5.7303,5.7303,5.7303,5.7303,5.7303,5.7303,5.7303,5.7303,5.7303,5.7303,5.7303,5.7303,5.7303,5.7303,5.7303,5.7303,5.7303,5.7303,5.7303,5.7303,5.7303,5.7303,5.7303,5.7303,5.7303,5.7303,5.7303,5.7303,5.7303,5.7303,5.7303,5.7303,5.7303,5.7303,5.7303,5.7303,5.7303,5.7303,5.7303,5.7303,5.7303,5.7303,5.7303,5.7303,5.7303,5.7274,5.7245,5.6752,5.6099,5.5461,5.4822,5.4184,5.3749,5.3545,5.3487,5.3487,5.3487,5.3487,5.3487,5.3487,5.3487,5.3487,5.3487,5.3487,5.3487,5.3487,5.3487,5.3487,5.3487,5.3487,5.354,5.3579,5.3736,5.3919,5.4191,5.4386,5.4285,5.3963,5.334,5.2665,5.1917,5.1468,5.1247,5.1217,5.1217,5.1217,5.1217,5.1217,5.1217,5.1217,5.1217,5.1217,5.1217,5.1217,5.1217,5.1217,5.1217,5.1217,5.1217,5.1217,6.0194,6.0194,6.0194,6.0148,6.0178,6.0163,6.0194,6.0167,5.9565,5.8952,5.8309,5.8059,5.7556,5.708,5.7162,5.7275,5.7303,5.7303,5.7303,5.7303,5.7303,5.7303,5.7303,5.7303,5.7303,5.7303,5.7303,5.7303,5.7303,5.7303,5.7303,5.7303,5.7303,5.7303,5.7303,5.7303,5.7303,5.7303,5.7303,5.7303,5.7303,5.7303,5.7303,5.7303,5.7303,5.7303,5.7303,5.7303,5.7303,5.7303,5.7303,5.7303,5.7303,5.7303,5.7303,5.7303,5.7303,5.7303,5.7303,5.7303,5.7187,5.7071,5.6578,5.6012,5.5461,5.4851,5.4213,5.3749,5.3487,5.3487,5.3487,5.3487,5.3487,5.3487,5.3487,5.3487,5.3487,5.3487,5.3487,5.3487,5.3487,5.3487,5.3487,5.3487,5.35,5.3553,5.3645,5.3867,5.4062,5.4282,5.4433,5.4391,5.3953,5.3329,5.2618,5.1858,5.1498,5.1217,5.1217,5.1217,5.1217,5.1217,5.1217,5.1217,5.1217,5.1217,5.1217,5.1217,5.1217,5.1217,5.1217,5.1217,5.1217,5.1217,5.1217,5.9825,5.981,5.9578,5.9485,5.9485,5.9485,5.9748,6.0121,5.9965,5.935,5.8293,5.8211,5.7612,5.6951,5.6993,5.7149,5.7262,5.7303,5.7303,5.7303,5.7303,5.7303,5.7303,5.7303,5.7303,5.7303,5.7303,5.7303,5.7303,5.7303,5.7303,5.7303,5.7303,5.7303,5.7303,5.7303,5.7303,5.7303,5.7303,5.7303,5.7303,5.7303,5.7303,5.7303,5.7303,5.7303,5.7303,5.7303,5.7303,5.7303,5.7303,5.7303,5.7303,5.7303,5.7303,5.7303,5.7303,5.7303,5.7303,5.7289,5.7115,5.6665,5.6084,5.5736,5.5271,5.4764,5.4155,5.3749,5.3487,5.3487,5.3487,5.3487,5.3487,5.3487,5.3487,5.3487,5.3487,5.3487,5.3487,5.3487,5.3487,5.3487,5.3487,5.3487,5.3514,5.3566,5.3723,5.3955,5.4086,5.4288,5.4417,5.4343,5.3709,5.2995,5.2426,5.1708,5.1427,5.1217,5.1217,5.1217,5.1217,5.1217,5.1217,5.1217,5.1217,5.1217,5.1217,5.1217,5.1217,5.1217,5.1217,5.1217,5.1217,5.1217,5.1217,5.9423,5.9311,5.908,5.8924,5.8814,5.8798,5.9064,5.9423,5.9686,5.91,5.8021,5.8041,5.7535,5.6666,5.6766,5.6993,5.712,5.7247,5.7303,5.7303,5.7303,5.7303,5.7303,5.7303,5.7303,5.7303,5.7303,5.7303,5.7303,5.7303,5.7303,5.7303,5.7303,5.7303,5.7303,5.7303,5.7303,5.7303,5.7303,5.7303,5.7303,5.7303,5.7303,5.7303,5.7303,5.7303,5.7303,5.7303,5.7303,5.7303,5.7303,5.7303,5.7303,5.7303,5.7303,5.7303,5.7303,5.7303,5.7274,5.7013,5.6752,5.6287,5.5591,5.5142,5.4793,5.4387,5.3952,5.3574,5.3516,5.3487,5.3487,5.3487,5.3487,5.3487,5.3487,5.3487,5.3487,5.3487,5.3487,5.3487,5.3487,5.3487,5.3487,5.3487,5.3579,5.3736,5.387,5.3982,5.4026,5.4057,5.42,5.4246,5.3442,5.2618,5.2067,5.1636,5.1397,5.1217,5.1217,5.1217,5.1217,5.1217,5.1217,5.1217,5.1217,5.1217,5.1217,5.1217,5.1217,5.1217,5.1217,5.1217,5.1217,5.1217,5.1217,5.8955,5.8672,5.8657,5.8499,5.823,5.8246,5.8262,5.8262,5.8877,5.8469,5.7564,5.7652,5.7151,5.6377,5.6494,5.6794,5.6979,5.7149,5.7247,5.7289,5.7303,5.7303,5.7303,5.7303,5.7303,5.7303,5.7303,5.7303,5.7303,5.7303,5.7303,5.7303,5.7303,5.7303,5.7303,5.7303,5.7303,5.7303,5.7303,5.7303,5.7303,5.7303,5.7303,5.7303,5.7303,5.7303,5.7303,5.7303,5.7303,5.7303,5.7303,5.7303,5.7303,5.7303,5.7303,5.7303,5.7303,5.7173,5.7028,5.6752,5.6361,5.5838,5.52,5.4677,5.43,5.4025,5.3661,5.3545,5.3516,5.3487,5.3487,5.3487,5.3487,5.3487,5.3487,5.3487,5.3487,5.3487,5.3487,5.3487,5.3487,5.3487,5.3487,5.35,5.3605,5.3854,5.3879,5.3942,5.3845,5.3788,5.3699,5.3783,5.312,5.2336,5.1917,5.1517,5.1337,5.1217,5.1217,5.1217,5.1217,5.1217,5.1217,5.1217,5.1217,5.1217,5.1217,5.1217,5.1217,5.1217,5.1217,5.1217,5.1217,5.1217,5.1217,5.8625,5.8309,5.8309,5.8277,5.8198,5.8198,5.8166,5.8214,5.8341,5.7883,5.7213,5.7264,5.6914,5.6089,5.6178,5.6451,5.6837,5.6979,5.7135,5.7233,5.7289,5.7303,5.7303,5.7303,5.7303,5.7303,5.7303,5.7303,5.7303,5.7303,5.7303,5.7303,5.7303,5.7303,5.7303,5.7303,5.7303,5.7303,5.7303,5.7303,5.7303,5.7303,5.7303,5.7303,5.7303,5.7303,5.7303,5.7303,5.7303,5.7303,5.7303,5.7303,5.7303,5.7303,5.7303,5.7303,5.7216,5.6999,5.6622,5.6302,5.5896,5.5258,5.4619,5.4213,5.3865,5.3619,5.3503,5.3487,5.3487,5.3487,5.3487,5.3487,5.3487,5.3487,5.3487,5.3487,5.3487,5.3487,5.3487,5.3487,5.3487,5.3487,5.3487,5.3553,5.3671,5.3675,5.3565,5.352,5.3339,5.3228,5.2777,5.2761,5.2641,5.2055,5.1666,5.1457,5.1277,5.1217,5.1217,5.1217,5.1217,5.1217,5.1217,5.1217,5.1217,5.1217,5.1217,5.1217,5.1217,5.1217,5.1217,5.1217,5.1217,5.1217,5.1217,5.8277,5.796,5.7656,5.7431,5.7303,5.7259,5.7367,5.7473,5.7414,5.7036,5.6593,5.6855,5.6571,5.5783,5.5859,5.612,5.6552,5.6809,5.6951,5.7121,5.7261,5.7303,5.7303,5.7303,5.7303,5.7303,5.7303,5.7303,5.7303,5.7303,5.7303,5.7303,5.7303,5.7303,5.7303,5.7303,5.7303,5.7303,5.7303,5.7303,5.7303,5.7303,5.7303,5.7303,5.7303,5.7303,5.7303,5.7303,5.7303,5.7303,5.7303,5.7303,5.7303,5.7303,5.7158,5.6955,5.681,5.6636,5.6128,5.5664,5.53,5.4677,5.4126,5.3749,5.3691,5.3487,5.3487,5.3487,5.3487,5.3487,5.3487,5.3487,5.3487,5.3487,5.3487,5.3487,5.3487,5.3487,5.3487,5.3487,5.3487,5.3487,5.3487,5.35,5.3584,5.3534,5.3436,5.3071,5.2916,5.2687,5.2217,5.1917,5.1905,5.1786,5.1457,5.1307,5.1247,5.1217,5.1217,5.1217,5.1217,5.1217,5.1217,5.1217,5.1217,5.1217,5.1217,5.1217,5.1217,5.1217,5.1217,5.1217,5.1217,5.1206,5.1194,5.7832,5.7431,5.6866,5.6443,5.6148,5.6132,5.6345,5.6574,5.632,5.6043,5.5831,5.6308,5.5833,5.5538,5.554,5.583,5.612,5.6566,5.678,5.6993,5.7191,5.7261,5.7303,5.7303,5.7303,5.7303,5.7303,5.7303,5.7303,5.7303,5.7303,5.7303,5.7303,5.7303,5.7303,5.7303,5.7303,5.7303,5.7303,5.7303,5.7303,5.7303,5.7303,5.7303,5.7303,5.7303,5.7303,5.7303,5.7303,5.7303,5.7303,5.7303,5.7216,5.7144,5.6868,5.6622,5.6302,5.5925,5.5403,5.4938,5.4619,5.4213,5.3749,5.3545,5.3516,5.3487,5.3487,5.3487,5.3487,5.3487,5.3487,5.3487,5.3487,5.3487,5.3487,5.3487,5.3487,5.3487,5.3487,5.3487,5.3487,5.3487,5.3487,5.3487,5.3442,5.3401,5.3132,5.2758,5.2418,5.2145,5.1792,5.1576,5.1517,5.1337,5.1217,5.1217,5.1217,5.1217,5.1217,5.1217,5.1217,5.1217,5.1217,5.1217,5.1217,5.1217,5.1217,5.1217,5.1217,5.1217,5.1217,5.1217,5.1217,5.1206,5.117,5.7012,5.641,5.6252,5.6164,5.6099,5.6082,5.6148,5.6123,5.5687,5.5338,5.5136,5.4952,5.4855,5.4982,5.507,5.5379,5.5889,5.6336,5.668,5.6908,5.7106,5.7233,5.7303,5.7303,5.7303,5.7303,5.7303,5.7303,5.7303,5.7303,5.7303,5.7303,5.7303,5.7303,5.7303,5.7303,5.7303,5.7303,5.7303,5.7303,5.7303,5.7303,5.7303,5.7303,5.7303,5.7303,5.7303,5.7303,5.7303,5.7303,5.7303,5.7274,5.71,5.6854,5.6506,5.6099,5.5809,5.5287,5.4764,5.4474,5.42,5.3865,5.3516,5.3516,5.3487,5.3487,5.3487,5.3487,5.3487,5.3487,5.3487,5.3487,5.3487,5.3487,5.3487,5.3487,5.3487,5.3487,5.3487,5.3487,5.3487,5.3487,5.3487,5.345,5.3341,5.3161,5.2729,5.2381,5.2127,5.1738,5.1427,5.1337,5.1217,5.1217,5.1217,5.1217,5.1217,5.1217,5.1217,5.1217,5.1217,5.1217,5.1217,5.1217,5.1217,5.1217,5.1217,5.1217,5.1217,5.1217,5.1217,5.1217,5.1217,5.1159,5.107]},{"header":{"parameterUnit":"m.s-1","parameterCategory":1,"la1":31.0,"la2":29.5877,"lo1":-88.7671,"lo2":-86.6584,"dy":0.0162,"dx":0.0185,"nx":115,"ny":88,"refTime":"2024-09-04T12:00:00:Z","depth":0,"parameterNumber":3,"parameterNumberName":"V-component_of_WINDS"},"data":[0.0,0.0,0.0,0.0,0.0,0.0,0.0,0.0,0.0,0.0,0.0,0.0,0.0,0.0,0.0,0.0,0.0,0.0,0.0,0.0,0.0,0.0,0.0,0.0,0.0,0.0,0.0,0.0,0.0,0.0,0.0,0.0,0.0,0.0,0.0,0.0,0.0,0.0,0.0,0.0,0.0,0.0,0.0,0.0,0.0,0.0,0.0,0.0,0.0,0.0,0.0,0.0,0.0,0.0,0.0,0.0,0.0,0.0,0.0,0.0,0.0,0.0,0.0,0.0,0.0,0.0,0.0,0.0,0.0,0.0,0.0,0.0,0.0,0.0,0.0,0.0,0.0,0.0,0.0,0.0,0.0,0.0,0.0,0.0,0.0,0.0,0.0,0.0,0.0,0.0,0.0,0.0,0.0,0.0,0.0,0.0,0.0,0.0,0.0,0.0,0.0,0.0,0.0,0.0,0.0,0.0,0.0,0.0,0.0,0.0,0.0,0.0,0.0,0.0,0.0,0.0,0.0,0.0,0.0,0.0,0.0,0.0,0.0,0.0,0.0,0.0,0.0,0.0,0.0,0.0,0.0,0.0,0.0,0.0,0.0,0.0,0.0,0.0,0.0,0.0,0.0,0.0,0.0,0.0,0.0,0.0,0.0,0.0,0.0,0.0,0.0,0.0,0.0,0.0,0.0,0.0,0.0,0.0,0.0,0.0,0.0,0.0,0.0,0.0,0.0,0.0,0.0,0.0,0.0,0.0,0.0,0.0,0.0,0.0,0.0,0.0,0.0,0.0,0.0,0.0,0.0,0.0,0.0,0.0,0.0,0.0,0.0,0.0,0.0,0.0,0.0,0.0,0.0,0.0,0.0,0.0,0.0,0.0,0.0,0.0,0.0,0.0,0.0,0.0,0.0,0.0,0.0,0.0,0.0,0.0,0.0,0.0,0.0,0.0,0.0,0.0,0.0,0.0,0.0,0.0,0.0,0.0,0.0,0.0,0.0,0.0,0.0,0.0,0.0,0.0,0.0,0.0,0.0,0.0,0.0,0.0,0.0,0.0,0.0,0.0,0.0,0.0,0.0,0.0,0.0,0.0,0.0,0.0,0.0,0.0,0.0,0.0,0.0,0.0,0.0,0.0,0.0,0.0,0.0,0.0,0.0,0.0,0.0,0.0,0.0,0.0,0.0,0.0,0.0,0.0,0.0,0.0,0.0,0.0,0.0,0.0,0.0,0.0,0.0,0.0,0.0,0.0,0.0,0.0,0.0,0.0,0.0,0.0,0.0,0.0,0.0,0.0,0.0,0.0,0.0,0.0,0.0,0.0,0.0,0.0,0.0,0.0,0.0,0.0,0.0,0.0,0.0,0.0,0.0,0.0,0.0,0.0,0.0,0.0,0.0,0.0,0.0,0.0,0.0,0.0,0.0,0.0,0.0,0.0,0.0,0.0,0.0,0.0,0.0,0.0,0.0,0.0,0.0,0.0,0.0,0.0,0.0,0.0,0.0,0.0,0.0,0.0,0.0,0.0,0.0,0.0,0.0,0.0,0.0,0.0,0.0,0.0,0.0,0.0,0.0,0.0,0.0,0.0,0.0,0.0,0.0,0.0,0.0,0.0,0.0,0.0,0.0,0.0,0.0,0.0,0.0,0.0,0.0,0.0,0.0,0.0,0.0,0.0,0.0,0.0,0.0,0.0,0.0,0.0,0.0,0.0,0.0,0.0,0.0,0.0,0.0,0.0,0.0,0.0,0.0,0.0,0.0,0.0,0.0,0.0,0.0,0.0,0.0,0.0,0.0,0.0,0.0,0.0,0.0,0.0,0.0,0.0,0.0,0.0,0.0,0.0,0.0,0.0,0.0,0.0,0.0,0.0,0.0,0.0,0.0,0.0,0.0,0.0,0.0,0.0,0.0,0.0,0.0,0.0,0.0,0.0,0.0,0.0,0.0,0.0,0.0,0.0,0.0,0.0,0.0,0.0,0.0,0.0,0.0,0.0,0.0,0.0,0.0,0.0,0.0,0.0,0.0,0.0,0.0,0.0,0.0,0.0,0.0,0.0,0.0,0.0,0.0,0.0,0.0,0.0,0.0,0.0,0.0,0.0,0.0,0.0,0.0,0.0,0.0,0.0,0.0,0.0,0.0,0.0,0.0,0.0,0.0,0.0,0.0,0.0,0.0,0.0,0.0,0.0,0.0,0.0,0.0,0.0,0.0,0.0,0.0,0.0,0.0,0.0,0.0,0.0,0.0,0.0,0.0,0.0,0.0,0.0,0.0,0.0,0.0,0.0,0.0,0.0,0.0,0.0,0.0,0.0,0.0,0.0,0.0,0.0,0.0,0.0,0.0,0.0,0.0,0.0,0.0,0.0,0.0,0.0,0.0,0.0,0.0,0.0,0.0,0.0,0.0,0.0,0.0,0.0,0.0,0.0,0.0,0.0,0.0,0.0,0.0,0.0,0.0,0.0,0.0,0.0,0.0,0.0,0.0,0.0,0.0,0.0,0.0,0.0,0.0,0.0,0.0,0.0,0.0,0.0,0.0,0.0,0.0,0.0,0.0,0.0,0.0,0.0,0.0,0.0,0.0,0.0,0.0,0.0,0.0,0.0,0.0,0.0,0.0,0.0,0.0,0.0,0.0,0.0,0.0,0.0,0.0,0.0,0.0,0.0,0.0,0.0,0.0,0.0,0.0,0.0,0.0,0.0,0.0,0.0,0.0,0.0,0.0,0.0,0.0,0.0,0.0,0.0,0.0,0.0,0.0,0.0,0.0,0.0,0.0,0.0,0.0,0.0,0.0,0.0,0.0,0.0,0.0,0.0,0.0,0.0,0.0,0.0,0.0,0.0,0.0,0.0,0.0,0.0,0.0,0.0,0.0,0.0,0.0,0.0,0.0,0.0,0.0,0.0,0.0,0.0,0.0,0.0,0.0,0.0,0.0,0.0,0.0,0.0,0.0,0.0,0.0,0.0,0.0,0.0,0.0,0.0,0.0,0.0,0.0,0.0,0.0,0.0,0.0,0.0,0.0,0.0,0.0,0.0,0.0,0.0,0.0,0.0,0.0,0.0,0.0,0.0,0.0,0.0,0.0,0.0,0.0,0.0,0.0,0.0,0.0,0.0,0.0,0.0,0.0,0.0,0.0,0.0,0.0,0.0,0.0,0.0,0.0,0.0,0.0,0.0,0.0,0.0,0.0,0.0,0.0,0.0,0.0,0.0,0.0,0.0,0.0,0.0,0.0,0.0,0.0,0.0,0.0,0.0,0.0,0.0,0.0,0.0,0.0,0.0,0.0,0.0,0.0,0.0,0.0,0.0,0.0,0.0,0.0,0.0,0.0,0.0,0.0,0.0,0.0,0.0,0.0,0.0,0.0,0.0,0.0,0.0,0.0,0.0,0.0,0.0,0.0,0.0,0.0,0.0,0.0,0.0,0.0,0.0,0.0,0.0,0.0,0.0,0.0,0.0,0.0,0.0,0.0,0.0,0.0,0.0,0.0,0.0,0.0,0.0,0.0,0.0,0.0,0.0,0.0,0.0,0.0,0.0,0.0,0.0,0.0,0.0,0.0,0.0,0.0,0.0,0.0,0.0,0.0,0.0,0.0,0.0,0.0,0.0,0.0,0.0,0.0,0.0,0.0,0.0,0.0,0.0,0.0,0.0,0.0,0.0,0.0,0.0,0.0,0.0,0.0,0.0,0.0,0.0,0.0,0.0,0.0,0.0,0.0,0.0,0.0,0.0,0.0,0.0,0.0,0.0,0.0,0.0,0.0,0.0,0.0,0.0,0.0,0.0,0.0,0.0,0.0,0.0,0.0,0.0,0.0,0.0,0.0,0.0,0.0,0.0,0.0,0.0,0.0,0.0,0.0,0.0,0.0,0.0,0.0,0.0,0.0,0.0,0.0,0.0,0.0,0.0,0.0,0.0,0.0,0.0,0.0,0.0,0.0,0.0,0.0,0.0,0.0,0.0,0.0,0.0,0.0,0.0,0.0,0.0,0.0,0.0,0.0,0.0,0.0,0.0,0.0,0.0,0.0,0.0,0.0,0.0,0.0,0.0,0.0,0.0,0.0,0.0,0.0,0.0,0.0,0.0,0.0,0.0,0.0,0.0,0.0,0.0,0.0,0.0,0.0,0.0,0.0,0.0,0.0,0.0,0.0,0.0,0.0,0.0,0.0,0.0,0.0,0.0,0.0,0.0,0.0,0.0,0.0,0.0,0.0,0.0,0.0,0.0,0.0,0.0,0.0,0.0,0.0,0.0,0.0,0.0,0.0,0.0,2.562,0.0,0.0,0.0,0.0,0.0,0.0,0.0,0.0,0.0,0.0,0.0,0.0,0.0,0.0,0.0,0.0,0.0,0.0,0.0,0.0,0.0,0.0,0.0,0.0,0.0,0.0,0.0,0.0,0.0,0.0,0.0,0.0,0.0,0.0,0.0,0.0,0.0,0.0,0.0,0.0,0.0,0.0,0.0,0.0,0.0,0.0,0.0,0.0,0.0,0.0,0.0,0.0,0.0,0.0,0.0,0.0,0.0,0.0,0.0,0.0,0.0,0.0,0.0,0.0,0.0,0.0,0.0,0.0,0.0,0.0,0.0,0.0,0.0,0.0,0.0,0.0,0.0,0.0,0.0,0.0,0.0,0.0,0.0,0.0,0.0,0.0,0.0,0.0,0.0,0.0,0.0,0.0,0.0,0.0,0.0,0.0,0.0,0.0,0.0,0.0,0.0,0.0,0.0,0.0,0.0,0.0,0.0,0.0,0.0,0.0,2.7253,2.7018,2.7076,2.679,2.6094,0.0,0.0,0.0,0.0,0.0,0.0,0.0,0.0,0.0,0.0,0.0,0.0,0.0,0.0,0.0,0.0,0.0,0.0,0.0,0.0,0.0,0.0,0.0,0.0,0.0,0.0,0.0,0.0,0.0,0.0,0.0,0.0,0.0,0.0,0.0,0.0,0.0,0.0,0.0,0.0,0.0,0.0,0.0,0.0,0.0,0.0,0.0,0.0,0.0,0.0,0.0,0.0,0.0,0.0,0.0,0.0,0.0,0.0,0.0,0.0,0.0,0.0,0.0,0.0,0.0,0.0,0.0,0.0,0.0,0.0,0.0,0.0,0.0,0.0,0.0,0.0,0.0,0.0,0.0,0.0,0.0,0.0,0.0,0.0,0.0,0.0,0.0,0.0,0.0,0.0,0.0,0.0,0.0,0.0,0.0,0.0,0.0,0.0,0.0,0.0,0.0,0.0,0.0,0.0,0.0,0.0,0.0,0.0,0.0,0.0,0.0,0.0,2.7565,2.7252,2.6269,0.0,0.0,0.0,0.0,0.0,0.0,0.0,0.0,0.0,0.0,0.0,0.0,0.0,0.0,0.0,0.0,0.0,0.0,0.0,0.0,0.0,0.0,0.0,0.0,0.0,0.0,0.0,0.0,0.0,0.0,0.0,0.0,0.0,0.0,0.0,0.0,0.0,0.0,0.0,0.0,0.0,0.0,0.0,0.0,0.0,0.0,0.0,0.0,0.0,0.0,0.0,0.0,0.0,0.0,0.0,0.0,0.0,0.0,0.0,0.0,0.0,0.0,0.0,0.0,0.0,0.0,0.0,0.0,0.0,0.0,0.0,0.0,0.0,0.0,0.0,0.0,0.0,0.0,0.0,0.0,0.0,0.0,0.0,0.0,0.0,0.0,0.0,0.0,0.0,0.0,0.0,0.0,0.0,0.0,0.0,0.0,0.0,0.0,0.0,0.0,0.0,0.0,0.0,0.0,0.0,0.0,0.0,0.0,0.0,0.0,2.8236,2.8164,2.7878,0.0,2.5823,0.0,0.0,0.0,0.0,0.0,0.0,0.0,0.0,0.0,0.0,0.0,0.0,0.0,0.0,0.0,0.0,0.0,0.0,0.0,0.0,0.0,0.0,0.0,0.0,0.0,0.0,0.0,0.0,0.0,0.0,0.0,0.0,0.0,0.0,0.0,0.0,0.0,0.0,0.0,0.0,0.0,0.0,0.0,0.0,0.0,0.0,0.0,0.0,0.0,0.0,0.0,0.0,0.0,0.0,0.0,0.0,0.0,0.0,0.0,0.0,0.0,0.0,0.0,0.0,0.0,0.0,0.0,0.0,0.0,0.0,0.0,0.0,0.0,0.0,0.0,0.0,0.0,0.0,0.0,0.0,0.0,0.0,0.0,0.0,0.0,0.0,0.0,0.0,0.0,0.0,0.0,0.0,0.0,0.0,0.0,0.0,0.0,0.0,0.0,0.0,0.0,0.0,0.0,0.0,0.0,0.0,0.0,0.0,0.0,0.0,0.0,2.8301,2.765,2.6914,0.0,0.0,0.0,0.0,0.0,0.0,0.0,0.0,0.0,0.0,0.0,0.0,0.0,0.0,0.0,0.0,0.0,0.0,0.0,0.0,0.0,0.0,0.0,0.0,0.0,0.0,0.0,0.0,0.0,0.0,0.0,0.0,0.0,0.0,0.0,0.0,0.0,0.0,0.0,0.0,0.0,0.0,0.0,0.0,0.0,0.0,0.0,0.0,0.0,0.0,0.0,0.0,0.0,0.0,0.0,0.0,0.0,0.0,0.0,0.0,0.0,0.0,0.0,0.0,0.0,0.0,0.0,0.0,0.0,0.0,0.0,0.0,0.0,0.0,0.0,0.0,0.0,0.0,0.0,0.0,0.0,0.0,0.0,0.0,0.0,0.0,0.0,0.0,0.0,0.0,0.0,0.0,0.0,0.0,0.0,0.0,0.0,0.0,0.0,0.0,0.0,0.0,0.0,0.0,0.0,0.0,0.0,0.0,0.0,0.0,2.7851,0.0,2.8262,2.7448,2.6804,2.6419,0.0,0.0,0.0,0.0,0.0,0.0,0.0,0.0,0.0,0.0,0.0,0.0,0.0,0.0,0.0,0.0,0.0,0.0,0.0,0.0,0.0,0.0,0.0,0.0,0.0,0.0,0.0,0.0,0.0,0.0,0.0,0.0,0.0,0.0,0.0,0.0,0.0,0.0,0.0,0.0,0.0,0.0,0.0,0.0,0.0,0.0,0.0,0.0,0.0,0.0,0.0,0.0,0.0,0.0,0.0,0.0,0.0,0.0,0.0,0.0,0.0,0.0,0.0,0.0,0.0,0.0,0.0,0.0,0.0,0.0,0.0,0.0,0.0,0.0,0.0,0.0,0.0,0.0,0.0,0.0,0.0,0.0,0.0,0.0,0.0,0.0,0.0,0.0,0.0,0.0,0.0,0.0,0.0,0.0,0.0,0.0,0.0,0.0,0.0,0.0,0.0,0.0,0.0,0.0,0.0,0.0,0.0,0.0,0.0,2.7851,2.8301,2.8295,2.7448,2.6816,0.0,0.0,0.0,0.0,0.0,0.0,0.0,0.0,0.0,0.0,0.0,0.0,0.0,0.0,0.0,0.0,0.0,0.0,0.0,0.0,0.0,0.0,0.0,0.0,0.0,0.0,0.0,0.0,0.0,0.0,0.0,0.0,0.0,0.0,0.0,0.0,0.0,0.0,0.0,0.0,0.0,0.0,0.0,0.0,0.0,0.0,0.0,0.0,0.0,0.0,0.0,0.0,0.0,0.0,0.0,0.0,0.0,0.0,0.0,0.0,0.0,0.0,0.0,0.0,0.0,0.0,0.0,0.0,0.0,0.0,0.0,0.0,0.0,0.0,0.0,0.0,0.0,0.0,0.0,0.0,0.0,0.0,0.0,0.0,0.0,0.0,0.0,0.0,0.0,0.0,0.0,0.0,0.0,0.0,0.0,0.0,0.0,0.0,0.0,0.0,0.0,0.0,0.0,0.0,0.0,0.0,0.0,0.0,0.0,2.7051,2.7838,2.8301,0.0,2.7461,2.6816,0.0,0.0,0.0,0.0,0.0,0.0,0.0,0.0,0.0,0.0,0.0,0.0,0.0,0.0,0.0,0.0,0.0,0.0,0.0,0.0,0.0,0.0,0.0,0.0,0.0,0.0,0.0,0.0,0.0,0.0,0.0,0.0,0.0,0.0,0.0,0.0,0.0,0.0,0.0,0.0,0.0,0.0,0.0,0.0,0.0,0.0,0.0,0.0,0.0,0.0,0.0,0.0,0.0,0.0,0.0,0.0,0.0,0.0,0.0,0.0,0.0,0.0,0.0,0.0,0.0,0.0,0.0,0.0,0.0,0.0,0.0,0.0,0.0,0.0,0.0,0.0,0.0,0.0,0.0,0.0,0.0,0.0,0.0,0.0,0.0,0.0,0.0,0.0,0.0,0.0,0.0,0.0,0.0,0.0,0.0,0.0,0.0,0.0,0.0,0.0,0.0,0.0,0.0,0.0,0.0,0.0,0.0,0.0,0.0,2.7409,0.0,2.8301,0.0,2.7461,2.6816,0.0,0.0,0.0,0.0,0.0,0.0,0.0,0.0,0.0,0.0,0.0,0.0,0.0,0.0,0.0,0.0,0.0,0.0,0.0,0.0,0.0,0.0,0.0,0.0,0.0,0.0,0.0,0.0,0.0,0.0,0.0,0.0,0.0,0.0,0.0,0.0,0.0,0.0,0.0,0.0,0.0,0.0,0.0,0.0,0.0,0.0,0.0,0.0,0.0,0.0,0.0,0.0,0.0,0.0,0.0,0.0,0.0,0.0,0.0,0.0,0.0,0.0,0.0,0.0,0.0,0.0,0.0,0.0,0.0,0.0,0.0,0.0,0.0,0.0,0.0,0.0,0.0,0.0,0.0,0.0,0.0,0.0,0.0,0.0,0.0,0.0,0.0,0.0,0.0,0.0,0.0,0.0,0.0,0.0,0.0,0.0,0.0,0.0,0.0,0.0,0.0,0.0,0.0,0.0,0.0,0.0,0.0,0.0,2.7422,2.8255,2.8301,2.832,2.8281,2.748,2.6836,0.0,0.0,0.0,0.0,0.0,0.0,0.0,0.0,0.0,0.0,0.0,0.0,0.0,0.0,0.0,0.0,0.0,0.0,0.0,0.0,0.0,0.0,0.0,0.0,0.0,0.0,0.0,0.0,0.0,0.0,0.0,0.0,0.0,0.0,0.0,0.0,0.0,0.0,0.0,0.0,0.0,0.0,0.0,0.0,0.0,0.0,0.0,0.0,0.0,0.0,0.0,0.0,0.0,0.0,0.0,0.0,0.0,0.0,0.0,0.0,0.0,0.0,0.0,0.0,0.0,0.0,0.0,0.0,0.0,0.0,0.0,0.0,0.0,0.0,0.0,0.0,0.0,0.0,0.0,0.0,0.0,0.0,0.0,0.0,0.0,0.0,0.0,0.0,0.0,0.0,0.0,0.0,0.0,0.0,0.0,0.0,0.0,0.0,0.0,0.0,0.0,0.0,0.0,0.0,0.0,0.0,0.0,0.0,0.0,2.8678,2.873,2.8703,2.8678,2.7923,2.7142,0.0,0.0,0.0,0.0,0.0,0.0,0.0,0.0,0.0,0.0,0.0,0.0,0.0,0.0,0.0,0.0,0.0,0.0,0.0,0.0,0.0,0.0,0.0,0.0,0.0,0.0,0.0,0.0,0.0,0.0,0.0,0.0,0.0,0.0,0.0,0.0,0.0,0.0,0.0,0.0,0.0,0.0,0.0,0.0,0.0,0.0,0.0,0.0,0.0,0.0,0.0,0.0,0.0,0.0,0.0,0.0,0.0,0.0,0.0,0.0,0.0,0.0,0.0,0.0,0.0,0.0,0.0,0.0,0.0,0.0,0.0,0.0,0.0,0.0,0.0,0.0,0.0,0.0,0.0,0.0,0.0,0.0,0.0,0.0,0.0,0.0,0.0,0.0,0.0,0.0,0.0,0.0,0.0,0.0,0.0,0.0,0.0,0.0,0.0,0.0,0.0,0.0,0.0,0.0,0.0,0.0,0.0,0.0,0.0,2.9219,2.9168,2.9144,2.9239,2.8608,2.7837,2.6922,0.0,0.0,0.0,0.0,0.0,0.0,0.0,0.0,0.0,0.0,0.0,0.0,0.0,0.0,0.0,0.0,0.0,0.0,0.0,0.0,0.0,0.0,0.0,0.0,0.0,0.0,0.0,0.0,0.0,0.0,0.0,0.0,0.0,0.0,0.0,0.0,0.0,0.0,0.0,0.0,0.0,0.0,0.0,0.0,0.0,0.0,0.0,0.0,0.0,0.0,0.0,0.0,0.0,0.0,0.0,0.0,0.0,0.0,0.0,0.0,0.0,0.0,0.0,0.0,0.0,0.0,0.0,0.0,0.0,0.0,0.0,0.0,0.0,0.0,0.0,0.0,0.0,0.0,0.0,0.0,0.0,0.0,0.0,0.0,0.0,0.0,0.0,0.0,0.0,0.0,0.0,0.0,0.0,0.0,0.0,0.0,0.0,0.0,0.0,0.0,0.0,0.0,0.0,0.0,0.0,0.0,0.0,0.0,3.003,2.9688,2.9605,2.9809,2.9427,2.8776,0.0,0.0,0.0,0.0,0.0,0.0,0.0,0.0,0.0,0.0,0.0,0.0,0.0,0.0,0.0,0.0,0.0,0.0,0.0,0.0,0.0,0.0,0.0,0.0,0.0,0.0,0.0,0.0,0.0,0.0,0.0,0.0,0.0,0.0,0.0,0.0,0.0,0.0,0.0,0.0,0.0,0.0,0.0,0.0,0.0,0.0,0.0,0.0,0.0,0.0,0.0,0.0,0.0,0.0,0.0,0.0,0.0,0.0,0.0,0.0,0.0,0.0,0.0,0.0,0.0,0.0,0.0,0.0,0.0,0.0,0.0,0.0,0.0,0.0,0.0,0.0,0.0,0.0,0.0,0.0,0.0,0.0,0.0,0.0,0.0,0.0,0.0,0.0,0.0,0.0,0.0,0.0,0.0,0.0,0.0,0.0,0.0,0.0,0.0,0.0,0.0,0.0,0.0,0.0,0.0,0.0,0.0,0.0,0.0,3.0586,3.0559,3.0443,3.0306,2.9903,2.9051,0.0,0.0,0.0,0.0,0.0,0.0,0.0,0.0,0.0,0.0,0.0,0.0,0.0,0.0,0.0,0.0,0.0,0.0,0.0,0.0,0.0,0.0,0.0,0.0,0.0,0.0,0.0,0.0,0.0,0.0,0.0,0.0,0.0,0.0,0.0,0.0,0.0,0.0,0.0,0.0,0.0,0.0,0.0,0.0,0.0,0.0,0.0,0.0,0.0,0.0,0.0,0.0,0.0,0.0,0.0,0.0,0.0,0.0,0.0,0.0,0.0,0.0,0.0,0.0,0.0,0.0,0.0,0.0,0.0,0.0,0.0,0.0,0.0,0.0,0.0,0.0,0.0,0.0,0.0,0.0,0.0,0.0,0.0,0.0,0.0,0.0,0.0,0.0,0.0,0.0,0.0,0.0,0.0,0.0,0.0,0.0,0.0,0.0,0.0,0.0,0.0,0.0,0.0,0.0,0.0,0.0,0.0,0.0,2.9468,3.1079,3.123,3.1258,3.1216,3.0724,2.9827,0.0,0.0,0.0,0.0,0.0,0.0,0.0,0.0,0.0,0.0,0.0,0.0,0.0,0.0,0.0,0.0,0.0,0.0,0.0,0.0,0.0,0.0,0.0,0.0,0.0,0.0,0.0,0.0,0.0,0.0,0.0,0.0,0.0,0.0,0.0,0.0,0.0,0.0,0.0,0.0,0.0,0.0,0.0,0.0,0.0,0.0,0.0,0.0,0.0,0.0,0.0,0.0,0.0,0.0,0.0,0.0,0.0,0.0,0.0,0.0,0.0,0.0,0.0,0.0,0.0,0.0,0.0,0.0,0.0,0.0,0.0,0.0,0.0,0.0,0.0,0.0,0.0,0.0,0.0,0.0,0.0,0.0,0.0,0.0,0.0,0.0,0.0,0.0,0.0,0.0,0.0,0.0,0.0,0.0,0.0,0.0,0.0,0.0,0.0,0.0,0.0,0.0,0.0,0.0,0.0,0.0,0.0,0.0,2.9803,3.1386,3.1672,3.1938,3.2224,3.1743,3.0805,0.0,0.0,0.0,0.0,0.0,0.0,0.0,0.0,0.0,0.0,0.0,0.0,0.0,0.0,0.0,0.0,0.0,0.0,0.0,0.0,0.0,0.0,0.0,0.0,0.0,0.0,0.0,0.0,0.0,0.0,0.0,0.0,0.0,0.0,0.0,0.0,0.0,0.0,0.0,0.0,0.0,0.0,0.0,0.0,0.0,0.0,0.0,0.0,0.0,0.0,0.0,0.0,0.0,0.0,0.0,0.0,0.0,0.0,0.0,0.0,0.0,0.0,0.0,0.0,0.0,0.0,0.0,0.0,0.0,0.0,0.0,0.0,0.0,0.0,0.0,0.0,0.0,0.0,0.0,0.0,0.0,0.0,0.0,0.0,0.0,0.0,0.0,0.0,0.0,0.0,0.0,0.0,0.0,0.0,0.0,0.0,0.0,0.0,0.0,0.0,0.0,0.0,0.0,0.0,0.0,0.0,0.0,0.0,3.0533,3.1463,3.1737,3.2076,3.2515,3.2218,3.1196,0.0,0.0,0.0,0.0,0.0,0.0,0.0,0.0,0.0,0.0,0.0,0.0,0.0,0.0,0.0,0.0,0.0,0.0,0.0,0.0,0.0,0.0,0.0,0.0,0.0,0.0,0.0,0.0,0.0,0.0,0.0,0.0,0.0,0.0,0.0,0.0,0.0,0.0,0.0,0.0,0.0,0.0,0.0,0.0,0.0,0.0,0.0,0.0,2.596,0.0,0.0,0.0,0.0,0.0,0.0,0.0,0.0,0.0,0.0,0.0,0.0,0.0,0.0,0.0,0.0,0.0,0.0,0.0,0.0,0.0,0.0,0.0,0.0,0.0,0.0,0.0,0.0,0.0,0.0,0.0,0.0,0.0,0.0,0.0,0.0,0.0,0.0,0.0,0.0,0.0,0.0,0.0,0.0,0.0,0.0,0.0,0.0,0.0,0.0,0.0,0.0,0.0,0.0,0.0,0.0,0.0,0.0,0.0,3.1144,3.1896,3.2298,3.2691,3.306,3.2933,3.1954,0.0,0.0,0.0,0.0,0.0,0.0,0.0,0.0,0.0,0.0,0.0,0.0,0.0,0.0,0.0,0.0,0.0,0.0,0.0,0.0,0.0,0.0,0.0,0.0,0.0,0.0,0.0,0.0,0.0,0.0,0.0,0.0,0.0,0.0,0.0,0.0,0.0,0.0,0.0,0.0,0.0,0.0,0.0,0.0,0.0,0.0,0.0,0.0,0.0,0.0,0.0,0.0,0.0,0.0,0.0,0.0,0.0,0.0,0.0,0.0,0.0,0.0,0.0,0.0,0.0,0.0,0.0,0.0,0.0,0.0,0.0,0.0,0.0,0.0,0.0,0.0,0.0,0.0,0.0,0.0,0.0,0.0,0.0,0.0,0.0,0.0,0.0,0.0,0.0,0.0,0.0,0.0,0.0,0.0,0.0,0.0,0.0,0.0,0.0,0.0,0.0,0.0,0.0,0.0,0.0,0.0,0.0,3.0681,3.1633,3.2436,3.2964,3.3327,3.3596,3.3541,3.2621,3.0759,0.0,0.0,0.0,0.0,0.0,0.0,0.0,0.0,0.0,0.0,0.0,0.0,0.0,0.0,0.0,0.0,0.0,0.0,0.0,0.0,0.0,0.0,0.0,0.0,0.0,0.0,0.0,0.0,0.0,0.0,0.0,0.0,0.0,0.0,0.0,0.0,0.0,0.0,2.5242,2.6148,0.0,0.0,0.0,0.0,0.0,0.0,0.0,0.0,2.7333,0.0,0.0,0.0,0.0,0.0,0.0,0.0,0.0,0.0,0.0,0.0,0.0,0.0,0.0,0.0,0.0,0.0,0.0,0.0,0.0,0.0,0.0,0.0,0.0,0.0,0.0,0.0,0.0,0.0,0.0,0.0,0.0,0.0,0.0,0.0,0.0,0.0,0.0,0.0,0.0,0.0,0.0,0.0,0.0,0.0,0.0,0.0,0.0,0.0,0.0,0.0,0.0,0.0,0.0,0.0,0.0,3.0068,3.1039,3.1929,3.2717,3.3106,3.3372,3.3586,3.3229,3.2562,3.1616,0.0,0.0,0.0,0.0,0.0,0.0,0.0,0.0,0.0,0.0,0.0,0.0,0.0,0.0,0.0,0.0,0.0,0.0,0.0,0.0,0.0,0.0,0.0,0.0,0.0,0.0,0.0,0.0,0.0,0.0,0.0,0.0,0.0,0.0,0.0,0.0,0.0,0.0,0.0,2.6787,2.7693,0.0,0.0,0.0,0.0,0.0,0.0,0.0,0.0,2.7256,0.0,0.0,0.0,0.0,0.0,0.0,0.0,0.0,0.0,0.0,0.0,0.0,0.0,0.0,0.0,0.0,0.0,0.0,0.0,0.0,0.0,0.0,0.0,0.0,0.0,0.0,0.0,0.0,0.0,0.0,0.0,0.0,0.0,0.0,0.0,0.0,0.0,0.0,0.0,0.0,0.0,0.0,0.0,0.0,0.0,0.0,0.0,0.0,0.0,0.0,0.0,0.0,0.0,0.0,0.0,3.0623,3.1582,3.2499,3.3409,3.3855,3.4211,3.4397,3.3813,3.3172,0.0,0.0,0.0,0.0,0.0,0.0,0.0,0.0,0.0,0.0,0.0,0.0,0.0,0.0,0.0,0.0,0.0,0.0,0.0,0.0,0.0,0.0,0.0,0.0,0.0,0.0,0.0,0.0,0.0,0.0,0.0,0.0,0.0,0.0,0.0,0.0,0.0,0.0,0.0,0.0,2.7638,2.8395,2.8897,0.0,0.0,0.0,0.0,0.0,0.0,2.7883,2.7597,0.0,0.0,0.0,0.0,0.0,0.0,0.0,0.0,0.0,0.0,0.0,0.0,0.0,0.0,0.0,0.0,0.0,0.0,0.0,0.0,0.0,0.0,0.0,0.0,0.0,0.0,0.0,0.0,0.0,0.0,0.0,0.0,0.0,0.0,0.0,0.0,0.0,0.0,0.0,0.0,0.0,0.0,0.0,0.0,0.0,0.0,0.0,0.0,0.0,0.0,0.0,0.0,0.0,0.0,0.0,3.1145,3.2194,3.319,3.4127,3.4628,3.5005,3.5247,3.4401,3.3716,0.0,0.0,0.0,0.0,0.0,0.0,0.0,0.0,0.0,0.0,0.0,0.0,0.0,0.0,0.0,0.0,0.0,0.0,0.0,0.0,0.0,0.0,0.0,0.0,0.0,0.0,0.0,0.0,0.0,0.0,0.0,0.0,0.0,0.0,0.0,0.0,0.0,0.0,0.0,0.0,0.0,2.9189,2.9731,2.9882,0.0,0.0,0.0,0.0,2.8806,2.8476,0.0,0.0,0.0,0.0,0.0,0.0,0.0,0.0,0.0,0.0,0.0,0.0,0.0,0.0,0.0,0.0,0.0,0.0,0.0,0.0,0.0,0.0,0.0,0.0,0.0,0.0,0.0,0.0,0.0,0.0,0.0,0.0,0.0,0.0,0.0,0.0,0.0,0.0,0.0,0.0,0.0,0.0,0.0,0.0,0.0,0.0,0.0,0.0,0.0,0.0,0.0,0.0,0.0,0.0,0.0,0.0,3.1716,3.2892,3.3859,3.4665,3.4981,3.5271,3.5512,3.432,3.3529,0.0,0.0,0.0,0.0,0.0,0.0,0.0,0.0,0.0,0.0,0.0,0.0,0.0,0.0,0.0,0.0,0.0,0.0,0.0,0.0,0.0,0.0,0.0,0.0,0.0,0.0,0.0,0.0,0.0,0.0,0.0,0.0,0.0,0.0,0.0,0.0,0.0,0.0,0.0,0.0,0.0,3.0226,3.0752,3.1191,3.1352,0.0,0.0,3.0066,2.9204,2.9005,0.0,0.0,0.0,0.0,0.0,0.0,0.0,0.0,0.0,0.0,0.0,0.0,0.0,0.0,0.0,0.0,0.0,0.0,0.0,0.0,0.0,0.0,0.0,0.0,0.0,0.0,0.0,0.0,0.0,0.0,0.0,0.0,0.0,0.0,0.0,0.0,0.0,0.0,0.0,0.0,0.0,0.0,0.0,0.0,0.0,0.0,0.0,0.0,0.0,0.0,0.0,0.0,0.0,0.0,0.0,3.129,3.2264,3.3349,3.4414,3.5416,3.5596,3.5616,3.5556,3.4589,3.385,0.0,0.0,0.0,0.0,0.0,0.0,0.0,0.0,0.0,0.0,0.0,0.0,0.0,0.0,0.0,0.0,0.0,0.0,0.0,0.0,0.0,0.0,0.0,0.0,0.0,0.0,0.0,0.0,0.0,0.0,0.0,0.0,0.0,0.0,0.0,0.0,0.0,0.0,0.0,0.0,0.0,0.0,3.1717,3.2029,0.0,0.0,0.0,3.0977,3.0296,0.0,0.0,0.0,0.0,0.0,0.0,0.0,0.0,0.0,0.0,0.0,0.0,0.0,0.0,0.0,0.0,0.0,0.0,0.0,0.0,0.0,0.0,0.0,0.0,0.0,0.0,0.0,0.0,0.0,0.0,0.0,0.0,0.0,0.0,0.0,0.0,0.0,0.0,0.0,0.0,0.0,0.0,0.0,0.0,0.0,0.0,0.0,0.0,0.0,0.0,0.0,0.0,0.0,0.0,0.0,0.0,0.0,3.277,3.3838,3.4905,3.5967,3.6062,3.5895,3.5508,3.4787,0.0,0.0,0.0,0.0,0.0,0.0,0.0,0.0,0.0,0.0,0.0,0.0,0.0,0.0,0.0,0.0,0.0,0.0,0.0,0.0,0.0,0.0,0.0,0.0,0.0,0.0,0.0,2.3074,0.0,0.0,0.0,0.0,0.0,0.0,0.0,0.0,0.0,0.0,0.0,0.0,0.0,0.0,3.1479,3.2557,3.2796,3.2846,0.0,0.0,3.1915,3.1114,3.0531,2.9916,0.0,0.0,0.0,0.0,0.0,0.0,0.0,0.0,0.0,0.0,0.0,0.0,0.0,0.0,0.0,0.0,0.0,0.0,0.0,0.0,0.0,0.0,0.0,0.0,0.0,0.0,0.0,0.0,0.0,0.0,0.0,0.0,0.0,0.0,0.0,0.0,0.0,0.0,0.0,0.0,0.0,0.0,0.0,0.0,0.0,0.0,0.0,0.0,0.0,0.0,0.0,0.0,0.0,0.0,0.0,3.3273,3.4473,3.5403,3.5992,3.6252,3.6095,3.5508,3.4787,3.4126,0.0,0.0,0.0,0.0,0.0,0.0,0.0,0.0,0.0,0.0,0.0,0.0,0.0,0.0,0.0,0.0,0.0,0.0,0.0,0.0,0.0,0.0,0.0,0.0,0.0,0.0,0.0,0.0,0.0,0.0,0.0,0.0,0.0,0.0,0.0,0.0,0.0,0.0,0.0,0.0,0.0,3.2601,3.3163,3.3668,3.3804,0.0,0.0,3.2965,3.1266,3.0966,3.0679,2.9937,0.0,0.0,0.0,0.0,0.0,0.0,0.0,0.0,0.0,0.0,0.0,0.0,0.0,0.0,0.0,0.0,0.0,0.0,0.0,0.0,0.0,0.0,0.0,0.0,0.0,0.0,0.0,0.0,0.0,0.0,0.0,0.0,0.0,0.0,0.0,0.0,0.0,0.0,0.0,0.0,0.0,0.0,0.0,0.0,0.0,0.0,0.0,0.0,0.0,0.0,0.0,0.0,0.0,3.3299,3.4221,3.5192,3.5872,3.6216,3.6334,3.5942,3.5018,3.4724,3.4154,0.0,0.0,0.0,0.0,0.0,0.0,0.0,0.0,0.0,0.0,0.0,0.0,0.0,0.0,0.0,0.0,0.0,0.0,0.0,0.0,0.0,0.0,0.0,0.0,0.0,0.0,0.0,0.0,2.6383,2.6918,2.7868,0.0,0.0,0.0,0.0,0.0,0.0,0.0,0.0,0.0,0.0,3.3003,3.3685,3.3928,0.0,0.0,3.3367,3.2866,3.183,3.1522,3.1231,3.0643,3.0251,0.0,0.0,0.0,0.0,0.0,0.0,0.0,0.0,0.0,0.0,0.0,0.0,0.0,0.0,0.0,0.0,0.0,0.0,0.0,0.0,0.0,0.0,0.0,0.0,0.0,0.0,0.0,0.0,0.0,0.0,0.0,0.0,0.0,0.0,0.0,0.0,0.0,0.0,0.0,0.0,0.0,0.0,0.0,0.0,0.0,0.0,0.0,0.0,0.0,0.0,0.0,0.0,3.3978,3.4912,3.5622,3.6134,3.6393,3.6405,3.5879,3.4753,3.4692,3.4198,0.0,0.0,0.0,0.0,0.0,0.0,0.0,0.0,0.0,0.0,0.0,0.0,0.0,0.0,0.0,0.0,0.0,0.0,0.0,0.0,0.0,0.0,0.0,0.0,0.0,0.0,0.0,0.0,2.7852,2.8396,2.8929,0.0,0.0,0.0,0.0,0.0,0.0,0.0,0.0,0.0,0.0,3.3689,3.4238,3.4346,3.4225,3.3866,3.3494,3.3022,3.2313,3.1987,3.1714,3.1379,0.0,0.0,0.0,0.0,0.0,0.0,0.0,0.0,0.0,0.0,0.0,0.0,0.0,0.0,0.0,0.0,0.0,0.0,0.0,0.0,0.0,0.0,0.0,0.0,0.0,0.0,0.0,3.2752,0.0,0.0,3.1322,0.0,0.0,0.0,0.0,0.0,0.0,0.0,0.0,0.0,0.0,0.0,0.0,0.0,0.0,0.0,0.0,0.0,0.0,0.0,0.0,0.0,0.0,3.4395,3.5181,3.5753,3.6134,3.6381,3.6405,3.5867,3.4778,3.4692,3.4187,3.314,0.0,0.0,0.0,0.0,0.0,0.0,0.0,0.0,0.0,0.0,0.0,0.0,0.0,0.0,0.0,0.0,0.0,0.0,0.0,0.0,0.0,0.0,0.0,0.0,0.0,0.0,2.8712,2.9631,3.0225,0.0,0.0,0.0,0.0,0.0,0.0,0.0,0.0,0.0,0.0,3.3979,3.4751,3.4775,3.5017,3.492,3.421,3.4075,3.3715,3.2677,3.2315,3.2085,0.0,0.0,0.0,0.0,0.0,0.0,0.0,0.0,0.0,0.0,0.0,0.0,0.0,0.0,0.0,0.0,0.0,0.0,0.0,0.0,0.0,0.0,0.0,0.0,0.0,0.0,0.0,3.4658,3.4529,0.0,0.0,0.0,0.0,0.0,0.0,0.0,0.0,0.0,0.0,0.0,3.6247,3.6628,0.0,0.0,0.0,0.0,0.0,0.0,0.0,0.0,0.0,0.0,0.0,0.0,3.5193,3.5962,3.6188,3.6324,3.6393,3.6405,3.6029,3.5269,3.4867,3.4187,3.3129,0.0,0.0,0.0,0.0,0.0,0.0,0.0,0.0,0.0,0.0,0.0,0.0,0.0,0.0,0.0,0.0,0.0,0.0,0.0,0.0,0.0,0.0,0.0,0.0,0.0,2.9591,0.0,0.0,0.0,0.0,0.0,0.0,0.0,0.0,0.0,0.0,0.0,3.4039,3.4609,3.5379,3.5673,3.5151,3.5442,3.5451,0.0,0.0,0.0,0.0,0.0,0.0,0.0,0.0,0.0,0.0,0.0,0.0,0.0,0.0,3.4654,3.3892,3.3767,3.3817,3.3906,0.0,0.0,0.0,0.0,0.0,0.0,0.0,0.0,0.0,0.0,0.0,0.0,0.0,0.0,3.6455,0.0,3.5667,0.0,0.0,0.0,0.0,0.0,0.0,0.0,0.0,3.7407,3.7904,3.7991,3.8379,3.8467,0.0,3.8552,3.7535,0.0,0.0,0.0,0.0,0.0,0.0,0.0,0.0,3.5805,3.6486,3.6593,3.664,3.664,3.664,3.6341,3.567,3.486,3.4011,3.3104,3.2717,3.2505,0.0,0.0,0.0,0.0,0.0,0.0,0.0,0.0,0.0,0.0,0.0,0.0,0.0,0.0,0.0,0.0,0.0,0.0,0.0,0.0,0.0,0.0,0.0,3.0835,0.0,0.0,0.0,0.0,0.0,0.0,0.0,0.0,0.0,3.4351,3.4787,3.5416,3.6069,3.6382,3.6345,3.5819,0.0,0.0,0.0,0.0,0.0,0.0,0.0,3.5452,3.562,3.6094,3.6591,3.6849,3.7054,3.7184,3.7311,0.0,0.0,3.5626,3.5529,3.5684,3.5761,3.5625,3.5421,3.5197,3.4872,3.4544,0.0,0.0,0.0,0.0,0.0,0.0,0.0,0.0,3.8409,3.8249,0.0,3.7412,0.0,0.0,0.0,0.0,0.0,3.6744,0.0,0.0,3.8655,3.907,3.936,3.9842,3.9994,3.9734,3.9746,3.9438,3.8774,3.7284,0.0,0.0,0.0,0.0,0.0,0.0,3.6199,3.6721,3.6931,3.7097,3.7097,3.7097,3.6699,3.5883,3.4634,3.3707,3.3165,3.3101,3.309,3.3101,3.2541,0.0,0.0,0.0,0.0,0.0,0.0,0.0,0.0,0.0,0.0,0.0,0.0,0.0,0.0,0.0,0.0,0.0,0.0,0.0,0.0,3.159,0.0,0.0,0.0,0.0,0.0,0.0,0.0,0.0,0.0,0.0,3.624,3.6357,3.6626,3.7181,0.0,0.0,0.0,0.0,3.6272,3.574,3.6098,3.6393,3.6226,3.6393,3.656,3.6573,0.0,0.0,3.8299,3.8423,3.8517,3.8775,3.8779,3.8354,3.6894,3.6621,3.6698,3.6889,3.6488,3.6185,3.6321,3.5952,3.5583,4.0388,0.0,0.0,0.0,0.0,3.9353,3.9446,3.9576,3.9208,3.888,3.8617,3.8015,0.0,0.0,0.0,0.0,0.0,0.0,3.8517,3.8956,3.9512,3.9893,4.0185,4.0516,4.0629,4.0575,4.0751,4.076,4.054,3.9557,3.8501,3.7448,0.0,0.0,0.0,0.0,3.6838,3.6966,3.7062,3.7108,3.7108,3.7108,3.6711,3.5932,3.4975,3.4248,3.3671,3.3316,3.3126,3.309,3.2928,0.0,0.0,0.0,0.0,0.0,0.0,0.0,0.0,0.0,0.0,0.0,0.0,0.0,0.0,0.0,0.0,0.0,0.0,0.0,3.3222,3.3176,3.3303,0.0,0.0,0.0,0.0,0.0,0.0,0.0,0.0,0.0,3.8299,3.7927,3.7707,0.0,0.0,3.7442,3.6872,3.7084,3.7059,3.6522,3.7247,0.0,3.775,3.7815,3.7933,3.8115,3.8445,3.8851,3.9246,3.9323,3.9349,3.9438,3.9451,3.9275,3.8885,3.8425,3.8168,3.8195,3.7649,3.7171,3.7209,3.6686,3.6156,4.2032,4.0645,3.9931,3.9907,4.0291,4.0204,4.0272,4.0402,4.0069,3.979,3.95,3.9145,3.8804,3.8491,3.8165,0.0,0.0,0.0,3.9323,3.9803,4.0096,4.0389,4.0643,4.082,4.0959,4.106,4.121,4.1299,4.1273,4.0561,3.9803,3.896,0.0,0.0,3.7455,3.733,3.7273,3.7285,3.7378,3.7413,3.7424,3.7227,3.6711,3.592,3.5127,3.4463,3.3922,3.3391,3.3126,3.3126,3.3126,3.3126,0.0,0.0,0.0,0.0,0.0,0.0,0.0,0.0,0.0,0.0,0.0,3.3119,3.3696,0.0,0.0,0.0,3.4108,3.4476,3.4489,3.4675,0.0,0.0,0.0,0.0,0.0,0.0,0.0,3.8518,3.8682,3.891,3.9389,3.9036,3.8774,3.8902,3.8605,3.8091,3.738,0.0,3.7419,3.6886,3.7522,3.8159,3.8381,3.8521,3.8725,3.9103,3.9335,3.9516,3.9658,3.971,3.971,3.971,3.971,3.971,3.971,3.9375,3.908,3.8869,3.8264,3.7717,3.7505,3.6901,3.6405,4.3572,4.2945,4.1632,4.1176,4.1339,4.1034,4.0934,4.0909,4.0909,4.0744,4.0517,4.0504,4.0096,3.9347,3.8578,0.0,3.9398,3.9372,3.9816,4.0529,4.0529,4.0669,4.0934,4.0934,4.106,4.1299,4.1299,4.1299,4.1285,4.075,4.0475,4.0437,3.8948,3.8179,3.8114,3.7826,3.7658,3.758,3.7837,3.7929,3.7854,3.7366,3.6736,3.5996,3.5191,3.4502,3.3983,3.3481,3.3201,3.3115,3.314,3.314,3.3126,0.0,0.0,0.0,0.0,0.0,0.0,0.0,0.0,0.0,0.0,0.0,0.0,0.0,0.0,0.0,3.5108,0.0,3.5402,3.6131,0.0,0.0,0.0,3.7615,3.8119,3.8423,3.8788,3.9273,0.0,0.0,3.971,3.971,3.971,3.971,3.9245,3.868,3.8165,3.7867,3.7519,3.7121,3.7444,3.7966,3.8512,3.8791,3.9144,3.9545,3.971,3.9697,3.971,3.971,3.971,3.971,3.971,3.971,3.971,3.9671,3.9521,3.8994,3.8404,3.7814,3.7325,3.6783,3.6405,4.3834,4.3624,4.2814,4.2305,4.1938,4.1444,4.1085,4.0909,4.0909,4.0744,4.0504,4.0504,4.0402,4.021,3.9994,3.9994,4.021,4.021,4.0401,4.0795,4.0808,4.0946,4.1211,4.1224,4.1223,4.1299,4.1299,4.1299,4.1285,4.1155,4.1076,4.1038,4.0248,3.9627,3.9225,3.914,3.8877,3.8422,3.8492,3.8225,3.7612,3.7297,3.6903,3.6506,3.5734,3.5043,3.4539,3.4399,3.3922,3.3165,3.347,3.3531,3.3126,3.3481,0.0,0.0,0.0,0.0,0.0,0.0,0.0,0.0,0.0,3.4564,3.4714,0.0,3.5805,0.0,3.6185,3.69,3.7302,3.7503,0.0,0.0,3.8154,3.8567,3.8717,3.9143,3.9469,3.9595,3.9658,3.971,3.971,3.971,3.971,3.9672,3.9233,3.8831,3.8718,3.8642,3.8529,3.8429,3.8767,3.9256,3.9331,3.9458,3.9521,3.9685,3.971,3.971,3.971,3.971,3.971,3.971,3.971,3.971,3.971,3.971,3.9509,3.8994,3.8429,3.7839,3.7324,3.6783,3.6405,4.4251,4.4199,4.365,4.3219,4.2918,4.2304,4.1836,4.1487,4.1487,4.1243,4.0846,4.0745,4.0669,4.0669,4.0542,4.0555,4.0669,4.0669,4.082,4.1072,4.1072,4.116,4.1299,4.1299,4.1299,4.1299,4.1299,4.1299,4.1299,4.1299,4.1299,4.1273,4.0972,4.0658,4.0332,3.9874,3.9288,3.8698,3.8463,3.8025,3.7343,3.7166,3.6933,3.6568,3.5877,3.5369,3.5056,3.4828,3.4449,3.3872,3.4098,3.4112,3.3822,3.4087,3.4274,0.0,0.0,0.0,0.0,0.0,0.0,0.0,0.0,0.0,0.0,0.0,3.696,3.6635,3.7449,3.8077,3.8366,3.8743,3.8919,3.8931,3.9247,3.9436,3.9436,3.9586,3.971,3.971,3.971,3.971,3.971,3.971,3.971,3.971,3.9459,3.917,3.8944,3.8906,3.8818,3.8555,3.8756,3.9057,3.9296,3.9559,3.971,3.971,3.971,3.971,3.971,3.971,3.971,3.971,3.971,3.971,3.971,3.971,3.9534,3.8994,3.8441,3.7851,3.7311,3.6771,3.6405,4.4721,4.4643,4.4212,4.4017,4.3951,4.3428,4.2866,4.2291,4.2291,4.1964,4.1403,4.1086,4.0959,4.0934,4.0707,4.0719,4.0959,4.0959,4.1085,4.1299,4.1299,4.1299,4.1299,4.1299,4.1299,4.1299,4.1299,4.1299,4.1299,4.1299,4.1299,4.1299,4.1299,4.1299,4.1247,4.0318,3.9508,3.8945,3.8397,3.7866,3.7313,3.7327,3.7053,3.6517,3.5994,3.5633,3.5508,3.5118,3.484,3.4739,3.484,3.4879,3.4792,3.4954,3.5015,0.0,3.5079,0.0,0.0,0.0,0.0,0.0,0.0,0.0,0.0,3.7801,3.814,3.8216,3.8718,3.9057,3.9057,3.9715,4.016,4.0147,4.016,4.0147,4.0147,3.9955,3.9787,3.9736,3.9749,3.9749,3.971,3.971,3.971,3.971,3.9672,3.9509,3.9107,3.9044,3.8856,3.8291,3.8241,3.868,3.9032,3.9434,3.971,3.971,3.971,3.971,3.971,3.971,3.971,3.971,3.971,3.971,3.971,3.971,3.9546,3.9107,3.8504,3.7839,3.7299,3.6758,3.6418,4.4721,4.4695,4.4604,4.4538,4.4552,4.4434,4.378,4.2853,4.2853,4.2526,4.199,4.1457,4.1236,4.121,4.1186,4.116,4.121,4.1236,4.1274,4.1299,4.1299,4.1299,4.1299,4.1299,4.1299,4.1299,4.1299,4.1299,4.1299,4.1299,4.1299,4.1299,4.1299,4.1299,4.1285,0.0,0.0,0.0,3.9535,3.9035,3.8503,3.8479,3.8007,3.7072,3.6947,0.0,3.5558,3.5869,3.5641,3.4803,3.5591,0.0,0.0,0.0,0.0,0.0,0.0,0.0,0.0,0.0,0.0,0.0,3.8253,3.8266,3.7914,3.8366,3.8919,3.9333,3.9663,3.988,3.988,4.0211,4.044,4.0415,4.0415,4.0427,4.0402,4.0389,4.0262,4.0045,4.0019,3.9942,3.9724,3.971,3.971,3.971,3.971,3.9647,3.9546,3.9509,3.9509,3.9396,3.9295,3.9371,3.9534,3.9622,3.971,3.971,3.971,3.971,3.971,3.971,3.971,3.971,3.971,3.971,3.971,3.971,3.966,3.9559,3.8718,3.7839,3.7299,3.6795,3.6405,4.5139,0.0,4.4825,4.4721,0.0,4.4721,4.4381,4.382,4.3572,4.3127,4.2579,4.2291,4.2148,4.2121,4.1873,4.1742,4.1716,4.1455,4.1299,4.1299,4.1299,4.1299,4.1299,4.1299,4.1299,4.1299,4.1299,4.1299,4.1299,4.1299,4.1299,4.1299,4.1299,4.1299,4.1299,4.1299,4.0998,4.0397,3.9765,3.9188,3.8798,3.8652,3.8306,3.765,3.7588,0.0,0.0,0.0,0.0,0.0,0.0,0.0,0.0,0.0,0.0,3.76,3.7876,3.8128,3.8429,3.8429,3.8555,3.8843,3.9511,3.96,3.8868,3.9234,3.96,3.9865,4.0134,4.03,4.0313,4.0542,4.0707,4.0694,4.0694,4.0707,4.0681,4.0567,4.0466,4.0313,4.0185,4.0045,3.9904,3.9787,3.971,3.971,3.971,3.971,3.971,3.971,3.971,3.971,3.971,3.9697,3.971,3.971,3.971,3.971,3.971,3.971,3.971,3.971,3.971,3.971,3.971,3.971,3.971,3.971,3.971,3.9635,3.9032,3.8404,3.8027,3.7185,3.6393,4.5754,4.5701,4.5113,4.4852,4.4852,4.4747,4.4721,4.4669,0.0,0.0,0.0,4.3062,4.301,4.2984,4.2539,4.2343,4.2317,4.1834,4.1599,4.1599,4.1599,4.1547,4.1481,4.1455,4.139,4.1311,4.1299,4.1299,4.1299,4.1299,4.1299,4.1299,4.1299,4.1299,4.1299,4.1299,4.105,4.0541,3.9902,3.9425,3.9106,3.8886,3.8576,3.8165,3.8165,3.8115,3.8002,3.799,3.799,3.8002,3.8103,3.8165,3.8165,3.8266,3.8304,3.8316,3.8304,3.8567,3.9145,3.9246,3.9524,4.0104,4.0741,4.0793,4.0041,4.0273,4.0453,4.0338,4.0568,4.0696,4.0593,4.082,4.0984,4.0959,4.0972,4.0984,4.0959,4.0782,4.0656,4.0555,4.0402,4.0198,4.0109,3.9904,3.9749,3.971,3.971,3.971,3.971,3.971,3.971,3.971,3.971,3.971,3.971,3.971,3.971,3.971,3.971,3.971,3.971,3.971,3.971,3.971,3.971,3.971,3.971,3.971,3.971,3.971,3.9258,3.8906,3.8781,3.7725,3.6733,4.6383,4.633,4.5727,4.5478,4.5452,4.493,4.4721,4.4669,4.4134,4.3846,4.3742,4.3219,4.301,4.301,4.2931,4.2905,4.2879,4.2788,4.2762,4.2762,4.2762,4.2526,4.2081,4.2081,4.1807,4.1338,4.1299,4.1299,4.1299,4.1299,4.1299,4.1311,4.1299,4.1299,4.1299,4.1299,4.1259,4.1181,4.1065,4.0751,4.0273,4.021,3.974,3.8818,3.8756,3.8529,3.804,3.8002,3.799,3.8015,3.8479,3.8768,3.8793,3.9208,3.9471,3.9446,3.9446,3.9697,4.0249,4.0497,4.0972,4.1757,4.195,4.1771,4.1246,4.1631,4.1721,4.1285,4.1467,4.1401,4.0948,4.1098,4.1275,4.1249,4.1249,4.1249,4.121,4.1199,4.1086,4.0883,4.0833,4.0567,4.0224,4.0083,3.9942,3.9774,3.9723,3.971,3.971,3.971,3.971,3.971,3.971,3.971,3.971,3.971,3.971,3.971,3.971,3.971,3.971,3.971,3.971,3.971,3.971,3.971,3.971,3.971,3.971,3.9672,3.9296,3.8982,3.8957,3.8291,3.7625,4.6929,4.6851,4.6316,4.6067,4.6055,4.544,4.4996,4.4695,4.4421,4.4316,4.4304,4.4055,4.3911,4.3885,4.3624,4.348,4.348,4.3141,4.301,4.301,4.301,4.2879,4.2657,4.2631,4.2474,4.2213,4.2213,4.2226,4.2226,4.2226,4.2069,4.1781,4.1468,4.1299,4.1299,4.1299,4.1299,4.1299,4.1147,4.0959,4.0719,4.0415,4.0033,3.955,3.9423,3.9208,3.8944,3.8919,3.8919,3.8919,3.9183,3.9346,3.9333,3.9572,3.9823,4.0099,4.0267,4.0611,4.1166,4.1456,4.1848,4.2381,4.273,4.2874,4.2787,4.2539,4.2304,4.2073,4.2307,4.2346,4.2047,4.1888,4.1794,4.1781,4.1494,4.1299,4.1299,4.1299,4.1261,4.1122,4.0984,4.0808,4.058,4.0287,4.007,3.9916,3.9801,3.971,3.971,3.971,3.971,3.971,3.971,3.971,3.971,3.971,3.971,3.971,3.971,3.971,3.971,3.971,3.971,3.971,3.971,3.971,3.971,3.971,3.971,3.9685,3.9534,3.9333,3.9271,3.8881,3.8228,4.749,4.7464,4.6917,4.6618,4.6475,4.5989,4.5452,4.493,4.4904,4.4825,4.4721,4.4721,4.4721,4.4669,4.4251,4.4082,4.4003,4.3585,4.3389,4.3402,4.3389,4.3323,4.3232,4.3206,4.3141,4.301,4.301,4.301,4.301,4.301,4.2775,4.2356,4.1925,4.1703,4.1691,4.1677,4.1677,4.1665,4.1487,4.1205,4.0896,4.0491,4.0275,4.0173,3.9916,3.98,3.98,3.9736,3.971,3.971,3.9823,3.9912,3.9963,4.0102,4.038,4.0849,4.1072,4.1497,4.2098,4.2477,4.2768,4.3046,4.3488,4.3854,4.4016,4.3465,4.3008,4.293,4.3075,4.3141,4.2945,4.2631,4.2369,4.2343,4.199,4.1743,4.1703,4.1703,4.1638,4.1534,4.1331,4.1152,4.0884,4.0555,4.0262,4.0096,3.9852,3.971,3.971,3.971,3.971,3.971,3.971,3.971,3.971,3.971,3.971,3.971,3.971,3.971,3.971,3.971,3.971,3.971,3.971,3.971,3.971,3.971,3.971,3.971,3.966,3.9685,3.9635,3.922,3.8592,4.8134,4.803,4.7478,4.6929,4.6554,4.6435,4.6081,4.5557,4.5505,4.5191,4.4799,4.4721,4.4721,4.4695,4.4616,4.4604,4.4604,4.4564,4.4512,4.4512,4.4538,4.429,4.386,4.382,4.3533,4.3075,4.3049,4.3114,4.3114,4.3049,4.2984,4.2918,4.2866,4.2788,4.2827,4.2814,4.2814,4.2853,4.2827,4.2176,4.0973,4.0832,4.0719,4.0453,4.0198,4.0045,4.0083,3.9814,3.971,3.9747,4.0212,4.0543,4.0791,4.13,4.1724,4.2,4.2066,4.2429,4.3275,4.3832,4.4173,4.4457,4.4484,4.4563,4.4604,4.4537,4.429,4.3911,4.3781,4.3598,4.3088,4.2945,4.2931,4.2931,4.2801,4.284,4.2775,4.284,4.2644,4.216,4.2056,4.1797,4.1179,4.0936,4.0631,4.0236,3.9916,3.9736,3.971,3.971,3.971,3.971,3.971,3.971,3.971,3.971,3.971,3.971,3.971,3.971,3.971,3.971,3.971,3.971,3.971,3.971,3.971,3.971,3.971,3.971,3.971,3.971,3.966,3.9308,3.8705,4.8736,4.8669,4.8094,4.7504,4.7008,4.6955,4.6656,4.6159,4.6119,4.5976,4.5794,4.5767,4.5362,4.4721,4.4721,4.4721,4.4721,4.4721,4.4721,4.4721,4.4721,4.4564,4.4395,4.4382,4.4238,4.4029,4.3989,4.3989,4.3963,4.3676,4.3533,4.3507,4.318,4.301,4.301,4.301,4.301,4.301,4.301,4.2723,4.2163,4.1659,4.1207,4.0783,4.0466,4.0517,4.0824,4.0759,4.0847,4.1139,4.1393,4.1534,4.1666,4.1896,4.223,4.2644,4.3164,4.3651,4.418,4.4428,4.4573,4.4721,4.4721,4.4721,4.4721,4.4721,4.459,4.4421,4.4382,4.4264,4.4003,4.3729,4.3533,4.348,4.3232,4.301,4.301,4.301,4.2879,4.2709,4.2696,4.2566,4.215,4.1736,4.1235,4.0669,4.0234,3.9954,3.9749,3.971,3.971,3.971,3.971,3.971,3.971,3.971,3.971,3.971,3.971,3.971,3.971,3.971,3.971,3.971,3.971,3.971,3.971,3.971,3.971,3.971,3.971,3.971,3.971,3.9534,3.9258,4.9337,4.9232,4.8683,4.8094,4.7556,4.7542,4.7217,4.6775,4.6708,4.663,4.6527,4.6527,4.6029,4.5257,4.5008,4.4852,4.4721,4.4721,4.4721,4.4721,4.4721,4.4721,4.4721,4.4721,4.4721,4.4721,4.4695,4.4695,4.4669,4.433,4.4108,4.4042,4.3689,4.348,4.3454,4.3467,4.348,4.348,4.348,4.3389,4.3193,4.2684,4.2086,4.1516,4.1221,4.1299,4.1672,4.1672,4.1786,4.2183,4.2324,4.2466,4.2559,4.27,4.2971,4.3438,4.4066,4.4504,4.4707,4.4721,4.4721,4.4721,4.4721,4.4721,4.4721,4.4721,4.4721,4.4695,4.4721,4.4695,4.4656,4.4356,4.4134,4.4082,4.3689,4.348,4.3506,4.3467,4.3454,4.3271,4.3258,4.3154,4.2945,4.2411,4.1841,4.1451,4.0936,4.0399,4.0104,3.9988,3.9898,3.9709,3.971,3.971,3.971,3.971,3.971,3.971,3.971,3.971,3.971,3.971,3.971,3.971,3.971,3.971,3.971,3.971,3.971,3.971,3.971,3.971,3.971,3.9672,3.9672,4.986,4.9782,4.9285,4.871,4.8175,4.8161,4.7832,4.7255,4.7255,4.7008,4.6618,4.658,4.6487,4.6356,4.5832,4.5269,4.4799,4.4799,4.4825,4.4799,4.4799,4.4747,4.4721,4.4721,4.4721,4.4799,4.4799,4.4747,4.4708,4.4669,4.4669,4.4643,4.4564,4.459,4.4538,4.4512,4.4616,4.4512,4.4512,4.4343,4.3925,4.3807,4.3467,4.2919,4.2606,4.2449,4.2539,4.2303,4.2222,4.2248,4.2722,4.3137,4.3432,4.3911,4.4265,4.4548,4.4654,4.4668,4.4681,4.4721,4.4721,4.4721,4.4721,4.4721,4.4721,4.4721,4.4721,4.4721,4.4721,4.4721,4.4721,4.463,4.459,4.4616,4.4616,4.4552,4.4564,4.446,4.4343,4.3977,4.3846,4.3676,4.3167,4.2762,4.2605,4.2382,4.2014,4.1479,4.0931,4.062,4.0314,3.9923,3.9747,3.971,3.971,3.971,3.971,3.971,3.971,3.971,3.971,3.971,3.971,3.971,3.971,3.971,3.971,3.971,3.971,3.971,3.971,3.971,3.971,3.971,3.971,5.0252,4.9886,4.9703,4.9285,4.8788,4.8788,4.8448,4.7899,4.787,4.7754,4.7611,4.7559,4.7362,4.6994,4.6785,4.6367,4.5872,4.5846,4.5846,4.5846,4.5846,4.5846,4.586,4.586,4.5623,4.5322,4.5269,4.506,4.4721,4.4721,4.4721,4.4721,4.4721,4.4721,4.4721,4.4721,4.4721,4.4721,4.4721,4.4604,4.4421,4.4421,4.429,4.4068,4.3284,4.3023,4.3427,4.3347,4.3436,4.3787,4.3981,4.4165,4.4285,4.4441,4.4612,4.4681,4.4721,4.4721,4.4721,4.4721,4.4721,4.4721,4.4721,4.4721,4.4721,4.4721,4.4721,4.4721,4.4721,4.4721,4.4721,4.4721,4.4721,4.4721,4.4721,4.4721,4.4721,4.4695,4.459,4.4434,4.4395,4.4316,4.4028,4.3714,4.3373,4.3136,4.2679,4.2118,4.1647,4.1386,4.1064,4.0414,4.0224,4.0099,3.971,3.971,3.971,3.971,3.971,3.971,3.971,3.971,3.971,3.971,3.971,3.971,3.971,3.971,3.971,3.971,3.971,3.971,3.971,3.971,3.971,5.0723,5.0252,5.0185,4.986,4.9363,4.9363,4.9023,4.8527,4.8474,4.8396,4.8239,4.8187,4.7977,4.7635,4.7594,4.7414,4.701,4.671,4.6501,4.6527,4.6527,4.6527,4.6527,4.6527,4.6304,4.5936,4.591,4.5649,4.5335,4.5283,4.5179,4.5008,4.4982,4.4864,4.4747,4.4721,4.4721,4.4721,4.4721,4.4695,4.4721,4.4721,4.4721,4.459,4.3951,4.3729,4.416,4.416,4.4304,4.4643,4.4721,4.4721,4.4721,4.4721,4.4721,4.4721,4.4721,4.4721,4.4721,4.4721,4.4721,4.4721,4.4721,4.4721,4.4721,4.4721,4.4721,4.4721,4.4721,4.4721,4.4721,4.4721,4.4721,4.4721,4.4721,4.4721,4.4721,4.4721,4.4721,4.4695,4.4669,4.4695,4.4669,4.4369,4.4105,4.3905,4.3448,4.2936,4.2476,4.2144,4.1793,4.11,4.0842,4.0526,4.0199,4.0074,3.9873,3.9823,3.971,3.971,3.971,3.971,3.971,3.971,3.971,3.971,3.971,3.971,3.971,3.971,3.971,3.971,3.971,3.971,3.971,5.1282,5.0827,5.0801,5.0446,4.9965,4.9912,4.9599,4.9154,4.9102,4.8803,4.837,4.8265,4.8239,4.8161,4.8094,4.8134,4.7873,4.7103,4.671,4.6684,4.6658,4.6644,4.6658,4.671,4.6632,4.6487,4.6461,4.6475,4.6356,4.6304,4.6095,4.5687,4.5623,4.5388,4.4773,4.4891,4.4825,4.4852,4.4852,4.4773,4.4721,4.4721,4.4721,4.4721,4.4616,4.459,4.4695,4.4682,4.4643,4.4695,4.4721,4.4721,4.4773,4.4852,4.4799,4.4852,4.4799,4.4773,4.4799,4.4799,4.4799,4.4799,4.4747,4.4721,4.4721,4.4721,4.4721,4.4721,4.4721,4.4721,4.4721,4.4721,4.4721,4.4721,4.4721,4.4721,4.4721,4.4721,4.4721,4.4721,4.4721,4.4721,4.4721,4.4643,4.4563,4.4483,4.4308,4.3938,4.3441,4.3001,4.2461,4.1907,4.1557,4.1222,4.0842,4.0501,4.0199,3.9948,3.9772,3.971,3.971,3.971,3.971,3.971,3.971,3.971,3.971,3.971,3.971,3.971,3.971,3.971,3.971,3.971,3.971,5.1492,5.1361,5.1361,5.1021,5.054,5.0524,5.0185,4.9677,4.9636,4.9337,4.8893,4.8814,4.859,4.8265,4.8187,4.8213,4.8161,4.7794,4.7678,4.7638,4.7638,4.7638,4.7638,4.7638,4.744,4.7034,4.667,4.6513,4.6554,4.6554,4.6383,4.6252,4.6212,4.6107,4.5912,4.5938,4.5924,4.5898,4.5505,4.5308,4.5269,4.4904,4.4721,4.4721,4.4721,4.4891,4.5269,4.493,4.4721,4.4747,4.4721,4.4878,4.5283,4.5715,4.5924,4.5924,4.5924,4.5938,4.5872,4.5544,4.5322,4.5243,4.4956,4.4747,4.4721,4.4721,4.4721,4.4721,4.4721,4.4721,4.4721,4.4721,4.4721,4.4721,4.4721,4.4721,4.4721,4.4721,4.4721,4.4721,4.4721,4.4721,4.4721,4.4721,4.4721,4.4721,4.46,4.4401,4.4093,4.3839,4.3372,4.2563,4.2285,4.1882,4.1358,4.1053,4.0877,4.045,4.0124,3.9898,3.9848,3.971,3.971,3.971,3.971,3.971,3.971,3.971,3.971,3.971,3.971,3.971,3.971,3.971,3.971,5.1936,5.191,5.1701,5.1429,5.1115,5.1115,5.076,5.0263,5.0252,4.9912,4.9494,4.9389,4.9206,4.884,4.8631,4.8527,4.85,4.8317,4.8187,4.8187,4.8187,4.8187,4.8187,4.8187,4.8015,4.7661,4.7298,4.7141,4.7115,4.7115,4.701,4.6839,4.6787,4.6656,4.6539,4.6527,4.6527,4.6435,4.6133,4.5936,4.5872,4.5571,4.5375,4.5401,4.5362,4.5558,4.5884,4.5544,4.5362,4.5362,4.5362,4.5571,4.5936,4.6278,4.6527,4.6527,4.6501,4.6501,4.6475,4.6107,4.5936,4.5832,4.5374,4.506,4.5008,4.4864,4.4721,4.4721,4.4721,4.4721,4.4721,4.4721,4.4721,4.4721,4.4721,4.4721,4.4721,4.4721,4.4721,4.4721,4.4721,4.4721,4.4721,4.4721,4.4721,4.4721,4.4707,4.4654,4.449,4.4341,4.3756,4.3274,4.2979,4.247,4.181,4.1605,4.1542,4.104,4.0551,4.0287,4.0136,3.9823,3.971,3.971,3.971,3.971,3.971,3.971,3.971,3.971,3.971,3.971,3.971,3.971,3.971,5.2537,5.2448,5.1884,5.1638,5.157,5.1544,5.1282,5.0906,5.0838,5.0498,5.0028,4.9965,4.9886,4.9755,4.9311,4.9143,4.9049,4.8683,4.8474,4.8448,4.8422,4.8396,4.8239,4.8187,4.8161,4.8108,4.8082,4.8108,4.8004,4.8004,4.7925,4.7385,4.7347,4.7112,4.6853,4.6658,4.6737,4.6763,4.6618,4.6539,4.6539,4.6435,4.6409,4.6383,4.637,4.6423,4.6499,4.6539,4.6539,4.6487,4.6409,4.6447,4.6525,4.6566,4.6737,4.6763,4.6632,4.671,4.6658,4.6604,4.6539,4.6487,4.6015,4.5609,4.5478,4.5113,4.4825,4.4721,4.4721,4.4721,4.4721,4.4721,4.4721,4.4721,4.4721,4.4721,4.4721,4.4721,4.4721,4.4721,4.4721,4.4721,4.4721,4.4721,4.4721,4.4721,4.4721,4.4668,4.4627,4.449,4.4231,4.3893,4.353,4.309,4.2466,4.221,4.2146,4.1882,4.1304,4.0902,4.0512,4.0136,3.9898,3.9873,3.9772,3.9747,3.971,3.971,3.971,3.971,3.971,3.971,3.971,3.971,3.971,5.2903,5.2485,5.2344,5.2014,5.1648,5.1596,5.1518,5.1387,5.1387,5.1047,5.0644,5.0566,5.0331,4.9912,4.9808,4.9688,4.9625,4.9494,4.9442,4.9468,4.9468,4.8919,4.8344,4.8187,4.8187,4.8187,4.8187,4.8187,4.8187,4.8187,4.8108,4.7977,4.7911,4.7899,4.7768,4.769,4.7742,4.769,4.7269,4.7086,4.7034,4.6722,4.6527,4.6527,4.6554,4.6708,4.7086,4.7533,4.7298,4.6606,4.6903,4.7072,4.7124,4.7466,4.7638,4.7638,4.769,4.773,4.7638,4.7336,4.7098,4.706,4.6564,4.6067,4.5609,4.5452,4.5139,4.4852,4.4721,4.4721,4.4721,4.4721,4.4721,4.4721,4.4721,4.4721,4.4721,4.4721,4.4721,4.4721,4.4721,4.4721,4.4721,4.4721,4.4721,4.4721,4.4721,4.4721,4.4668,4.4641,4.4435,4.4217,4.3905,4.3565,4.3227,4.2952,4.2752,4.2637,4.2171,4.1605,4.114,4.0625,4.0437,4.0312,4.0124,4.0049,3.9848,3.9735,3.9735,3.9772,3.971,3.971,3.971,3.971,3.971,5.353,5.3164,5.2694,5.2302,5.1936,5.1701,5.1596,5.1596,5.1596,5.1439,5.1178,5.1141,5.0943,5.0618,5.0368,5.0263,5.0237,5.0017,4.9886,4.9886,4.986,4.9363,4.871,4.837,4.8187,4.8187,4.8213,4.8187,4.8187,4.8187,4.8187,4.8161,4.8187,4.8187,4.8134,4.8187,4.8187,4.8134,4.7832,4.7661,4.7649,4.7402,4.7286,4.7219,4.7219,4.7388,4.7728,4.8015,4.7847,4.7402,4.7504,4.7661,4.7713,4.7989,4.8187,4.8187,4.8187,4.8187,4.8146,4.7858,4.7713,4.7583,4.7153,4.6706,4.6288,4.5949,4.54,4.5165,4.4878,4.4721,4.4721,4.4721,4.4721,4.4721,4.4721,4.4721,4.4721,4.4721,4.4721,4.4721,4.4721,4.4721,4.4721,4.4721,4.4721,4.4721,4.4721,4.4721,4.4707,4.4681,4.4613,4.4381,4.408,4.3699,4.3383,4.3095,4.2928,4.2864,4.2724,4.2222,4.1667,4.1127,4.0976,4.0789,4.0512,4.0287,4.0149,3.9998,3.9923,3.9898,3.9798,3.971,3.971,3.971,3.971,5.4262,5.4105,5.3128,5.2589,5.2406,5.1936,5.1701,5.1596,5.1596,5.1596,5.1544,5.1596,5.1492,5.1586,5.1021,5.088,5.0838,5.0446,5.0237,5.0185,5.0106,4.9782,4.9389,4.8814,4.8605,4.8527,4.837,4.8344,4.8344,4.8291,4.8187,4.8187,4.8187,4.8187,4.8187,4.8187,4.8187,4.8187,4.8134,4.8082,4.8082,4.8004,4.7977,4.7977,4.7977,4.8004,4.8108,4.8187,4.8134,4.8161,4.8187,4.812,4.8161,4.8187,4.8187,4.8187,4.8187,4.8187,4.8187,4.8161,4.8161,4.8015,4.7661,4.7374,4.7046,4.6419,4.5844,4.5505,4.5087,4.4878,4.4721,4.4721,4.4721,4.4721,4.4721,4.4721,4.4721,4.4721,4.4721,4.4721,4.4721,4.4721,4.4721,4.4721,4.4721,4.4721,4.4721,4.4721,4.4721,4.4721,4.4613,4.4476,4.4148,4.3791,4.3476,4.3198,4.3073,4.295,4.295,4.2598,4.2082,4.1667,4.1478,4.1291,4.1014,4.0814,4.0638,4.0487,4.0337,4.0124,4.0023,3.9886,3.9735,3.971,3.971,5.4654,5.4184,5.3922,5.3321,5.2563,5.2354,5.204,5.1622,5.1622,5.1596,5.1596,5.1596,5.1596,5.1612,5.1439,5.1413,5.1387,5.1204,5.123,5.1178,5.076,5.0592,5.0304,4.9808,4.9546,4.9374,4.9076,4.8919,4.8814,4.8527,4.8213,4.8265,4.837,4.8213,4.8265,4.8344,4.8213,4.8213,4.8239,4.8291,4.8317,4.8317,4.8317,4.8277,4.8277,4.8254,4.8213,4.8187,4.8187,4.8187,4.8239,4.8317,4.8213,4.8187,4.8187,4.8187,4.8187,4.8187,4.8187,4.8187,4.8187,4.8161,4.8041,4.7792,4.7333,4.7098,4.6431,4.587,4.5452,4.5217,4.4852,4.4721,4.4721,4.4721,4.4721,4.4721,4.4721,4.4721,4.4721,4.4721,4.4721,4.4721,4.4721,4.4721,4.4721,4.4721,4.4721,4.4721,4.4721,4.4721,4.4653,4.4544,4.4148,4.3819,4.3639,4.3335,4.3084,4.3,4.3,4.2975,4.2459,4.2183,4.2032,4.1806,4.1517,4.1341,4.1215,4.1102,4.0989,4.0638,4.0325,4.0224,4.0099,3.9948,3.9798,5.4916,5.4602,5.4314,5.387,5.3269,5.272,5.2302,5.1988,5.1701,5.1596,5.1596,5.1596,5.1596,5.1596,5.1596,5.1596,5.1596,5.1596,5.1596,5.1518,5.1256,5.1178,5.1141,5.0786,5.0472,4.9991,4.9625,4.9494,4.9363,4.918,4.9049,4.8997,4.8956,4.9061,4.8997,4.8971,4.9049,4.9035,4.8997,4.8997,4.8982,4.8997,4.8982,4.8982,4.8982,4.8997,4.9008,4.9008,4.9023,4.8997,4.8971,4.871,4.8291,4.8213,4.8213,4.8187,4.8187,4.8187,4.8187,4.8187,4.8187,4.8187,4.8187,4.8056,4.7713,4.749,4.7058,4.6523,4.6145,4.578,4.5191,4.4799,4.4747,4.4721,4.4721,4.4721,4.4721,4.4721,4.4721,4.4721,4.4721,4.4721,4.4721,4.4721,4.4721,4.4721,4.4721,4.4721,4.4721,4.4721,4.4721,4.4558,4.4162,4.3899,4.375,4.3459,4.307,4.3,4.3,4.3,4.2799,4.2663,4.2601,4.2361,4.2108,4.1996,4.1895,4.1781,4.1542,4.1127,4.0839,4.0688,4.0538,4.0412,4.0275,5.5099,5.5072,5.455,5.4288,5.4037,5.3191,5.2668,5.2406,5.1962,5.1727,5.1596,5.1596,5.1596,5.1596,5.1596,5.1596,5.1596,5.1596,5.1596,5.157,5.1544,5.1518,5.1492,5.1361,5.1047,5.0185,5.008,5.0054,5.0043,4.9938,4.9677,4.9834,4.986,4.9688,4.9808,4.9886,4.9755,4.9703,4.9703,4.9729,4.974,4.9755,4.974,4.9755,4.9729,4.9729,4.9729,4.9755,4.9834,4.9912,4.9912,4.9389,4.8762,4.8448,4.8396,4.8396,4.8396,4.8344,4.8213,4.8187,4.8187,4.8187,4.8187,4.8187,4.8041,4.7766,4.7438,4.7112,4.672,4.6252,4.578,4.544,4.5126,4.5074,4.5022,4.497,4.497,4.4904,4.4878,4.4721,4.4721,4.4721,4.4721,4.4721,4.4721,4.4721,4.4721,4.4721,4.4721,4.4721,4.4721,4.4572,4.419,4.3681,4.3501,4.3418,4.3056,4.3,4.3,4.3,4.3,4.2914,4.2813,4.2889,4.2749,4.2587,4.2436,4.2361,4.2032,4.1617,4.1378,4.1279,4.109,4.0914,4.0738,5.5099,5.5099,5.4994,5.468,5.421,5.3975,5.3347,5.2563,5.238,5.204,5.1622,5.1596,5.1596,5.1596,5.1596,5.1596,5.1596,5.1596,5.1596,5.1596,5.1596,5.1596,5.1596,5.1596,5.1413,5.1256,5.089,5.0644,5.0514,5.0185,5.0121,4.9965,5.0017,5.0017,5.0043,4.9912,5.0069,5.0121,5.0095,5.0095,5.0095,5.0069,5.0069,5.0069,5.0095,5.0069,5.0017,4.9938,4.9912,4.9912,4.9912,4.9834,4.9677,4.961,4.9389,4.9049,4.896,4.8788,4.8396,4.8239,4.8213,4.8187,4.8187,4.8187,4.8161,4.8082,4.7766,4.7333,4.6903,4.6461,4.6356,4.6107,4.6173,4.6147,4.6069,4.6069,4.599,4.5701,4.5296,4.5034,4.4878,4.4721,4.4721,4.4721,4.4721,4.4721,4.4721,4.4721,4.4721,4.4721,4.4721,4.4504,4.4243,4.3681,4.3196,4.3154,4.3,4.3,4.3,4.3,4.3,4.3,4.3,4.3,4.3,4.285,4.2813,4.2763,4.2562,4.2133,4.1996,4.1895,4.1681,4.1441,4.109,5.5099,5.5099,5.5099,5.4942,5.4654,5.4314,5.3739,5.2981,5.2642,5.2187,5.1769,5.1596,5.1596,5.1596,5.1596,5.1596,5.1596,5.1596,5.1596,5.1596,5.1596,5.1596,5.1596,5.1596,5.1596,5.1518,5.1324,5.1178,5.122,5.0984,5.0749,5.0801,5.0801,5.0775,5.0775,5.0827,5.0775,5.0775,5.0749,5.0749,5.076,5.076,5.076,5.076,5.0734,5.0775,5.0801,5.0786,5.0801,5.0801,5.0786,5.0786,5.076,5.067,5.0383,4.9729,4.952,4.9259,4.8788,4.8657,4.8553,4.8239,4.8187,4.8187,4.8187,4.8161,4.8041,4.7728,4.7255,4.6903,4.6903,4.6722,4.6527,4.6527,4.6554,4.6554,4.6461,4.6238,4.5924,4.5518,4.5126,4.4917,4.4721,4.4721,4.4721,4.4721,4.4721,4.4721,4.4721,4.4721,4.4707,4.4463,4.4176,4.3681,4.3182,4.3056,4.3,4.3,4.3,4.3,4.3,4.3,4.3,4.3,4.3,4.3,4.2975,4.2889,4.2763,4.2663,4.2562,4.2397,4.2233,4.1982,4.163,5.5099,5.5099,5.5099,5.5099,5.502,5.4602,5.4079,5.3504,5.2971,5.2354,5.1805,5.1675,5.1596,5.1596,5.1596,5.1596,5.1596,5.1596,5.1596,5.1596,5.1596,5.1596,5.1596,5.1596,5.1596,5.1596,5.1586,5.1596,5.1544,5.1481,5.157,5.1465,5.1559,5.1612,5.1518,5.1413,5.1596,5.1596,5.1596,5.1596,5.1596,5.1596,5.1596,5.1596,5.1596,5.1544,5.1481,5.1465,5.1465,5.1465,5.1518,5.1544,5.1596,5.1596,5.1178,5.0435,5.0174,4.9808,4.9389,4.9076,4.884,4.8527,4.8291,4.8213,4.8187,4.8187,4.8161,4.8108,4.7832,4.7504,4.7452,4.7127,4.6958,4.6906,4.6946,4.6894,4.6906,4.6813,4.6682,4.6186,4.5532,4.5205,4.5139,4.4982,4.5034,4.4721,4.4721,4.4721,4.4721,4.4721,4.4653,4.4408,4.408,4.3639,4.3265,4.3042,4.3,4.3,4.3,4.3,4.3,4.3,4.3,4.3,4.3,4.3,4.3,4.3,4.29,4.2889,4.295,4.2875,4.2624,4.2473,4.221,5.5099,5.5099,5.5099,5.5099,5.5072,5.4994,5.4628,5.4053,5.3478,5.2955,5.2276,5.1831,5.1596,5.1596,5.1596,5.1596,5.1596,5.1596,5.1596,5.1596,5.1596,5.1596,5.1596,5.1596,5.1596,5.1596,5.1596,5.1596,5.1596,5.1596,5.1596,5.1596,5.1596,5.1596,5.1596,5.1596,5.1596,5.1596,5.1596,5.1596,5.1596,5.1596,5.1596,5.1596,5.1596,5.1596,5.1596,5.1596,5.1596,5.1596,5.1596,5.1596,5.1596,5.1596,5.1586,5.1298,5.0943,5.042,4.9886,4.952,4.9154,4.8866,4.8527,4.8265,4.8187,4.8187,4.8187,4.8187,4.8068,4.8015,4.7989,4.7963,4.7951,4.7873,4.7742,4.7794,4.7821,4.7362,4.7257,4.7127,4.6552,4.6015,4.574,4.5531,4.5348,4.4982,4.4721,4.4799,4.4825,4.493,4.453,4.4256,4.4052,4.3639,4.3251,4.3042,4.3,4.3,4.3,4.3,4.3,4.3,4.3,4.3,4.3,4.3,4.3,4.3,4.3,4.3,4.3,4.3,4.2975,4.2838,4.2676,5.5099,5.5099,5.5099,5.5099,5.5099,5.5099,5.4759,5.4184,5.3635,5.306,5.2459,5.1858,5.1596,5.1596,5.1596,5.1596,5.1596,5.1596,5.1596,5.1596,5.1596,5.1596,5.1596,5.1596,5.1596,5.1596,5.1596,5.1596,5.1596,5.1596,5.1596,5.1596,5.1596,5.1596,5.1596,5.1596,5.1596,5.1596,5.1596,5.1596,5.1596,5.1596,5.1596,5.1596,5.1596,5.1596,5.1596,5.1596,5.1596,5.1596,5.1596,5.1596,5.1596,5.1596,5.1596,5.157,5.1387,5.0995,5.0487,5.0174,4.9755,4.9206,4.884,4.8605,4.8317,4.8187,4.8187,4.8187,4.8187,4.8187,4.8187,4.8187,4.8187,4.8187,4.8187,4.8187,4.8161,4.8041,4.7806,4.7702,4.7545,4.6996,4.6511,4.6276,4.6107,4.5767,4.5611,4.5689,4.5597,4.5492,4.4863,4.4049,4.3886,4.3693,4.3293,4.3,4.3,4.3,4.3,4.3,4.3,4.3,4.3,4.3,4.3,4.3,4.3,4.3,4.3,4.3,4.3,4.3,4.3,4.2975,4.2738,5.5099,5.5099,5.5099,5.5099,5.5099,5.5099,5.4863,5.4393,5.3844,5.3269,5.2642,5.1988,5.1596,5.1596,5.1596,5.1596,5.1596,5.1596,5.1596,5.1596,5.1596,5.1596,5.1596,5.1596,5.1596,5.1596,5.1596,5.1596,5.1596,5.1596,5.1596,5.1596,5.1596,5.1596,5.1596,5.1596,5.1596,5.1596,5.1596,5.1596,5.1596,5.1596,5.1596,5.1596,5.1596,5.1596,5.1596,5.1596,5.1596,5.1596,5.1596,5.1596,5.1596,5.1596,5.1596,5.1596,5.1518,5.1387,5.1037,5.0723,5.0331,4.9782,4.9087,4.8788,4.8291,4.8187,4.8187,4.8187,4.8187,4.8187,4.8187,4.8187,4.8187,4.8187,4.8187,4.8187,4.8187,4.8094,4.8041,4.7963,4.7899,4.7873,4.7428,4.7141,4.6853,4.6566,4.6501,4.6554,4.6316,4.6041,4.5302,4.4446,4.4165,4.3883,4.3276,4.3,4.3,4.3,4.3,4.3,4.3,4.3,4.3,4.3,4.3,4.3,4.3,4.3,4.3,4.3,4.3,4.3,4.3,4.3,4.2925,5.5099,5.5099,5.5099,5.5099,5.5099,5.5099,5.5072,5.4916,5.4367,5.3766,5.3034,5.2187,5.1596,5.1596,5.1596,5.1596,5.1596,5.1596,5.1596,5.1596,5.1596,5.1596,5.1596,5.1596,5.1596,5.1596,5.1596,5.1596,5.1596,5.1596,5.1596,5.1596,5.1596,5.1596,5.1596,5.1596,5.1596,5.1596,5.1596,5.1596,5.1596,5.1596,5.1596,5.1596,5.1596,5.1596,5.1596,5.1596,5.1596,5.1596,5.1596,5.1596,5.1596,5.1596,5.1596,5.1596,5.1596,5.1518,5.1387,5.1115,5.0827,5.0409,4.9755,4.8893,4.8448,4.8239,4.8187,4.8187,4.8187,4.8187,4.8187,4.8187,4.8187,4.8187,4.8187,4.8187,4.8187,4.8187,4.8161,4.8187,4.8134,4.8056,4.8056,4.769,4.7428,4.7115,4.6984,4.701,4.672,4.6389,4.5729,4.507,4.4696,4.4161,4.3255,4.3039,4.3,4.3,4.3,4.3,4.3,4.3,4.3,4.3,4.3,4.3,4.3,4.3,4.3,4.3,4.3,4.3,4.3,4.3,4.3,5.5099,5.5099,5.5099,5.5099,5.5099,5.5099,5.5099,5.4994,5.4445,5.3661,5.2825,5.1988,5.1596,5.1596,5.1596,5.1596,5.1596,5.1596,5.1596,5.1596,5.1596,5.1596,5.1596,5.1596,5.1596,5.1596,5.1596,5.1596,5.1596,5.1596,5.1596,5.1596,5.1596,5.1596,5.1596,5.1596,5.1596,5.1596,5.1596,5.1596,5.1596,5.1596,5.1596,5.1596,5.1596,5.1596,5.1596,5.1596,5.1596,5.1596,5.1596,5.1596,5.1596,5.1596,5.1596,5.1596,5.1596,5.1596,5.1596,5.1376,5.1167,5.0618,4.9808,4.8997,4.871,4.8448,4.8239,4.8187,4.8187,4.8187,4.8187,4.8187,4.8187,4.8187,4.8187,4.8187,4.8187,4.8187,4.8187,4.8187,4.8187,4.8161,4.8161,4.8134,4.7899,4.7664,4.7559,4.7428,4.715,4.6787,4.6176,4.5451,4.501,4.4421,4.3551,4.324,4.3025,4.3,4.3,4.3,4.3,4.3,4.3,4.3,4.3,4.3,4.3,4.3,4.3,4.3,4.3,4.3,4.3,4.3,4.3,5.5099,5.5099,5.5099,5.5099,5.5099,5.5099,5.5099,5.502,5.468,5.3818,5.272,5.1988,5.1596,5.1596,5.1596,5.1596,5.1596,5.1596,5.1596,5.1596,5.1596,5.1596,5.1596,5.1596,5.1596,5.1596,5.1596,5.1596,5.1596,5.1596,5.1596,5.1596,5.1596,5.1596,5.1596,5.1596,5.1596,5.1596,5.1596,5.1596,5.1596,5.1596,5.1596,5.1596,5.1596,5.1596,5.1596,5.1596,5.1596,5.1596,5.1596,5.1596,5.1596,5.1596,5.1596,5.1596,5.1596,5.1596,5.1596,5.157,5.1335,5.0775,5.0252,4.9572,4.9076,4.871,4.8527,4.8187,4.8187,4.8187,4.8187,4.8187,4.8187,4.8187,4.8187,4.8187,4.8187,4.8187,4.8187,4.8187,4.8187,4.8187,4.8187,4.8187,4.8108,4.7951,4.7899,4.778,4.7673,4.7276,4.6751,4.5985,4.5212,4.4542,4.3861,4.3405,4.3,4.3,4.3,4.3,4.3,4.3,4.3,4.3,4.3,4.3,4.3,4.3,4.3,4.3,4.3,4.3,4.3,4.3,4.3,5.5115,5.5099,5.5115,5.5132,5.5165,5.5115,5.5099,5.5072,5.4968,5.4331,5.3191,5.2187,5.1648,5.1622,5.1596,5.1596,5.1596,5.1596,5.1596,5.1596,5.1596,5.1596,5.1596,5.1596,5.1596,5.1596,5.1596,5.1596,5.1596,5.1596,5.1596,5.1596,5.1596,5.1596,5.1596,5.1596,5.1596,5.1596,5.1596,5.1596,5.1596,5.1596,5.1596,5.1596,5.1596,5.1596,5.1596,5.1596,5.1596,5.1596,5.1596,5.1596,5.1596,5.1596,5.1596,5.1596,5.1596,5.1596,5.1596,5.1596,5.1335,5.0969,5.0566,5.0148,4.9389,4.9023,4.8736,4.8291,4.8187,4.8187,4.8187,4.8187,4.8187,4.8187,4.8187,4.8187,4.8187,4.8187,4.8187,4.8187,4.8187,4.8187,4.8187,4.8187,4.8187,4.8161,4.8187,4.8105,4.7954,4.7587,4.7019,4.6313,4.5432,4.4734,4.4034,4.3391,4.3025,4.3,4.3,4.3,4.3,4.3,4.3,4.3,4.3,4.3,4.3,4.3,4.3,4.3,4.3,4.3,4.3,4.3,4.3,5.5448,5.5465,5.567,5.5753,5.5687,5.5299,5.5099,5.502,5.4654,5.4079,5.3347,5.2511,5.1936,5.1727,5.1596,5.1596,5.1596,5.1596,5.1596,5.1596,5.1596,5.1596,5.1596,5.1596,5.1596,5.1596,5.1596,5.1596,5.1596,5.1596,5.1596,5.1596,5.1596,5.1596,5.1596,5.1596,5.1596,5.1596,5.1596,5.1596,5.1596,5.1596,5.1596,5.1596,5.1596,5.1596,5.1596,5.1596,5.1596,5.1596,5.1596,5.1596,5.1596,5.1596,5.1596,5.1596,5.1596,5.1596,5.1596,5.1596,5.1544,5.1256,5.0917,5.0461,4.9755,4.9285,4.8814,4.8355,4.8213,4.8187,4.8187,4.8187,4.8187,4.8187,4.8187,4.8187,4.8187,4.8187,4.8187,4.8187,4.8187,4.8187,4.8187,4.8187,4.8187,4.8143,4.8143,4.7997,4.7857,4.7534,4.7066,4.641,4.5674,4.4929,4.4245,4.3503,4.3076,4.3,4.3,4.3,4.3,4.3,4.3,4.3,4.3,4.3,4.3,4.3,4.3,4.3,4.3,4.3,4.3,4.3,4.3,5.5769,5.5802,5.6,5.6099,5.6033,5.5621,5.5448,5.5333,5.485,5.4271,5.3676,5.3001,5.2334,5.1883,5.1643,5.1596,5.1596,5.1596,5.1596,5.1596,5.1596,5.1596,5.1596,5.1596,5.1596,5.1596,5.1596,5.1596,5.1596,5.1596,5.1596,5.1596,5.1596,5.1596,5.1596,5.1596,5.1596,5.1596,5.1596,5.1596,5.1596,5.1596,5.1596,5.1596,5.1596,5.1596,5.1596,5.1596,5.1596,5.1596,5.1596,5.1596,5.1596,5.1596,5.1596,5.1596,5.1596,5.1596,5.1596,5.1596,5.157,5.1544,5.11,5.054,4.9965,4.9389,4.8814,4.8422,4.8239,4.8187,4.8187,4.8187,4.8187,4.8187,4.8187,4.8187,4.8187,4.8187,4.8187,4.8187,4.8187,4.8187,4.8187,4.8187,4.8187,4.8128,4.8084,4.7909,4.7703,4.7394,4.6991,4.6389,4.5683,4.4907,4.4192,4.3564,4.3187,4.3025,4.3,4.3,4.3,4.3,4.3,4.3,4.3,4.3,4.3,4.3,4.3,4.3,4.3,4.3,4.3,4.3,4.3,5.6132,5.6132,5.6132,5.6181,5.6148,5.6164,5.6132,5.6045,5.5545,5.4943,5.4315,5.3435,5.2712,5.2133,5.1752,5.1627,5.1596,5.1596,5.1596,5.1596,5.1596,5.1596,5.1596,5.1596,5.1596,5.1596,5.1596,5.1596,5.1596,5.1596,5.1596,5.1596,5.1596,5.1596,5.1596,5.1596,5.1596,5.1596,5.1596,5.1596,5.1596,5.1596,5.1596,5.1596,5.1596,5.1596,5.1596,5.1596,5.1596,5.1596,5.1596,5.1596,5.1596,5.1596,5.1596,5.1596,5.1596,5.1596,5.1596,5.1596,5.1492,5.1387,5.0943,5.0461,4.9965,4.9416,4.884,4.8422,4.8187,4.8187,4.8187,4.8187,4.8187,4.8187,4.8187,4.8187,4.8187,4.8187,4.8187,4.8187,4.8187,4.8187,4.8187,4.8187,4.8172,4.8114,4.8011,4.7762,4.7541,4.729,4.6877,4.6326,4.5574,4.4798,4.4127,4.3514,4.3212,4.3,4.3,4.3,4.3,4.3,4.3,4.3,4.3,4.3,4.3,4.3,4.3,4.3,4.3,4.3,4.3,4.3,4.3,5.6524,5.6541,5.6785,5.6882,5.6882,5.6882,5.6606,5.6095,5.5918,5.5375,5.4389,5.4134,5.3286,5.2158,5.1996,5.1825,5.17,5.1596,5.1596,5.1596,5.1596,5.1596,5.1596,5.1596,5.1596,5.1596,5.1596,5.1596,5.1596,5.1596,5.1596,5.1596,5.1596,5.1596,5.1596,5.1596,5.1596,5.1596,5.1596,5.1596,5.1596,5.1596,5.1596,5.1596,5.1596,5.1596,5.1596,5.1596,5.1596,5.1596,5.1596,5.1596,5.1596,5.1596,5.1596,5.1596,5.1596,5.1596,5.1596,5.1612,5.1455,5.1021,5.0498,5.0185,4.9766,4.9337,4.8788,4.8422,4.8187,4.8187,4.8187,4.8187,4.8187,4.8187,4.8187,4.8187,4.8187,4.8187,4.8187,4.8187,4.8187,4.8187,4.8187,4.8187,4.8157,4.8099,4.7924,4.7604,4.7276,4.6985,4.6656,4.6081,4.5317,4.4468,4.3991,4.3388,4.3176,4.3,4.3,4.3,4.3,4.3,4.3,4.3,4.3,4.3,4.3,4.3,4.3,4.3,4.3,4.3,4.3,4.3,4.3,5.6947,5.712,5.7303,5.7463,5.7576,5.7592,5.7319,5.6947,5.6671,5.587,5.485,5.4659,5.3828,5.264,5.2245,5.1996,5.1799,5.1659,5.1596,5.1596,5.1596,5.1596,5.1596,5.1596,5.1596,5.1596,5.1596,5.1596,5.1596,5.1596,5.1596,5.1596,5.1596,5.1596,5.1596,5.1596,5.1596,5.1596,5.1596,5.1596,5.1596,5.1596,5.1596,5.1596,5.1596,5.1596,5.1596,5.1596,5.1596,5.1596,5.1596,5.1596,5.1596,5.1596,5.1596,5.1596,5.1596,5.1596,5.157,5.1335,5.11,5.0681,5.0054,4.9677,4.9363,4.8997,4.8605,4.8265,4.8213,4.8187,4.8187,4.8187,4.8187,4.8187,4.8187,4.8187,4.8187,4.8187,4.8187,4.8187,4.8187,4.8187,4.8187,4.8187,4.8084,4.7909,4.7582,4.7159,4.681,4.6476,4.6189,4.5771,4.4968,4.4127,4.3689,4.3352,4.3151,4.3,4.3,4.3,4.3,4.3,4.3,4.3,4.3,4.3,4.3,4.3,4.3,4.3,4.3,4.3,4.3,4.3,4.3,5.7431,5.772,5.7736,5.7896,5.8166,5.815,5.8135,5.8135,5.7512,5.6586,5.5498,5.5069,5.4235,5.3063,5.2538,5.2214,5.2012,5.1825,5.1659,5.1612,5.1596,5.1596,5.1596,5.1596,5.1596,5.1596,5.1596,5.1596,5.1596,5.1596,5.1596,5.1596,5.1596,5.1596,5.1596,5.1596,5.1596,5.1596,5.1596,5.1596,5.1596,5.1596,5.1596,5.1596,5.1596,5.1596,5.1596,5.1596,5.1596,5.1596,5.1596,5.1596,5.1596,5.1596,5.1596,5.1596,5.1596,5.1507,5.1376,5.11,5.0775,5.0304,4.9729,4.9259,4.8919,4.8698,4.8344,4.8239,4.8213,4.8187,4.8187,4.8187,4.8187,4.8187,4.8187,4.8187,4.8187,4.8187,4.8187,4.8187,4.8187,4.8187,4.8187,4.8172,4.8055,4.7777,4.7276,4.6788,4.6242,4.5889,4.551,4.5229,4.4622,4.3915,4.3564,4.3251,4.3101,4.3,4.3,4.3,4.3,4.3,4.3,4.3,4.3,4.3,4.3,4.3,4.3,4.3,4.3,4.3,4.3,4.3,4.3,5.7768,5.8087,5.8087,5.8119,5.8198,5.8198,5.823,5.8182,5.8055,5.713,5.5917,5.536,5.4484,5.3255,5.2933,5.2584,5.2167,5.2012,5.1841,5.1674,5.1612,5.1596,5.1596,5.1596,5.1596,5.1596,5.1596,5.1596,5.1596,5.1596,5.1596,5.1596,5.1596,5.1596,5.1596,5.1596,5.1596,5.1596,5.1596,5.1596,5.1596,5.1596,5.1596,5.1596,5.1596,5.1596,5.1596,5.1596,5.1596,5.1596,5.1596,5.1596,5.1596,5.1596,5.1596,5.1596,5.1518,5.135,5.101,5.0723,5.0357,4.9782,4.9206,4.884,4.8527,4.8332,4.8227,4.8187,4.8187,4.8187,4.8187,4.8187,4.8187,4.8187,4.8187,4.8187,4.8187,4.8187,4.8187,4.8187,4.8187,4.8187,4.8187,4.8114,4.7982,4.7566,4.6923,4.632,4.5632,4.516,4.4605,4.4321,4.422,4.3704,4.3377,4.3201,4.3051,4.3,4.3,4.3,4.3,4.3,4.3,4.3,4.3,4.3,4.3,4.3,4.3,4.3,4.3,4.3,4.3,4.3,4.3,5.8119,5.8436,5.8735,5.8955,5.908,5.9068,5.9017,5.8805,5.8425,5.7536,5.6378,5.578,5.4839,5.3575,5.327,5.2995,5.2476,5.2198,5.2043,5.1856,5.1643,5.1596,5.1596,5.1596,5.1596,5.1596,5.1596,5.1596,5.1596,5.1596,5.1596,5.1596,5.1596,5.1596,5.1596,5.1596,5.1596,5.1596,5.1596,5.1596,5.1596,5.1596,5.1596,5.1596,5.1596,5.1596,5.1596,5.1596,5.1596,5.1596,5.1596,5.1596,5.1596,5.1596,5.1465,5.1282,5.1152,5.0995,5.0566,5.0148,4.9793,4.9259,4.8762,4.8422,4.837,4.8187,4.8187,4.8187,4.8187,4.8187,4.8187,4.8187,4.8187,4.8187,4.8187,4.8187,4.8187,4.8187,4.8187,4.8187,4.8187,4.8187,4.8187,4.8172,4.7904,4.7077,4.6477,4.5704,4.5045,4.4529,4.3936,4.3564,4.3578,4.3478,4.3201,4.3076,4.3025,4.3,4.3,4.3,4.3,4.3,4.3,4.3,4.3,4.3,4.3,4.3,4.3,4.3,4.3,4.3,4.3,4.3014,4.3028,5.8562,5.8955,5.95,5.9902,6.0178,6.0194,5.9994,5.9617,5.8833,5.7907,5.6969,5.6277,5.5258,5.4221,5.3546,5.33,5.2937,5.2461,5.2229,5.1996,5.1721,5.1643,5.1596,5.1596,5.1596,5.1596,5.1596,5.1596,5.1596,5.1596,5.1596,5.1596,5.1596,5.1596,5.1596,5.1596,5.1596,5.1596,5.1596,5.1596,5.1596,5.1596,5.1596,5.1596,5.1596,5.1596,5.1596,5.1596,5.1596,5.1596,5.1596,5.1596,5.1518,5.1481,5.1204,5.101,5.0723,5.0383,4.9912,4.9494,4.9206,4.884,4.8422,4.8239,4.8213,4.8187,4.8187,4.8187,4.8187,4.8187,4.8187,4.8187,4.8187,4.8187,4.8187,4.8187,4.8187,4.8187,4.8187,4.8187,4.8187,4.8187,4.8187,4.8187,4.7594,4.6754,4.5933,4.511,4.4424,4.4022,4.3531,4.3302,4.3251,4.3101,4.3,4.3,4.3,4.3,4.3,4.3,4.3,4.3,4.3,4.3,4.3,4.3,4.3,4.3,4.3,4.3,4.3,4.3,4.3,4.3014,4.3056,5.9361,5.9933,6.0027,6.0163,6.0224,6.024,6.0178,5.9988,5.9326,5.8474,5.7533,5.6626,5.5517,5.4119,5.4029,5.3713,5.3182,5.2707,5.2337,5.209,5.1815,5.1674,5.1596,5.1596,5.1596,5.1596,5.1596,5.1596,5.1596,5.1596,5.1596,5.1596,5.1596,5.1596,5.1596,5.1596,5.1596,5.1596,5.1596,5.1596,5.1596,5.1596,5.1596,5.1596,5.1596,5.1596,5.1596,5.1596,5.1596,5.1596,5.1596,5.157,5.1413,5.122,5.0906,5.054,5.0278,4.9808,4.9337,4.9076,4.8855,4.8527,4.8213,4.8213,4.8187,4.8187,4.8187,4.8187,4.8187,4.8187,4.8187,4.8187,4.8187,4.8187,4.8187,4.8187,4.8187,4.8187,4.8187,4.8187,4.8187,4.8187,4.8187,4.7995,4.753,4.6672,4.5862,4.501,4.3982,4.3534,4.3176,4.3101,4.3,4.3,4.3,4.3,4.3,4.3,4.3,4.3,4.3,4.3,4.3,4.3,4.3,4.3,4.3,4.3,4.3,4.3,4.3,4.3,4.3,4.307,4.3115]}]]